     2.11           OBSERVATION DATA    G (GPS)             RINEX VERSION / TYPE
teqc 2010Oct21 OPUS Account 20111101 15:23:59UTC            PGM / RUN BY / DATE
Q 1522                                                      MARKER NAME
1170                                                        MARKER NUMBER
DBPROUTY NGS                                                OBSERVER / AGENCY
4624K01634 TRIMBLE NETR5 NP 70.55 / SP 451.54               REC # / TYPE / VERS
12668881 TRM41249.00 NONE                                   ANT # / TYPE
  -738054.2959 -5496299.3075  3140267.6520                  APPROX POSITION XYZ
        2.0000        0.0000        0.0000                  ANTENNA: DELTA H/E/N
     1     1                                                WAVELENGTH FACT L1/2
     5    L1    L2    C1    P1    P2                        # / TYPES OF OBSERV
    30.0000                                                 INTERVAL
  2011     8     9     0     0    0.0000000     GPS         TIME OF FIRST OBS
                                                            END OF HEADER
 11  8  9  0  0  0.0000000  0  9G28G12G10G17G05G09G04G27G02
  -8841564.14247  -6849159.04144  23027643.2344                   23027644.8484
  -7425159.844 7  -5767486.148 6  23369300.867
 -13733253.99147 -10655245.20445  21917371.2664                   21917372.6564
 -13485114.550 7 -10462099.897 7  22009537.664
   -531264.713 6   -371611.943 6  24621726.492
 -10225425.72947  -7272906.91345  22230136.7504                   22230137.7194
 -23772354.24848 -18406814.50846  20136279.2504                   20136279.6414
 -15242421.85147 -11511089.77945  22638504.3444                   22638506.0554
 -19492590.17648 -15138403.13046  21174556.7034                   21174555.1254
 11  8  9  0  0 30.0000000  0  9G28G12G10G17G05G09G04G27G02
  -8757586.54247  -6783722.06544  23043623.6884                   23043626.1604
  -7519130.313 7  -5840709.842 6  23351418.883
 -13806323.24247 -10712182.23245  21903466.5474                   21903468.4804
 -13446621.079 8 -10432104.997 7  22016862.391
   -636151.711 6   -453341.777 6  24601767.805
 -10193795.68347  -7248260.14445  22236155.7974                   22236156.7464
 -23735243.12248 -18377896.76146  20143341.4774                   20143342.2544
 -15208980.43347 -11485031.56045  22644868.4144                   22644870.2704
 -19539589.95948 -15175026.31146  21165612.7114                   21165611.2814
 11  8  9  0  1  0.0000000  0  9G28G12G10G17G05G09G04G27G02
  -8673298.09247  -6718042.82144  23059663.7814                   23059665.1054
  -7612985.929 7  -5913844.110 6  23333558.531
 -13879024.85047 -10768832.77545  21889631.9694                   21889632.9884
 -13408035.847 8 -10402038.584 7  22024205.359
   -741119.828 6   -535134.828 6  24581793.188
 -10161609.22147  -7223179.81945  22242280.1254                   22242282.0164
 -23697688.11848 -18348633.11646  20150487.7504                   20150488.4264
 -15175147.79547 -11458668.49445  22651306.7344                   22651308.4494
 -19586223.87948 -15211364.40646  21156738.6724                   21156737.3834
 11  8  9  0  1 30.0000000  0  9G28G12G10G17G05G09G04G27G02
  -8588699.24647  -6652121.72944  23075762.1564                   23075763.7584
  -7706723.179 7  -5986886.137 6  23315721.172
 -13951354.49447 -10825193.48645  21875867.5864                   21875869.5594
 -13369357.777 8 -10371899.829 7  22031565.586
   -846165.893 6   -616988.647 6  24561803.359
 -10128867.43547  -7197666.75445  22248511.3754                   22248512.7114
 -23659690.41948 -18319024.52246  20157718.6094                   20157719.2194
 -15140925.10447 -11432001.49445  22657819.1724                   22657820.3524
 -19632490.92748 -15247416.61946  21147934.4064                   21147932.4694
 11  8  9  0  2  0.0000000  0  9G28G12G10G17G05G09G04G27G02
  -8503791.54747  -6585959.99644  23091919.8674                   23091921.8634
  -7800340.167 7  -6059834.404 6  23297906.523
 -14023309.51847 -10881262.28645  21862175.1884                   21862176.6644
 -13330586.258 8 -10341688.255 7  22038943.148
   -951287.236 7   -698901.080 6  24541798.914
 -10095572.51247  -7171722.68145  22254846.7504                   22254848.7034
 -23621252.20048 -18289072.65646  20165033.2194                   20165033.7424
 -15106314.26947 -11405032.03545  22664405.3444                   22664407.1564
 -19678391.25748 -15283183.08546  21139199.7974                   21139198.1604
 11  8  9  0  2 30.0000000  0  9G28G12G10G17G05G09G04G27G02
  -8418575.96047  -6519558.31743  23108135.7894                   23108137.1994
  -7893833.641 7  -6132686.444 7  23280115.172
 -14094886.11247 -10937036.19245  21848554.8204                   21848556.0984
 -13291721.023 7 -10311403.646 7  22046339.391
  -1056480.699 7   -780869.702 6  24521780.156
 -10061726.34347  -7145349.07645  22261287.4694                   22261289.2934
 -23582375.20548 -18258778.88446  20172430.9614                   20172431.4654
 -15071316.46547 -11377761.05045  22671064.5634                   22671067.1564
 -19723923.96148 -15318663.07946  21130535.0634                   21130533.4614
 11  8  9  0  3  0.0000000  0  9G28G12G10G17G05G09G04G27G02
  -8333054.19347  -6452918.05444  23124409.9534                   23124411.7704
  -7987201.341 7  -6205440.460 7  23262348.148
 -14166081.23247 -10992512.87045  21835007.1334                   21835008.0554
 -13252761.613 7 -10281045.650 7  22053752.805
  -1161744.155 7   -862892.837 6  24501749.828
 -10027331.33047  -7118547.78445  22267832.7034                   22267834.5044
 -23543061.47648 -18228144.80746  20179912.1484                   20179912.9614
 -15035934.21547 -11350190.47645  22677797.5704                   22677799.6054
 -19769089.27648 -15353856.79646  21121940.5474                   21121938.6644
 11  8  9  0  3 30.0000000  0  9G28G12G10G17G05G09G04G27G02
  -8247227.75147  -6386040.39344  23140742.3444                   23140744.3554
  -8080441.912 7  -6278095.386 7  23244604.000
 -14236892.04447 -11047690.06445  21821531.9144                   21821533.6254
 -13213708.386 8 -10250614.554 7  22061184.883
  -1267075.281 6   -944968.754 6  24481704.555
  -9992389.92647  -7091320.73645  22274482.0164                   22274483.6214
 -23503313.67548 -18197172.49246  20187476.2424                   20187476.5124
 -15000169.77047 -11322322.11945  22684603.8524                   22684605.3874
 -19813887.49748 -15388764.48046  21113415.6954                   21113413.8634
 11  8  9  0  4  0.0000000  0  9G28G12G10G17G05G09G04G27G02
  -8161097.18447  -6318925.75944  23157132.4304                   23157134.0664
  -8173551.919 7  -6350648.581 6  23226886.617
 -14307314.70847 -11102564.81145  21808131.2114                   21808132.1054
 -13174559.793 7 -10220109.151 7  22068634.453
  -1372470.678 6  -1027094.675 6  24461648.852
  -9956903.32247  -7063668.87645  22281235.0864                   22281236.4384
 -23463133.06148 -18165862.91046  20195122.1174                   20195122.6914
 -14964023.91847 -11294156.55344  22691482.8364                   22691483.5124
 -19858317.39148 -15423385.14246  21104960.9774                   21104959.0394
 11  8  9  0  4 30.0000000  0  9G28G12G10G17G05G09G04G27G02
  -8074664.89447  -6251576.00844  23173580.5554                   23173582.1764
  -8266529.895 7  -6423098.861 7  23209193.008
 -14377347.16847 -11157135.49345  21794804.4144                   21794805.3914
 -13135316.107 7 -10189529.663 7  22076101.797
  -1477928.460 6  -1109269.260 5  24441579.563
  -9920875.08147  -7035594.95045  22288091.5554                   22288092.2304
 -23422522.62648 -18134218.41546  20202850.2734                   20202850.6954
 -14927499.80147 -11265696.22545  22698432.6724                   22698434.5554
 -19902379.89848 -15457719.53546  21096576.2894                   21096574.5164
 11  8  9  0  5  0.0000000  0  9G28G12G10G17G05G09G04G27G02
  -7987931.74947  -6183991.84544  23190084.9614                   23190087.1764
  -8359372.971 7  -6495444.068 6  23191526.078
 -14446985.91047 -11211399.40545  21781552.1954                   21781553.6414
 -13095977.165 8 -10158875.941 7  22083588.141
  -1583445.265 6  -1191489.874 6  24421500.359
  -9884306.93947  -7007100.32445  22295049.8984                   22295051.1174
 -23381484.09348 -18102240.34446  20210659.5314                   20210660.0204
 -14890599.20347 -11236942.54345  22705454.6804                   22705456.0984
 -19946074.55048 -15491767.28546  21088261.0554                   21088259.2464
 11  8  9  0  5 30.0000000  0  9G28G12G10G17G05G09G04G27G02
  -7900899.53847  -6116174.64444  23206646.8134                   23206648.9024
  -8452079.120 7  -6567682.539 6  23173884.578
 -14516228.05747 -11265354.26745  21768376.2504                   21768377.3324
 -13056542.356 7 -10128147.532 7  22091091.797
  -1689019.479 6  -1273755.141 6  24401411.070
  -9847201.40447  -6978186.95445  22302110.7424                   22302112.2814
 -23340019.97648 -18069930.64346  20218549.8984                   20218550.6374
 -14853324.40247 -11207897.28845  22712547.3754                   22712549.0744
 -19989401.38448 -15525528.41846  21080016.3754                   21080014.6724
 11  8  9  0  6  0.0000000  0  9G28G12G10G17G05G09G04G27G02
  -7813569.77147  -6048125.55744  23223265.5474                   23223267.1374
  -8544646.501 7  -6639812.918 6  23156269.352
 -14585070.75347 -11318997.86745  21755275.9924                   21755276.5904
 -13017011.789 7 -10097344.513 7  22098614.680
  -1794648.246 6  -1356063.020 6  24381310.102
  -9809561.12147  -6948856.89845  22309273.0084                   22309274.7704
 -23298132.67048 -18037291.18746  20226520.6564                   20226521.2464
 -14815677.47147 -11178562.04244  22719711.7664                   22719713.1484
 -20032360.54748 -15559003.07546  21071841.8134                   21071840.0204
 11  8  9  0  6 30.0000000  0  9G28G12G10G17G05G09G04G27G02
  -7725943.90847  -5979845.77644  23239939.8754                   23239942.2894
  -8637071.845 7  -6711832.609 6  23138681.398
 -14653510.55447 -11372327.53845  21742251.6174                   21742252.8554
 -12977384.626 7 -10066466.201 7  22106155.180
  -1900328.747 6  -1438411.144 6  24361199.281
  -9771388.55047  -6919112.07845  22316536.7424                   22316539.3444
 -23255824.02048 -18004323.40746  20234571.8284                   20234572.4414
 -14777660.34147 -11148938.36045  22726945.6254                   22726948.2854
 -20074951.87748 -15592191.09646  21063736.7194                   21063734.8984
 11  8  9  0  7  0.0000000  0  9G28G12G10G17G05G09G04G27G02
  -7638022.36446  -5911335.57044  23256670.5084                   23256672.9264
  -8729352.568 7  -6783739.579 6  23121120.734
 -14721543.58148 -11425340.23145  21729305.6724                   21729306.9264
 -12937659.917 7 -10035511.896 7  22113714.680
  -2006057.382 6  -1520796.786 6  24341078.898
  -9732684.84547  -6888953.37145  22323902.0864                   22323903.9884
 -23213095.27748 -17971028.27946  20242703.1024                   20242703.6884
 -14739274.33347 -11119027.21444  22734250.9304                   22734252.2304
 -20117174.33548 -15625091.69346  21055702.3204                   21055700.2934
 11  8  9  0  7 30.0000000  0  9G28G12G10G17G05G09G04G27G02
  -7549808.25846  -5842597.45044  23273457.7194                   23273459.5514
  -8821487.486 7  -6855532.975 6  23103587.844
 -14789168.34547 -11478034.80145  21716436.7664                   21716438.0904
 -12897838.182 7 -10004481.975 7  22121292.484
  -2111833.083 6  -1603219.129 6  24320951.031
  -9693453.65447  -6858383.64345  22331367.1644                   22331369.3554
 -23169950.21348 -17937408.75046  20250913.0634                   20250913.5744
 -14700522.95547 -11088831.35544  22741624.6484                   22741626.2704
 -20159029.35348 -15657705.97046  21047737.1094                   21047734.8674
 11  8  9  0  8  0.0000000  0  9G28G12G10G17G05G09G04G27G02
  -7461301.74547  -5773631.39443  23290299.8054                   23290302.1954
  -8913473.116 7  -6927210.000 6  23086083.867
 -14856380.66747 -11530407.99345  21703646.8204                   21703647.5314
 -12857918.255 8  -9973375.557 7  22128888.773
  -2217651.864 6  -1685675.073 6  24300813.820
  -9653696.36447  -6827403.97345  22338934.4064                   22338935.0434
 -23126389.86648 -17903465.63546  20259202.1644                   20259202.7384
 -14661407.13347 -11058351.54944  22749069.0634                   22749070.2234
 -20200515.75948 -15690033.01246  21039842.4774                   21039840.6994
 11  8  9  0  8 30.0000000  0  9G28G12G10G17G05G09G04G27G02
  -7372505.08746  -5704439.35543  23307197.9064                   23307199.9654
  -9005307.730 7  -6998769.386 6  23068608.047
 -14923178.41148 -11582458.13445  21690935.7274                   21690936.9454
 -12817900.329 7  -9942192.777 7  22136504.141
  -2323511.817 6  -1768163.072 6  24280669.555
  -9613416.18547  -6796016.84545  22346598.0864                   22346599.4104
 -23082416.90248 -17869200.99346  20267570.0084                   20267570.7734
 -14621929.49547 -11027589.81044  22756580.7114                   22756582.3794
 -20241634.35548 -15722073.46046  21032017.7424                   21032015.8954
 11  8  9  0  9  0.0000000  0  9G28G12G10G17G05G09G04G27G02
  -7283419.12846  -5635021.81643  23324150.0784                   23324151.8324
  -9096988.367 7  -7070208.796 6  23051161.828
 -14989557.62448 -11634182.16245  21678303.5634                   21678304.9264
 -12777783.577 7  -9910932.987 7  22144138.820
  -2429409.541 6  -1850680.483 6  24260518.281
  -9572614.94047  -6764223.69145  22354362.2664                   22354363.7894
 -23038033.18748 -17834616.28846  20276015.9694                   20276016.5204
 -14582091.43947 -10996547.20244  22764161.9774                   22764162.4774
 -20282383.99748 -15753826.38946  21024263.5314                   21024261.6524
 11  8  9  0  9 30.0000000  0  9G28G12G10G17G05G09G04G27G02
  -7194046.52047  -5565380.91543  23341157.2664                   23341158.3674
  -9188513.678 7  -7141527.154 6  23033745.344
 -15055516.50647 -11685578.64645  21665752.3364                   21665753.5164
 -12737568.786 8  -9879596.812 7  22151790.813
  -2535343.572 6  -1933226.194 6  24240358.453
  -9531296.26047  -6732027.32845  22362224.9304                   22362226.8674
 -22993241.78548 -17799713.89246  20284539.5864                   20284540.3364
 -14541896.50947 -10965226.51744  22771810.6804                   22771811.6844
 -20322766.64648 -15785293.36046  21016578.8134                   21016576.7974
 11  8  9  0 10  0.0000000  0  9G28G12G10G17G05G09G04G27G02
  -7104388.38246  -5495517.52543  23358217.6254                   23358219.9494
  -9279880.383 7  -7212721.959 6  23016358.875
 -15121051.43947 -11736644.79145  21653281.5314                   21653282.1884
 -12697254.432 7  -9848183.036 7  22159462.703
  -2641310.283 6  -2015797.394 6  24220193.703
  -9489461.99647  -6699429.24045  22370186.3754                   22370187.1484
 -22948044.40148 -17764495.14946  20293140.1954                   20293140.7624
 -14501346.13047 -10933628.88244  22779527.2504                   22779528.2304
 -20362781.34048 -15816473.62446  21008964.6484                   21008962.6884
 11  8  9  0 10 30.0000000  0  9G28G12G10G17G05G09G04G27G02
  -7014446.26946  -5425432.87743  23375333.6334                   23375335.0234
  -9371086.554 7  -7283791.662 6  22999002.539
 -15186159.66247 -11787378.43245  21640891.7664                   21640892.7034
 -12656840.464 7  -9816691.641 7  22167153.445
  -2747307.619 6  -2098392.451 6  24200023.477
  -9447114.72747  -6666431.39645  22378244.7894                   22378246.0744
 -22902443.64048 -17728962.09546  20301817.7504                   20301818.3674
 -14460442.56947 -10901756.00544  22787310.9694                   22787313.0864
 -20402428.18048 -15847367.24346  21001419.9454                   21001418.2114
 11  8  9  0 11  0.0000000  0  9G28G12G10G17G05G09G04G27G02
  -6924221.54647  -5355127.99543  23392503.6484                   23392504.6254
  -9462129.021 7  -7354733.840 6  22981677.219
 -15250837.67947 -11837776.84045  21628583.6174                   21628584.6954
 -12616325.996 8  -9785121.940 7  22174862.500
  -2853332.193 6  -2181008.738 6  24179846.961
  -9404256.85247  -6633035.67945  22386401.0634                   22386401.8094
 -22856441.01348 -17693115.89746  20310571.8284                   20310572.4884
 -14419187.90747 -10869609.55644  22795161.6724                   22795163.2544
 -20441706.81748 -15877973.93846  20993945.2504                   20993943.3714
 11  8  9  0 11 30.0000000  0  9G28G12G10G17G05G09G04G27G02
  -6833715.42447  -5284603.83843  23409726.1484                   23409727.6644
  -9553005.467 7  -7425546.614 6  22964384.367
 -15315082.72147 -11887837.86245  21616358.8444                   21616359.5164
 -12575710.835 7  -9753473.772 7  22182591.414
  -2959381.330 6  -2263644.221 6  24159666.352
  -9360890.59247  -6599243.80745  22394652.2734                   22394654.2664
 -22810038.91648 -17656958.42546  20319401.7344                   20319402.6054
 -14377584.13747 -10837191.05944  22803078.8594                   22803079.5704
 -20480617.49048 -15908293.91646  20986540.7344                   20986538.9774
 11  8  9  0 12  0.0000000  0  9G28G12G10G17G05G09G04G27G02
  -6742929.28246  -5213861.46443  23427002.0704                   23427005.0864
  -9643713.748 7  -7496228.356 6  22947122.766
 -15378891.73247 -11937559.12745  21604216.3204                   21604216.6604
 -12534994.289 7  -9721746.604 7  22190339.047
  -3065451.969 6  -2346296.361 6  24139481.867
  -9317018.53647  -6565057.79645  22403001.4384                   22403002.3244
 -22763239.40448 -17620491.26346  20328307.4064                   20328308.3794
 -14335633.10347 -10804502.00544  22811062.0234                   22811063.4024
 -20519159.81448 -15938326.87646  20979206.6414                   20979204.4064
 11  8  9  0 12 30.0000000  0  9G28G12G10G17G05G09G04G27G02
  -6651865.72547  -5142902.94443  23444331.3834                   23444333.6054
  -9734251.596 7  -7566777.300 7  22929894.063
 -15442262.28047 -11986938.72445  21592156.3134                   21592157.6914
 -12494176.277 7  -9689940.399 7  22198107.438
  -3171542.168 6  -2428963.824 6  24119293.672
  -9272643.82447  -6530480.14245  22411445.6884                   22411446.9454
 -22716045.32748 -17583716.65446  20337288.2424                   20337288.8484
 -14293337.87147 -10771544.71244  22819109.8204                   22819111.2034
 -20557334.86048 -15968073.63546  20971941.9694                   20971940.0744
 11  8  9  0 13  0.0000000  0  9G28G12G10G17G05G09G04G27G02
  -6560526.21846  -5071729.42543  23461712.0554                   23461714.5164
  -9824616.829 7  -7637191.723 7  22912698.641
 -15505191.96847 -12035974.80745  21580181.5474                   21580182.3714
 -12453257.011 7  -9658055.268 7  22205893.641
  -3277649.547 7  -2511644.681 6  24099101.648
  -9227769.57947  -6495513.22545  22419985.1564                   22419985.6914
 -22668459.44848 -17546636.74946  20346343.4224                   20346344.3444
 -14250701.09247 -10738321.29444  22827223.9534                   22827224.9844
 -20595142.84648 -15997534.38046  20964747.2424                   20964745.4654
 11  8  9  0 13 30.0000000  0  9G28G12G10G17G05G09G04G27G02
  -6468912.08746  -5000341.84443  23479145.6724                   23479148.3094
  -9914806.368 7  -7707469.234 7  22895535.570
 -15567676.97147 -12084664.37945  21568290.9064                   21568292.7624
 -12412235.093 7  -9626090.156 7  22213699.797
  -3383770.458 6  -2594336.041 6  24078907.586
  -9182397.60647  -6460158.47145  22428618.9774                   22428619.6604
 -22620482.98648 -17509252.49346  20355473.1174                   20355473.6054
 -14207724.10147 -10704832.75844  22835401.5864                   22835402.5944
 -20632583.36048 -16026708.77346  20957622.7894                   20957620.9454
 11  8  9  0 14  0.0000000  0  9G28G12G10G17G05G09G04G27G02
  -6377025.53746  -4928742.07444  23496631.9454                   23496634.3874
 -10004818.574 7  -7777608.577 7  22878406.891
 -15629715.14947 -12133005.76745  21556485.6564                   21556487.0434
 -12371110.774 7  -9594045.240 7  22221525.813
  -3489903.125 6  -2677036.630 6  24058711.055
  -9136531.11047  -6424418.38145  22437347.8054                   22437348.0864
 -22572119.03548 -17471566.29946  20364676.3204                   20364677.2344
 -14164409.86047 -10671081.45444  22843644.5234                   22843644.7194
 -20669656.98048 -16055597.26946  20950567.8284                   20950565.6604
 11  8  9  0 14 30.0000000  0  9G28G12G10G17G05G09G04G27G02
  -6284866.66446  -4856930.07143  23514168.9454                   23514171.7934
 -10094649.332 7  -7847606.529 7  22861312.891
 -15691302.22347 -12180995.65145  21544766.0704                   21544767.2384
 -12329882.288 7  -9561919.171 7  22229371.422
  -3596042.977 6  -2759742.737 6  24038513.047
  -9090171.51847  -6388294.05944  22446169.4774                   22446170.2894
 -22523368.45748 -17433578.84146  20373953.6094                   20373954.0274
 -14120759.22547 -10637068.01244  22851951.2424                   22851952.6254
 -20706362.45048 -16084198.91846  20943582.8524                   20943581.4384
 11  8  9  0 15  0.0000000  0  9G28G12G10G17G05G09G04G27G02
  -6192439.09246  -4784908.70043  23531757.2664                   23531759.6994
 -10184297.987 7  -7917462.565 7  22844253.297
 -15752437.21847 -12228633.26645  21533132.3674                   21533133.5124
 -12288550.997 8  -9529713.002 7  22237236.273
  -3702189.319 7  -2842453.951 6  24018313.406
  -9043323.48647  -6351789.11344  22455084.0634                   22455084.5984
 -22474235.58748 -17395293.48946  20383302.8204                   20383303.9694
 -14076776.23347 -10602795.58844  22860321.1094                   22860321.5434
 -20742701.74148 -16112515.22746  20936667.8674                   20936665.7544
 11  8  9  0 15 30.0000000  0  9G28G12G10G17G05G09G04G27G02
  -6099742.68546  -4712677.85243  23549396.7424                   23549399.5664
 -10273760.684 7  -7987173.702 7  22827228.320
 -15813115.74847 -12275915.19745  21521585.5634                   21521586.7304
 -12247114.574 7  -9497424.903 7  22245121.227
  -3808337.733 7  -2925166.721 6  23998114.234
  -8995987.71047  -6314904.11544  22464091.5474                   22464092.1174
 -22424720.72448 -17356710.47746  20392725.5554                   20392726.2344
 -14032461.39747 -10568264.59244  22868753.4614                   22868754.7624
 -20778673.24148 -16140544.94846  20929822.3674                   20929820.7774
 11  8  9  0 16  0.0000000  0  9G28G12G10G17G05G09G04G27G02
  -6006779.92246  -4640239.46543  23567087.6414                   23567090.0664
 -10363035.649 7  -8056738.529 7  22810240.414
 -15873335.62548 -12322839.74745  21510126.3444                   21510127.5274
 -12205573.619 7  -9465055.348 7  22253026.438
  -3914486.094 6  -3007879.474 6  23977914.023
  -8948167.55647  -6277641.69944  22473191.4614                   22473192.4064
 -22374826.87848 -17317832.16346  20402219.9844                   20402220.4344
 -13987817.73447 -10533477.38044  22877248.6174                   22877250.4224
 -20814278.27348 -16168289.11046  20923047.3284                   20923045.2304
 11  8  9  0 16 30.0000000  0  9G28G12G10G17G05G09G04G27G02
  -5913553.53346  -4567595.64543  23584827.2734                   23584830.2814
 -10452121.113 7  -8126155.735 7  22793287.766
 -15933094.99347 -12369405.42745  21498754.4454                   21498755.6644
 -12163928.253 7  -9432604.413 7  22260951.117
  -4020632.506 6  -3090590.742 6  23957715.133
  -8899866.98147  -6240004.92044  22482382.8054                   22482383.7584
 -22324557.55848 -17278661.27446  20411785.8134                   20411786.6024
 -13942848.48646 -10498436.44244  22885805.9774                   22885807.7154
 -20849517.87348 -16195748.52146  20916341.3444                   20916339.3754
 11  8  9  0 17  0.0000000  0  9G28G12G10G17G05G09G04G27G02
  -5820063.27946  -4494746.22343  23602618.3284                   23602620.8834
 -10541013.009 7  -8195422.113 7  22776372.516
 -15992389.59247 -12415608.99545  21487471.0314                   21487472.4774
 -12122176.503 7  -9400070.600 7  22268896.164
  -4126772.654 6  -3173297.049 6  23937517.320
  -8851087.40147  -6201994.90144  22491664.9844                   22491666.3754
 -22273913.23748 -17239198.17046  20421423.1414                   20421423.9964
 -13897554.72847 -10463142.64844  22894425.2814                   22894427.1604
 -20884390.43748 -16222921.92846  20909705.4774                   20909703.4494
 11  8  9  0 17 30.0000000  0  9G28G12G10G17G05G09G04G27G02
  -5726312.24246  -4421693.59343  23620459.3054                   23620461.4774
 -10629710.067 7  -8264536.659 7  22759493.789
 -16051217.76947 -12461449.08145  21476275.8444                   21476277.2624
 -12080319.088 7  -9367454.440 7  22276861.422
  -4232904.605 6  -3255997.030 6  23917320.305
  -8801832.28447  -6163614.32644  22501038.2274                   22501038.9694
 -22222897.41448 -17199445.58546  20431131.3914                   20431131.7384
 -13851939.63947 -10427598.48744  22903105.4144                   22903107.0394
 -20918897.27148 -16249810.36046  20903138.6804                   20903136.8284
 11  8  9  0 18  0.0000000  0  9G28G12G10G17G05G09G04G27G02
  -5632301.59946  -4348438.65643  23638349.0394                   23638351.2624
 -10718209.196 7  -8333496.954 7  22742653.070
 -16109575.94947 -12506922.96145  21465171.1564                   21465172.4064
 -12038355.240 7  -9334755.357 7  22284847.031
  -4339025.669 6  -3338688.498 6  23897126.578
  -8752104.06547  -6124865.09644  22510501.6024                   22510501.9024
 -22171511.80648 -17159404.85246  20440909.7814                   20440909.9924
 -13806005.34547 -10391805.57744  22911846.6724                   22911848.8714
 -20953038.23848 -16276413.69346  20896642.0394                   20896640.0314
 11  8  9  0 18 30.0000000  0  9G28G12G10G17G05G09G04G27G02
  -5538033.19546  -4274982.89243  23656287.0314                   23656289.1994
 -10806507.931 7  -8402301.122 7  22725850.336
 -16167461.59847 -12552028.62345  21454156.0314                   21454157.4844
 -11996284.143 7  -9301972.699 7  22292853.125
  -4445133.001 6  -3421369.342 6  23876934.484
  -8701905.61447  -6085749.44944  22520053.6094                   22520054.0634
 -22119758.95748 -17119077.96246  20450757.7424                   20450758.2304
 -13759754.15247 -10355765.72544  22920648.3674                   22920649.3014
 -20986813.58148 -16302732.12846  20890214.4224                   20890212.5474
 11  8  9  0 19  0.0000000  0  9G28G12G10G17G05G09G04G27G02
  -5443509.71046  -4201328.34043  23674274.5784                   23674277.5744
 -10894604.688 7  -8470947.912 7  22709085.945
 -16224873.07147 -12596764.80545  21443230.6804                   21443231.7504
 -11954106.180 7  -9269106.772 7  22300878.836
  -4551224.362 6  -3504037.702 6  23856745.313
  -8651240.53246  -6046270.20544  22529694.7194                   22529695.7544
 -22067641.97248 -17078467.33046  20460675.4384                   20460676.1524
 -13713189.21447 -10319481.43144  22929509.6414                   22929511.4024
 -21020224.40748 -16328766.52146  20883856.6804                   20883854.9614
 11  8  9  0 19 30.0000000  0  9G28G12G10G17G05G09G04G27G02
  -5348731.19547  -4127475.11743  23692310.5474                   23692312.9844
 -10982495.438 7  -8539434.155 7  22692361.289
 -16281806.20647 -12641128.23945  21432396.8134                   21432397.7344
 -11911819.997 7  -9236156.542 7  22308925.930
  -4657295.679 6  -3586690.429 6  23836561.484
  -8600110.45547  -6006428.63044  22539424.4614                   22539424.9104
 -22015161.80248 -17037573.69346  20470661.8984                   20470662.4774
 -13666311.54947 -10282953.41244  22938430.0634                   22938431.3914
 -21053269.76148 -16354516.13646  20877568.3284                   20877566.4264
 11  8  9  0 20  0.0000000  0  9G28G12G10G17G05G09G04G27G02
  -5253700.61246  -4053425.43143  23710394.0474                   23710396.7854
 -11070179.151 7  -8607759.096 7  22675675.352
 -16338259.12847 -12685117.49545  21421654.4384                   21421654.6804
 -11869425.781 7  -9203122.094 7  22316993.523
  -4763344.868 7  -3669325.974 6  23816380.398
  -8548519.08347  -5966227.58944  22549241.7814                   22549243.0744
 -21962322.00148 -16996399.81746  20480717.0234                   20480717.7114
 -13619124.58847 -10246184.40944  22947408.8834                   22947410.5554
 -21085950.85748 -16379981.89846  20871349.4534                   20871348.0474
 11  8  9  0 20 30.0000000  0  9G28G12G10G17G05G09G04G27G02
  -5158418.71646  -3979179.92843  23728526.2424                   23728529.0354
 -11157652.488 7  -8675920.103 7  22659030.195
 -16394228.29048 -12728729.79645  21411003.3754                   21411004.3984
 -11826922.215 7  -9170002.456 7  22325081.453
  -4869368.682 7  -3751941.735 6  23796204.602
  -8496468.34747  -5925668.62645  22559147.6334                   22559147.8834
 -21909123.71548 -16954946.62846  20490840.1024                   20490840.4734
 -13571630.00647 -10209175.66544  22956446.8284                   22956449.2584
 -21118267.10248 -16405163.37046  20865199.7814                   20865198.0124
 11  8  9  0 21  0.0000000  0  9G28G12G10G17G05G09G04G27G02
  -5062888.09446  -3904740.60643  23746704.7424                   23746708.0704
 -11244912.963 7  -8743915.245 7  22642424.516
 -16449711.76048 -12771963.63045  21400445.3204                   21400445.9804
 -11784309.335 7  -9136797.633 7  22333190.031
  -4975364.318 7  -3834535.552 6  23776033.484
  -8443961.97847  -5884754.60544  22569138.7424                   22569139.5474
 -21855569.81748 -16913216.32146  20501031.6954                   20501031.7344
 -13523830.50047 -10171929.36144  22965543.5394                   22965544.8164
 -21150219.19148 -16430061.07146  20859119.3914                   20859117.7154
 11  8  9  0 21 30.0000000  0  9G28G12G10G17G05G09G04G27G02
  -4967109.89346  -3830108.44043  23764932.0314                   23764934.1094
 -11331957.787 7  -8811742.338 7  22625860.219
 -16504706.66447 -12814816.76145  21389980.2344                   21389980.8054
 -11741586.150 7  -9103506.862 7  22341320.578
  -5081329.035 7  -3917105.300 6  23755869.836
  -8391002.22347  -5843487.29644  22579216.9224                   22579217.9414
 -21801662.24548 -16871210.42646  20511289.8134                   20511290.1134
 -13475728.32347 -10134447.17444  22974696.4924                   22974698.2934
 -21181806.89148 -16454674.83646  20853108.2344                   20853106.8984
 11  8  9  0 22  0.0000000  0  9G28G12G10G17G05G09G04G27G02
  -4871086.68846  -3755285.28743  23783203.7274                   23783205.7304
 -11418784.872 7  -8879399.772 7  22609337.414
 -16559210.71648 -12857287.40845  21379608.1334                   21379608.8834
 -11698752.620 7  -9070130.111 7  22349471.516
  -5187260.122 7  -3999648.823 6  23735711.461
  -8337592.78747  -5801869.61745  22589380.1884                   22589381.3754
 -21747403.98348 -16828931.26546  20521614.7894                   20521615.0354
 -13427326.31947 -10096731.39544  22983907.4224                   22983908.6334
 -21213031.44248 -16479005.63546  20847166.6094                   20847165.0594
 11  8  9  0 22 30.0000000  0  9G28G12G10G17G05G09G04G27G02
  -4774819.88746  -3680272.33943  23801523.6804                   23801525.1994
 -11505391.665 7  -8946885.546 7  22592856.953
 -16613221.35748 -12899373.58345  21369330.0784                   21369331.2154
 -11655808.498 7  -9036667.168 7  22357643.617
  -5293155.094 7  -4082164.237 6  23715561.031
  -8283736.41947  -5759903.67044  22599629.3444                   22599630.0784
 -21692797.36348 -16786380.65546  20532005.8914                   20532006.9344
 -13378627.04347 -10058783.92844  22993174.2274                   22993175.6804
 -21243893.16748 -16503053.71346  20841294.0784                   20841292.2114
 11  8  9  0 23  0.0000000  0  9G28G12G10G17G05G09G04G27G02
  -4678311.35146  -3605071.04643  23819888.1884                   23819890.8914
 -11591775.662 7  -9014197.719 7  22576418.438
 -16666735.75148 -12941073.06745  21359146.4304                   21359148.0394
 -11612752.818 8  -9003117.311 7  22365836.844
  -5399010.723 7  -4164648.981 6  23695416.602
  -8229435.56847  -5717591.36545  22609962.3914                   22609963.0904
 -21637844.35548 -16743560.14046  20542463.0004                   20542464.1054
 -13329632.52747 -10020606.42044  23002497.1804                   23002498.8484
 -21274391.86548 -16526818.90446  20835490.4454                   20835488.7194
 11  8  9  0 23 30.0000000  0  9G28G12G10G17G05G09G04G27G02
  -4581563.06646  -3529682.94743  23838299.1484                   23838301.4494
 -11677934.357 7  -9081334.317 7  22560023.234
 -16719751.33448 -12982383.87445  21349058.1094                   21349058.9304
 -11569585.436 8  -8969480.418 7  22374050.898
  -5504824.258 7  -4247100.931 6  23675281.672
  -8174693.83447  -5674935.50445  22620378.9064                   22620380.3794
 -21582547.73248 -16700471.86846  20552985.7974                   20552986.3014
 -13280345.28447  -9982200.84744  23011876.4304                   23011879.2894
 -21304528.28148 -16550301.80446  20829755.2274                   20829753.6844
 11  8  9  0 24  0.0000000  0  9G28G12G10G17G05G09G04G27G02
  -4484576.43646  -3454109.05343  23856753.9924                   23856757.4614
 -11763865.023 7  -9148293.262 6  22543670.906
 -16772265.37648 -13023303.86745  21339064.8524                   21339066.2704
 -11526305.448 7  -8935755.778 7  22382287.141
  -5610592.778 7  -4329517.769 6  23655153.195
  -8119514.03447  -5631938.30245  22630879.1334                   22630880.7424
 -21526909.25448 -16657117.21646  20563573.5234                   20563573.8284
 -13230767.89747  -9943569.16144  23021311.2274                   23021313.2304
 -21334302.84048 -16573502.73546  20824089.5784                   20824087.3954
 11  8  9  0 24 30.0000000  0  9G28G12G10G17G05G09G04G27G02
  -4387354.04547  -3378351.52643  23875255.8834                   23875257.8244
 -11849565.505 7  -9215072.860 6  22527362.547
 -16824275.93748 -13063831.54345  21329167.9064                   21329168.6374
 -11482913.089 7  -8901943.578 7  22390544.609
  -5716313.738 7  -4411897.585 6  23635035.500
  -8063899.42147  -5588602.31045  22641462.7274                   22641463.9224
 -21470932.12248 -16613498.67446  20574225.7584                   20574226.1254
 -13180903.14247  -9904713.55244  23030799.9614                   23030802.3244
 -21363716.22748 -16596422.22346  20818492.2034                   20818490.3524
 11  8  9  0 25  0.0000000  0  9G28G12G10G17G05G09G04G27G02
  -4289895.71746  -3302410.10643  23893801.7274                   23893804.3674
 -11935031.458 7  -9281669.675 6  22511099.102
 -16875778.40548 -13103963.28445  21319367.1254                   21319367.7974
 -11439405.561 7  -8868041.649 7  22398823.664
  -5821982.349 7  -4494236.615 6  23614926.852
  -8007851.16347  -5544928.36444  22652128.3364                   22652129.4964
 -21414616.41548 -16569616.30246  20584942.1484                   20584942.3754
 -13130751.44347  -9865634.38444  23040344.1254                   23040345.7704
 -21392766.50448 -16619058.78446  20812964.1564                   20812961.9804
 11  8  9  0 25 30.0000000  0  9G28G12G10G17G05G09G04G27G02
  -4192205.54746  -3226288.04143  23912391.3984                   23912394.7894
 -12020262.561 7  -9348083.503 6  22494880.375
 -16926772.92748 -13143699.23745  21309663.2114                   21309663.9574
 -11395784.648 7  -8834051.340 7  22407124.547
  -5927597.909 7  -4576534.246 6  23594828.727
  -7951374.43747  -5500920.60245  22662875.5164                   22662877.3244
 -21357967.09248 -16525473.98146  20595722.2974                   20595722.5044
 -13080317.88247  -9826335.53244  23049941.1174                   23049942.3484
 -21421456.64948 -16641414.72046  20807504.6804                   20807502.8984
 11  8  9  0 26  0.0000000  0  9G28G12G10G17G05G09G04G27G02
  -4094285.41246  -3149986.77943  23931025.1334                   23931028.0744
 -12105256.156 7  -9414312.254 6  22478706.102
 -16977256.72648 -13183037.20946  21300056.5634                   21300057.5664
 -11352050.068 7  -8799972.471 7  22415447.086
  -6033157.504 7  -4658788.298 6  23574741.406
  -7894472.15947  -5456581.19845  22673703.5554                   22673705.0664
 -21300986.40548 -16481073.44446  20606564.8754                   20606565.3984
 -13029604.87547  -9786818.95244  23059591.1804                   23059593.0634
 -21449787.13948 -16663490.41046  20802113.3284                   20802111.2704
 11  8  9  0 26 30.0000000  0  9G28G12G10G17G05G09G04G27G02
  -3996135.79246  -3073506.69543  23949702.6094                   23949705.7624
 -12190008.326 7  -9480352.862 7  22462578.828
 -17027226.23948 -13221974.44846  21290547.7274                   21290548.5664
 -11308199.905 7  -8765803.533 7  22423791.188
  -6138657.296 7  -4740995.759 6  23554666.305
  -7837146.35747  -5411911.77845  22684612.6954                   22684613.6684
 -21243675.38048 -16436415.51046  20617470.6024                   20617471.8444
 -12978613.36247  -9747085.35044  23069294.5704                   23069296.5824
 -21477756.92848 -16685285.02346  20796791.2274                   20796788.9884
 11  8  9  0 27  0.0000000  0  9G28G12G10G17G05G09G04G27G02
  -3897759.09646  -2996849.64143  23968422.9064                   23968425.6684
 -12274517.035 7  -9546203.764 7  22446496.695
 -17076679.67948 -13260509.55246  21281136.2664                   21281137.6684
 -11264234.001 7  -8731544.410 7  22432156.977
  -6244094.702 7  -4823154.604 6  23534600.906
  -7779400.23747  -5366914.86145  22695601.0394                   22695603.0164
 -21186036.63948 -16391502.20946  20628439.0314                   20628439.9884
 -12927346.58447  -9707137.27144  23079051.2664                   23079052.6644
 -21505366.92048 -16706799.29546  20791536.8984                   20791535.3094
 11  8  9  0 27 30.0000000  0  9G28G12G10G17G05G09G04G27G02
  -3799157.29246  -2920017.22343  23987187.0634                   23987189.1884
 -12358780.064 7  -9611863.257 7  22430462.047
 -17125614.49048 -13298640.53046  21271824.4534                   21271825.7274
 -11220152.137 7  -8697194.930 7  22440546.492
  -6349467.026 7  -4905262.715 6  23514549.539
  -7721237.37647  -5321593.21845  22706669.3914                   22706671.7774
 -21128072.71748 -16346335.53046  20639469.5634                   20639470.0904
 -12875807.16647  -9666976.76844  23088857.8674                   23088860.4964
 -21532617.96448 -16728033.85846  20786350.9224                   20786349.4804
 11  8  9  0 28  0.0000000  0  9G28G12G10G17G05G09G04G27G02
  -3700332.93846  -2843011.37243  24005991.3364                   24005995.3014
 -12442795.145 7  -9677329.542 6  22414474.563
 -17174028.71947 -13336365.85246  21262611.7504                   21262612.5314
 -11175954.422 7  -8662755.179 7  22448956.570
  -6454771.824 7  -4987318.216 6  23494511.031
  -7662661.18047  -5275949.43944  22717816.2114                   22717817.3834
 -21069786.54748 -16300917.74246  20650561.3134                   20650561.6214
 -12823998.10847  -9626606.12444  23098717.2274                   23098718.9224
 -21559510.77348 -16748989.28346  20781233.7734                   20781231.4804
 11  8  9  0 28 30.0000000  0  9G28G12G10G17G05G09G04G27G02
  -3601286.32146  -2765832.36243  24024840.5944                   24024843.8984
 -12526558.359 7  -9742599.558 6  22398534.852
 -17221918.40848 -13373682.44545  21253498.4304                   21253499.5594
 -11131638.514 7  -8628223.322 7  22457390.172
  -6560004.625 7  -5069317.634 6  23474485.336
  -7603673.28647  -5229984.87744  22729040.9144                   22729043.1374
 -21011179.14448 -16255249.63546  20661713.1484                   20661714.4184
 -12771920.43247  -9586026.18244  23108627.7344                   23108629.3914
 -21586044.47648 -16769664.88246  20776184.6024                   20776182.6644
 11  8  9  0 29  0.0000000  0  9G28G12G10G17G05G09G04G27G02
  -3502020.89146  -2688482.81042  24043731.0004                   24043733.1374
 -12610068.394 7  -9807672.265 7  22382643.484
 -17269282.78548 -13410589.71845  21244485.8524                   21244485.9694
 -11087205.371 7  -8593600.127 7  22465845.117
  -6665164.107 7  -5151259.927 6  23454474.117
  -7544278.34147  -5183703.13745  22740343.8594                   22740345.5204
 -20952254.10448 -16209334.03846  20672926.8444                   20672927.4144
 -12719578.21847  -9545240.07444  23118588.1094                   23118589.5164
 -21612221.17448 -16790062.29046  20771203.1804                   20771200.9804
 11  8  9  0 29 30.0000000  0  9G28G12G10G17G05G09G04G27G02
  -3402537.66646  -2610963.53043  24062660.7034                   24062663.7894
 -12693321.996 7  -9872545.217 7  22366801.008
 -17316118.79148 -13447085.25946  21235573.0234                   21235573.5744
 -11042653.622 7  -8558884.497 7  22474322.930
  -6770246.494 7  -5233142.167 6  23434476.953
  -7484478.50847  -5137105.87745  22751723.2194                   22751725.1914
 -20893013.02948 -16163172.16846  20684199.7894                   20684200.3554
 -12666973.27647  -9504249.27244  23128598.1484                   23128600.3794
 -21638040.05448 -16810180.89246  20766290.0164                   20766287.8164
 11  8  9  0 30  0.0000000  0  9G28G12G10G17G05G09G04G27G02
  -3302838.98846  -2533276.41842  24081633.0554                   24081636.6174
 -12776317.189 7  -9937216.752 7  22351007.852
 -17362424.52548 -13483167.61346  21226761.1174                   21226762.2424
 -10997983.161 7  -8524076.384 7  22482823.570
  -6875249.222 7  -5314962.314 6  23414496.227
  -7424277.27047  -5090195.86445  22763178.6484                   22763181.2704
 -20833458.78448 -16116766.27646  20695532.7194                   20695533.3164
 -12614108.60847  -9463056.07444  23138658.0784                   23138660.0824
 -21663502.31148 -16830021.59646  20761444.6884                   20761442.5824
 11  8  9  0 30 30.0000000  0  9G28G12G10G17G05G09G04G27G02
  -3202927.38246  -2455423.39043  24100646.7344                   24100649.8954
 -12859051.403 7 -10001684.961 7  22335263.266
 -17408198.15648 -13518835.33345  21218050.6174                   21218051.6844
 -10953193.836 7  -8489175.621 7  22491347.094
  -6980169.471 7  -5396718.241 6  23394530.445
  -7363678.30447  -5042975.92144  22774710.3754                   22774712.6454
 -20773594.01648 -16070118.40946  20706924.5634                   20706925.6254
 -12560987.11047  -9421662.76444  23148767.0474                   23148768.6484
 -21688608.90248 -16849585.15046  20756667.1564                   20756665.0164
 11  8  9  0 31  0.0000000  0  9G28G12G10G17G05G09G04G27G02
  -3102803.87446  -2377405.19943  24119698.4774                   24119702.8244
 -12941521.563 7 -10065947.408 7  22319570.344
 -17453436.58348 -13554086.03346  21209442.4144                   21209443.2424
 -10908284.592 7  -8454181.447 7  22499893.102
  -7085004.103 7  -5478407.428 6  23374580.211
  -7302683.72347  -4995447.70244  22786317.9694                   22786319.5864
 -20713420.28348 -16023229.80346  20718375.3054                   20718376.0474
 -12507610.44547  -9380070.59644  23158923.7114                   23158926.0904
 -21713359.33548 -16868871.18146  20751957.0554                   20751955.2234
 11  8  9  0 31 30.0000000  0  9G28G12G10G17G05G09G04G27G02
  -3002469.49546  -2299222.72343  24138792.2584                   24138795.9024
 -13023724.337 7 -10130001.463 7  22303927.844
 -17498136.91948 -13588917.43145  21200936.0234                   21200936.6524
 -10863253.868 7  -8419092.560 7  22508462.148
  -7189749.672 7  -5560027.237 6  23354648.336
  -7241296.17547  -4947613.28745  22797998.9774                   22798000.7774
 -20652939.40948 -15976101.86946  20729884.4454                   20729885.3364
 -12453980.49347  -9338281.08944  23169129.3914                   23169131.5944
 -21737753.62448 -16887879.70146  20747315.1414                   20747313.6604
 11  8  9  0 32  0.0000000  0  9G28G12G10G17G05G09G04G27G02
  -2901928.60946  -2220879.26643  24157923.9774                   24157928.0704
 -13105659.343 7 -10193846.899 7  22288335.758
 -17542299.12348 -13623329.51245  21192532.3834                   21192532.3674
 -10818103.496 7  -8383910.489 7  22517053.648
  -7294404.705 7  -5641576.509 6  23334732.617
  -7179521.14447  -4899476.94244  22809754.5704                   22809755.7734
 -20592155.66048 -15928737.92346  20741451.4774                   20741452.0904
 -12400102.13147  -9296298.02444  23179382.5704                   23179384.6954
 -21761794.53748 -16906612.86846  20742739.7194                   20742738.1914
 11  8  9  0 32 30.0000000  0  9G28G12G10G17G05G09G04G27G02
  -2801182.01146  -2142375.58843  24177095.7194                   24177099.4614
 -13187322.270 7 -10257480.329 7  22272796.156
 -17585919.30748 -13657319.23745  21184231.5004                   21184232.4884
 -10772831.654 7  -8348633.740 7  22525668.484
  -7398965.335 7  -5723052.235 6  23314835.680
  -7117360.42947  -4851040.05044  22821583.3054                   22821585.2894
 -20531070.23648 -15881138.91046  20753075.1954                   20753075.9264
 -12345976.67447  -9254122.39944  23189681.9534                   23189684.4964
 -21785481.32448 -16925070.08546  20738232.9454                   20738230.9694
 11  8  9  0 33  0.0000000  0  9G28G12G10G17G05G09G04G27G02
  -2700231.59246  -2063713.06943  24196305.8674                   24196309.9964
 -13268710.815 7 -10320899.958 7  22257308.023
 -17628994.99948 -13690884.68246  21176034.3524                   21176034.8524
 -10727437.040 7  -8313261.354 7  22534307.156
  -7503428.219 7  -5804451.783 6  23294956.641
  -7054816.57047  -4802304.60344  22833484.8834                   22833487.1214
 -20469685.13148 -15833306.37446  20764756.8914                   20764757.6484
 -12291606.39847  -9211755.99544  23200028.3524                   23200030.2894
 -21808813.92848 -16943251.32746  20733792.8364                   20733790.3834
 11  8  9  0 33 30.0000000  0  9G28G12G10G17G05G09G04G27G02
  -2599079.46046  -1984893.38543  24215555.4694                   24215557.5514
 -13349822.833 7 -10384104.086 7  22241873.125
 -17671525.08948 -13724024.98445  21167940.9774                   21167941.8754
 -10681919.821 7  -8277793.395 7  22542968.750
  -7607791.059 7  -5885773.374 6  23275097.133
  -6991893.61047  -4753273.76744  22845459.0944                   22845460.8324
 -20408003.14548 -15785242.50646  20776493.9384                   20776495.1174
 -12236994.57247  -9169201.36244  23210420.9304                   23210422.8594
 -21831793.73348 -16961157.65046  20729419.7194                   20729417.5004
 11  8  9  0 34  0.0000000  0  9G28G12G10G17G05G09G04G27G02
  -2497727.07146  -1905917.68143  24234841.9224                   24234845.3324
 -13430655.059 7 -10447090.217 7  22226491.383
 -17713506.46948 -13756737.71545  21159951.7664                   21159952.4144
 -10636279.224 7  -8242229.309 7  22551653.336
  -7712050.558 7  -5967014.431 6  23255256.594
  -6928594.23846  -4703949.63344  22857504.4694                   22857506.6564
 -20346026.35948 -15736948.91946  20788287.7974                   20788288.6884
 -12182143.26347  -9126460.13444  23220858.2584                   23220861.1764
 -21854420.87848 -16978789.17946  20725114.1094                   20725111.7734
 11  8  9  0 34 30.0000000  0  9G28G12G10G17G05G09G04G27G02
  -2396177.32746  -1826788.19243  24254166.2034                   24254169.3834
 -13511205.940 7 -10509857.097 7  22211162.867
 -17754937.94448 -13789021.94146  21152067.7974                   21152068.5164
 -10590515.474 7  -8206569.251 7  22560362.234
  -7816204.306 7  -6048173.106 6  23235437.344
  -6864922.40547  -4654335.28044  22869620.5314                   22869622.3204
 -20283757.76548 -15688427.95646  20800137.3284                   20800138.0904
 -12127055.88947  -9083534.96844  23231340.9924                   23231344.0704
 -21876696.62548 -16996146.88446  20720875.1254                   20720873.2814
 11  8  9  0 35  0.0000000  0  9G28G12G10G17G05G09G04G27G02
  -2294431.61546  -1747506.00743  24273528.5474                   24273531.3794
 -13591471.895 7 -10572401.969 7  22195888.641
 -17795816.96548 -13820875.68746  21144288.7814                   21144289.5554
 -10544627.298 7  -8170812.244 7  22569094.906
  -7920248.754 7  -6129246.587 6  23215637.781
  -6800880.90147  -4604432.86444  22881807.8204                   22881809.2934
 -20221199.12048 -15639680.97146  20812042.0084                   20812042.7034
 -12071734.40147  -9040427.38044  23241869.2664                   23241871.2424
 -21898620.87348 -17013230.70446  20716703.1334                   20716700.9494
 11  8  9  0 35 30.0000000  0  9G28G12G10G17G05G09G04G27G02
  -2192492.59345  -1668073.21742  24292925.7344                   24292930.7544
 -13671451.376 8 -10634723.606 7  22180668.961
 -17836142.20548 -13852297.91246  21136614.9774                   21136616.1604
 -10498614.811 7  -8134958.364 7  22577850.625
  -8024181.603 7  -6210233.118 7  23195860.438
  -6736473.52647  -4554245.33044  22894063.5944                   22894066.4454
 -20158353.46748 -15590710.34346  20824001.1024                   20824001.7664
 -12016182.03647  -8997139.86744  23252439.8674                   23252442.1414
 -21920195.18748 -17030041.84346  20712597.4144                   20712595.4494
 11  8  9  0 36  0.0000000  0  9G28G12G10G17G05G09G04G27G02
  -2090361.11245  -1588490.36342  24312361.1954                   24312366.3244
 -13751140.526 7 -10696819.025 7  22165504.391
 -17875910.22348 -13883285.93946  21129047.5394                   21129048.2544
 -10452476.303 7  -8099006.308 6  22586630.602
  -8127998.812 7  -6291129.522 6  23176104.406
  -6671702.38946  -4503774.37544  22906389.1644                   22906391.2934
 -20095221.89348 -15541516.92246  20836014.5944                   20836015.3594
 -11960400.41147  -8953673.73044  23263055.0864                   23263057.2774
 -21941418.90948 -17046579.80646  20708558.9064                   20708556.7774
 11  8  9  0 36 30.0000000  0  8G12G10G17G05G09G04G27G02
 -13830529.913 7 -10758680.853 7  22150397.609
 -17915112.42348 -13913833.08046  21121587.7814                   21121588.5634
 -10406204.497 7  -8062950.368 7  22595435.367
  -8231690.745 7  -6371928.321 7  23156372.586
  -6606563.87047  -4453017.14744  22918785.2114                   22918786.9024
 -20031799.88048 -15492097.18446  20848083.5314                   20848084.2504
 -11904385.25847  -8910025.61044  23273714.8054                   23273716.6844
 -21962285.88148 -17062839.75946  20704587.6174                   20704585.6564
 11  8  9  0 37  0.0000000  0  8G12G10G17G05G09G04G27G02
 -13909632.150 8 -10820318.934 7  22135344.711
 -17953761.85248 -13943949.47346  21114233.0164                   21114233.6804
 -10359813.758 7  -8026801.738 6  22604263.508
  -8335269.530 7  -6452638.941 7  23136661.781
  -6541076.72647  -4401988.26944  22931247.3524                   22931248.8674
 -19968105.41948 -15442465.14946  20860204.1954                   20860204.4024
 -11848154.75847  -8866209.67944  23284414.5234                   23284416.8054
 -21982812.02348 -17078834.14346  20700682.2664                   20700679.9964
 11  8  9  0 37 30.0000000  0  8G12G10G17G05G09G04G27G02
 -13988437.269 7 -10881725.483 7  22120348.188
 -17991848.90948 -13973627.67446  21106985.4304                   21106986.1914
 -10313296.165 7  -7990554.265 7  22613115.328
  -8438724.713 7  -6533253.252 6  23116975.367
  -6475236.51546  -4350684.21544  22943775.7584                   22943777.5824
 -19904132.86748 -15392616.41146  20872377.4844                   20872377.9304
 -11791703.60047  -8822221.81644  23295157.4534                   23295159.3204
 -22002990.29248 -17094557.46646  20696841.7424                   20696839.7154
 11  8  9  0 38  0.0000000  0  8G12G10G17G05G09G04G27G02
 -14066942.376 7 -10942898.269 7  22105409.531
 -18029371.67448 -14002866.16046  21099844.8524                   21099845.1374
 -10266651.102 7  -7954207.464 6  22621991.586
  -8542053.273 7  -6613768.887 7  23097312.156
  -6409046.42546  -4299107.59144  22956371.2664                   22956373.0394
 -19839884.46748 -15342552.74546  20884603.9064                   20884604.6134
 -11735034.64547  -8778064.25344  23305941.1954                   23305943.5084
 -22022821.28448 -17110010.17346  20693068.3524                   20693066.0474
 11  8  9  0 38 30.0000000  0  8G12G10G17G05G09G04G27G02
 -14145144.199 7 -11003834.746 7  22090528.102
 -18066327.69848 -14031663.03546  21092812.3524                   21092812.7154
 -10219877.460 7  -7917760.509 6  22630892.328
  -8645251.424 7  -6694182.934 6  23077674.305
  -6342508.90847  -4247260.21844  22969032.9844                   22969035.3594
 -19775362.01348 -15292275.51946  20896882.0234                   20896882.8364
 -11678150.08347  -8733738.68844  23316765.8054                   23316767.6914
 -22042304.99648 -17125192.28146  20689360.9534                   20689358.4224
 11  8  9  0 39  0.0000000  0  8G12G10G17G05G09G04G27G02
 -14223041.581 8 -11064533.964 7  22075704.805
 -18102715.97748 -14060017.51646  21085887.8284                   21085888.5944
 -10172975.673 7  -7881213.666 7  22639816.992
  -8748317.622 7  -6774494.142 6  23058060.914
  -6275628.31747  -4195145.53944  22981760.5004                   22981761.8324
 -19710569.02648 -15241787.48746  20909211.6644                   20909212.4964
 -11621053.34346  -8689247.78044  23327630.7274                   23327633.6134
 -22061443.17748 -17140105.13046  20685718.8754                   20685716.7584
 11  8  9  0 39 30.0000000  0  8G12G10G17G05G09G04G27G02
 -14300630.482 8 -11124992.841 7  22060940.227
 -18138532.97048 -14087926.82346  21079072.1644                   21079072.7854
 -10125943.631 7  -7844565.358 7  22648767.969
  -8851247.321 7  -6854699.001 7  23038474.156
  -6208406.52947  -4142764.97044  22994551.8594                   22994553.5824
 -19645506.26248 -15191089.22846  20921592.4694                   20921593.0004
 -11563745.71447  -8644592.54744  23338537.0084                   23338538.2234
 -22080235.22948 -17154748.28246  20682143.0944                   20682140.4734
 11  8  9  0 40  0.0000000  0  8G12G10G17G05G09G04G27G02
 -14377909.751 8 -11185210.437 7  22046234.414
 -18173778.71448 -14115391.02046  21072364.9064                   21072365.8244
 -10078782.287 7  -7807816.274 7  22657741.992
  -8954039.009 7  -6934796.302 6  23018914.305
  -6140848.64447  -4090122.50244  23007407.6954                   23007409.7774
 -19580177.50048 -15140183.70346  20934024.6564                   20934025.1094
 -11506231.60546  -8599776.46344  23349480.5004                   23349483.1174
 -22098683.54948 -17169123.58046  20678632.5394                   20678630.2624
 11  8  9  0 40 30.0000000  0  8G12G10G17G05G09G04G27G02
 -14454876.464 8 -11245184.483 7  22031588.391
 -18208451.12548 -14142408.45246  21065766.7974                   21065767.8014
 -10031491.224 7  -7770966.122 7  22666740.867
  -9056689.465 7  -7014783.579 6  22999379.305
  -6072957.80147  -4037220.61544  23020327.1804                   23020329.4574
 -19514585.08848 -15089072.73846  20946505.7584                   20946506.9774
 -11448513.34647  -8554801.21944  23360464.4384                   23360466.5704
 -22116788.37148 -17183231.21746  20675186.9924                   20675184.7344
 11  8  9  0 41  0.0000000  0  8G12G10G17G05G09G04G27G02
 -14531526.825 8 -11304912.026 7  22017001.875
 -18242546.81748 -14168976.49446  21059278.8284                   21059279.7854
  -9984068.385 7  -7734013.286 7  22675765.648
  -9159194.631 7  -7094657.624 7  22979873.992
  -6004735.93946  -3984060.78444  23033309.9224                   23033311.5164
 -19448729.86448 -15037756.98646  20959038.2274                   20959038.5944
 -11390592.37846  -8509668.06843  23371486.0004                   23371487.9064
 -22134549.18548 -17197070.80646  20671807.3524                   20671805.5434
 11  8  9  0 41 30.0000000  0  8G12G10G17G05G09G04G27G02
 -14607859.602 8 -11364392.082 7  22002475.898
 -18276065.83248 -14195095.19146  21052900.5004                   21052901.1804
  -9936514.488 7  -7696958.305 7  22684814.992
  -9261552.634 7  -7174417.012 6  22960395.453
  -5936187.35947  -3930646.35544  23046353.7274                   23046356.0514
 -19382615.57448 -14986239.36646  20971619.1254                   20971619.5274
 -11332472.92546  -8464380.25143  23382545.7734                   23382548.2704
 -22151967.93448 -17210643.83946  20668492.7114                   20668490.6884
 11  8  9  0 42  0.0000000  0  8G12G10G17G05G09G04G27G02
 -14683871.248 8 -11423621.906 7  21988011.727
 -18309004.96248 -14220762.01946  21046632.0864                   21046632.9964
  -9888827.922 7  -7659799.972 7  22693889.250
  -9363759.559 7  -7254058.650 7  22940946.461
  -5867314.74747  -3876979.47844  23059459.3674                   23059462.6914
 -19316243.49648 -14934520.86546  20984249.3364                   20984250.0824
 -11274156.34547  -8418938.83844  23393643.0164                   23393645.6484
 -22169044.57548 -17223950.30046  20665243.1414                   20665241.1844
 11  8  9  0 42 30.0000000  0  8G12G10G17G05G09G04G27G02
 -14759560.069 7 -11482600.194 7  21973608.164
 -18341363.33948 -14245976.32346  21040474.8134                   21040475.3834
  -9841008.875 7  -7622538.387 7  22702988.484
  -9465813.443 7  -7333581.062 7  22921525.727
  -5798122.04547  -3823063.11544  23072626.6334                   23072629.0984
 -19249616.67948 -14882603.88246  20996928.0864                   20996928.8874
 -11215646.23746  -8373346.61143  23404777.4224                   23404779.4224
 -22185780.34448 -17236991.14246  20662058.3364                   20662056.4304
 11  8  9  0 43  0.0000000  0  8G12G10G17G05G09G04G27G02
 -14834923.105 8 -11541324.611 7  21959267.539
 -18373139.26948 -14270736.75946  21034428.0394                   21034428.3794
  -9793056.887 7  -7585173.228 7  22712114.195
  -9567710.688 7  -7412981.389 7  22902135.156
  -5728612.58547  -3768899.94144  23085854.1724                   23085855.7504
 -19182737.20148 -14830490.02446  21009654.8364                   21009655.6914
 -11156945.13446  -8327605.54944  23415948.1024                   23415950.0664
 -22202175.99348 -17249766.96646  20658937.8984                   20658936.2464
 11  8  9  0 43 30.0000000  0  8G12G10G17G05G09G04G27G02
 -14909957.748 8 -11599793.173 7  21944988.719
 -18404330.88748 -14295041.88946  21028492.5164                   21028492.9884
  -9744970.968 7  -7547703.701 7  22721264.602
  -9669448.352 7  -7492257.391 7  22882774.828
  -5658789.30246  -3714492.26544  23099141.3364                   23099144.1134
 -19115607.15148 -14778180.90146  21022429.2424                   21022430.2074
 -11098055.55747  -8281717.61344  23427154.0704                   23427157.2704
 -22218232.03848 -17262278.16046  20655882.5234                   20655881.3794
 11  8  9  0 44  0.0000000  0  8G12G10G17G05G09G04G27G02
 -14984661.705 8 -11658004.039 7  21930773.289
 -18434936.64848 -14318890.50846  21022668.2274                   21022668.3634
  -9696750.691 7  -7510129.489 7  22730440.016
  -9771023.644 7  -7571406.828 6  22863446.313
  -5588656.19547  -3659843.16144  23112486.9304                   23112489.1644
 -19048229.08448 -14725678.54246  21035250.9224                   21035251.8284
 -11038980.69946  -8235685.34244  23438395.9224                   23438398.8404
 -22233949.73648 -17274525.68746  20652891.7344                   20652890.1094
 11  8  9  0 44 30.0000000  0  8G12G10G17G05G09G04G27G02
 -15059032.735 7 -11715955.487 7  21916620.430
 -18464955.24148 -14342281.58246  21016955.4694                   21016956.4884
  -9648396.162 7  -7472450.664 7  22739642.102
  -9872434.132 7  -7650427.901 7  22844148.133
  -5518216.91247  -3604955.45744  23125891.6414                   23125893.5314
 -18980605.81648 -14672985.09046  21048119.1484                   21048120.0044
 -10979723.62147  -8189511.06844  23449671.9694                   23449674.9414
 -22249330.14148 -17286510.40946  20649965.1804                   20649963.2664
 11  8  9  0 45  0.0000000  0  8G12G10G17G05G09G04G27G02
 -15133066.936 7 -11773644.450 7  21902532.344
 -18494384.27248 -14365213.26946  21011355.3834                   21011356.0124
  -9599905.347 7  -7434665.612 7  22748869.063
  -9973675.647 7  -7729317.263 7  22824882.180
  -5447473.40647  -3549830.70144  23139353.1954                   23139355.0354
 -18912738.41548 -14620101.41946  21061033.8054                   21061034.5514
 -10920285.73846  -8143195.92644  23460982.6174                   23460985.5314
 -22264372.74548 -17298231.91146  20647102.4534                   20647100.2074
 11  8  9  0 45 30.0000000  0  8G12G10G17G05G09G04G27G02
 -15206763.334 7 -11831070.202 7  21888508.180
 -18523223.35748 -14387685.25946  21005867.6174                   21005867.7344
  -9551279.431 7  -7396775.319 7  22758122.586
 -10074746.704 7  -7808073.828 7  22805649.250
  -5376430.78747  -3494472.84944  23152871.5944                   23152875.0634
 -18844630.55448 -14567030.37046  21073994.4774                   21073994.8444
 -10860671.24047  -8096743.14344  23472327.2734                   23472329.9264
 -22279079.91648 -17309692.03646  20644303.7194                   20644301.8014
 11  8  9  0 46  0.0000000  0  8G12G10G17G05G09G04G27G02
 -15280118.494 7 -11888230.049 7  21874549.344
 -18551469.67048 -14409695.35646  21000492.5554                   21000493.2624
  -9502516.399 7  -7358778.174 7  22767402.227
 -10175642.969 7  -7886694.194 7  22786449.680
  -5305090.98047  -3438883.44044  23166447.3914                   23166450.2584
 -18776283.42848 -14513772.88246  21087000.4844                   21087001.4454
 -10800881.58446  -8050153.88544  23483704.5084                   23483707.5744
 -22293451.02348 -17320890.28446  20641569.2194                   20641566.9454
 11  8  9  0 46 30.0000000  0  8G12G10G17G05G09G04G27G02
 -15353129.900 8 -11945122.036 7  21860655.945
 -18579121.88748 -14431242.50946  20995230.8364                   20995231.2304
  -9453616.192 7  -7320674.140 6  22776707.844
 -10276361.671 7  -7965176.228 7  22767283.266
  -5233457.87447  -3383065.48844  23180079.1414                   23180081.5354
 -18707699.37948 -14460330.79946  21100051.5784                   21100052.4144
 -10740919.92246  -8003430.58144  23495115.0314                   23495118.4574
 -22307487.35348 -17331827.68146  20638897.8834                   20638895.9574
 11  8  9  0 47  0.0000000  0  8G12G10G17G05G09G04G27G02
 -15425795.202 7 -12001744.346 7  21846828.125
 -18606179.10048 -14452326.03346  20990081.5864                   20990081.9924
  -9404578.464 7  -7282462.933 6  22786038.953
 -10376900.313 7  -8043517.924 7  22748151.023
  -5161535.20247  -3327021.86844  23193764.8984                   23193767.5784
 -18638881.40348 -14406706.40946  21113146.9924                   21113147.9534
 -10680789.28046  -7956575.64844  23506558.1724                   23506561.2304
 -22321189.90048 -17342504.97946  20636290.5314                   20636288.9304
 11  8  9  0 47 30.0000000  0  8G12G10G17G05G09G04G27G02
 -15498111.422 7 -12058094.637 7  21833066.430
 -18632639.43048 -14472944.47046  20985046.5554                   20985047.0904
  -9355402.339 7  -7244143.899 6  22795396.875
 -10477255.725 7  -8121716.875 7  22729053.883
  -5089325.73447  -3270754.80344  23207506.2194                   23207508.8364
 -18569831.07148 -14352900.96646  21126287.0554                   21126288.0664
 -10620492.17646  -7909590.98444  23518032.0314                   23518035.1804
 -22334559.61648 -17352922.93346  20633746.4614                   20633744.6294
 11  8  9  0 48  0.0000000  0  8G12G10G17G05G09G04G27G02
 -15570076.843 7 -12114171.576 7  21819371.758
 -18658501.69148 -14493096.85246  20980124.9384                   20980125.3954
  -9306087.803 7  -7205716.992 7  22804781.445
 -10577425.143 7  -8199770.891 7  22709992.406
  -5016833.26047  -3214267.19544  23221301.9694                   23221303.5004
 -18500551.08748 -14298916.57546  21139470.4694                   21139471.3914
 -10560031.68446  -7862479.00544  23529537.2814                   23529540.0514
 -22347597.44848 -17363082.27846  20631264.9844                   20631263.4264
 11  8  9  0 48 30.0000000  0  8G12G10G17G05G09G04G27G02
 -15641687.854 7 -12169972.360 7  21805744.781
 -18683763.46348 -14512781.34546  20975317.6564                   20975318.1994
  -9256633.178 7  -7167180.970 7  22814191.914
 -10677404.602 7  -8277676.853 7  22690966.672
  -4944060.17647  -3157560.96144  23235149.5474                   23235151.8554
 -18431042.63348 -14244754.15846  21152697.4924                   21152698.5004
 -10499409.44346  -7815240.96944  23541072.8284                   23541075.9884
 -22360303.03348 -17372982.72946  20628847.5704                   20628845.6094
 11  8  9  0 49  0.0000000  0  8G12G10G17G05G09G04G27G02
 -15712942.874 8 -12225495.728 7  21792185.688
 -18708424.31848 -14531997.57246  20970624.6564                   20970625.2074
  -9207038.726 7  -7128535.953 7  22823629.344
 -10777191.985 7  -8355433.180 7  22671977.711
  -4871011.11447  -3100639.63144  23249050.1414                   23249052.4104
 -18361309.12348 -14190416.36546  21165967.6954                   21165968.0904
 -10438629.22746  -7767879.84743  23552640.1174                   23552642.3444
 -22372678.45648 -17382625.91446  20626492.7114                   20626490.6564
 11  8  9  0 49 30.0000000  0  8G12G10G17G05G09G04G27G02
 -15783838.751 7 -12280739.257 7  21778694.656
 -18732482.77748 -14550744.40246  20966046.9534                   20966047.0124
  -9157303.443 7  -7089781.220 6  22833093.352
 -10876783.857 7  -8433037.156 7  22653026.609
  -4797689.03347  -3043505.59544  23263003.7504                   23263005.0784
 -18291352.34048 -14135904.59346  21179279.7034                   21179280.5704
 -10377693.35046  -7720397.41043  23564235.3204                   23564237.9024
 -22384723.94248 -17392011.99946  20624200.4304                   20624198.2304
 11  8  9  0 50  0.0000000  0  8G12G10G17G05G09G04G27G02
 -15854372.630 8 -12335700.711 7  21765272.555
 -18755936.75848 -14569020.22046  20961583.7194                   20961583.8594
  -9107426.709 7  -7050916.252 7  22842584.992
 -10976176.939 7  -8510486.233 7  22634111.852
  -4724096.90847  -2986161.13044  23277006.9064                   23277009.5394
 -18221173.86648 -14081220.08346  21192634.2664                   21192635.0904
 -10316604.37846  -7672795.69343  23575860.3524                   23575863.0904
 -22396439.95948 -17401141.35146  20621970.7734                   20621968.6914
 11  8  9  0 50 30.0000000  0  9G25G12G10G17G05G09G04G27G02
    349745.636 6    285561.937 6  24659491.891
 -15924542.865 8 -12390378.806 7  21751919.141
 -18778785.74248 -14586824.60346  20957235.3594                   20957236.0594
  -9057408.460 7  -7011941.036 6  22852102.633
 -11075369.197 7  -8587778.810 7  22615236.430
  -4650238.82846  -2928609.42744  23291061.4614                   23291064.5004
 -18150777.11848 -14026365.48446  21206030.1334                   21206031.2664
 -10255365.70546  -7625077.30144  23587513.8834                   23587516.3404
 -22407828.32548 -17410015.39346  20619803.6484                   20619801.7384
 11  8  9  0 51  0.0000000  0  9G25G12G10G17G05G09G04G27G02
    246419.393 6    205047.993 6  24639829.969
 -15994349.268 8 -12444773.388 7  21738635.719
 -18801031.26948 -14604158.75346  20953002.7034                   20953003.4184
  -9007250.732 7  -6972857.123 6  22861647.453
 -11174359.948 7  -8664914.378 7  22596398.945
  -4576120.66347  -2870855.08444  23305166.3284                   23305169.0474
 -18080166.57148 -13971344.29346  21219466.9774                   21219467.8794
 -10193982.65446  -7577246.47544  23599194.3364                   23599197.0904
 -22418892.43048 -17418636.76746  20617698.1484                   20617696.2704
 11  8  9  0 51 30.0000000  0  9G25G12G10G17G05G09G04G27G02
    143202.325 7    124619.132 6  24620189.141
 -16063784.669 8 -12498878.872 7  21725422.516
 -18822667.22948 -14621017.92646  20948885.2114                   20948885.7544
  -8956948.139 7  -6933660.338 6  22871220.125
 -11273141.466 7  -8741886.901 7  22577601.203
  -4501741.10846  -2812897.02744  23319320.3754                   23319323.1134
 -18009339.55648 -13916154.43146  21232945.3754                   21232946.0044
 -10132453.05546  -7529301.38643  23610903.0944                   23610905.7194
 -22429628.34048 -17427002.39646  20615655.2424                   20615653.7934
 11  8  9  0 52  0.0000000  0  9G25G12G10G17G05G09G04G27G02
     40095.319 6     44276.014 5  24600568.578
 -16132848.231 8 -12552694.630 7  21712280.625
 -18843693.79648 -14637402.23846  20944883.9064                   20944884.3204
  -8906501.598 7  -6894351.365 6  22880819.508
 -11371711.890 7  -8818694.931 7  22558843.781
  -4427104.76547  -2754738.89144  23333522.7584                   23333525.1724
 -17938299.85948 -13860798.83546  21246463.5634                   21246464.0354
 -10070780.96846  -7481245.31143  23622638.7034                   23622642.5354
 -22440038.28948 -17435114.03846  20613674.6954                   20613672.4964
 11  8  9  0 52 30.0000000  0  9G25G12G10G17G05G09G04G27G02
    -62899.996 6    -35980.083 6  24580967.352
 -16201537.937 8 -12606219.071 7  21699208.906
 -18864110.27648 -14653311.16546  20940998.5634                   20940999.5824
  -8855911.393 7  -6854930.464 6  22890447.000
 -11470070.065 7  -8895337.603 7  22540127.164
  -4352216.03447  -2696384.11044  23347774.3984                   23347776.3914
 -17867050.58248 -13805279.94346  21260022.1334                   21260022.6524
 -10008970.00946  -7433080.97443  23634401.6334                   23634404.1564
 -22450124.10448 -17442973.10246  20611755.0864                   20611752.9264
 11  8  9  0 53  0.0000000  0  9G25G12G10G17G05G09G04G27G02
   -165780.638 7   -116146.760 6  24561390.094
 -16269851.123 8 -12659450.105 7  21686209.594
 -18883915.29348 -14668743.62246  20937230.0314                   20937230.3284
  -8805176.142 7  -6815396.535 6  22900101.555
 -11568211.705 7  -8971811.515 7  22521451.156
  -4277078.01547  -2637835.05544  23362072.3754                   23362074.4454
 -17795593.47048 -13749599.09146  21273619.6414                   21273620.4264
  -9947022.74246  -7384810.49943  23646189.8364                   23646192.4304
 -22459886.14048 -17450579.87746  20609897.5704                   20609895.5084
 11  8  9  0 53 30.0000000  0  9G25G12G10G17G05G09G04G27G02
   -268545.157 6   -196223.004 6  24541835.234
 -16337785.832 8 -12712386.241 7  21673282.055
 -18903108.91548 -14683699.67046  20933577.5164                   20933578.2464
  -8754297.259 7  -6775750.640 6  22909783.469
 -11666134.725 7  -9048115.092 7  22502816.445
  -4201695.29547  -2579095.34044  23376417.8834                   23376419.6334
 -17723931.55448 -13693758.65046  21287256.4384                   21287257.1884
  -9884942.87846  -7336436.64343  23658003.2734                   23658005.7894
 -22469326.51848 -17457936.01146  20608100.9144                   20608099.1454
 11  8  9  0 54  0.0000000  0  9G25G12G10G17G05G09G04G27G02
   -371190.044 6   -276205.930 6  24522302.008
 -16405338.855 8 -12765024.956 7  21660427.156
 -18921688.75048 -14698177.44746  20930041.9144                   20930042.3094
  -8703272.090 7  -6735990.828 6  22919493.414
 -11763835.435 7  -9124245.445 7  22484225.172
  -4126069.85347  -2520166.48344  23390808.7194                   23390810.7624
 -17652066.07348 -13637759.59045  21300931.8754                   21300933.0514
  -9822732.21346  -7287960.85543  23669841.5234                   23669844.1804
 -22478444.93948 -17465041.27946  20606365.8134                   20606363.8794
 11  8  9  0 54 30.0000000  0  9G25G12G10G17G05G09G04G27G02
   -473713.074 6   -356094.019 6  24502792.688
 -16472508.021 7 -12817364.562 7  21647645.313
 -18939653.72248 -14712176.09646  20926623.3364                   20926623.5314
  -8652100.934 7  -6696117.172 6  22929230.500
 -11861311.280 7  -9200200.563 7  22465675.852
  -4050205.57247  -2461051.51244  23405245.0784                   23405247.9614
 -17579999.59248 -13581603.91646  21314645.8204                   21314646.6914
  -9760393.65246  -7239385.43043  23681704.3444                   23681706.6054
 -22487242.90848 -17471896.83846  20604691.5394                   20604689.6214
 11  8  9  0 55  0.0000000  0  9G25G12G10G17G05G09G04G27G02
   -576111.710 7   -435885.090 6  24483306.852
 -16539290.800 7 -12869403.077 7  21634936.875
 -18957002.90148 -14725694.92346  20923322.1094                   20923322.5084
  -8600783.170 7  -6656129.339 6  22938996.422
 -11958558.977 7  -9275977.907 7  22447170.703
  -3974105.61647  -2401752.91044  23419726.9144                   23419729.1024
 -17507734.24648 -13525293.27945  21328397.5084                   21328398.2854
  -9697929.98246  -7190712.51243  23693591.3054                   23693593.0164
 -22495720.89448 -17478503.06846  20603078.2974                   20603076.3524
 11  8  9  0 55 30.0000000  0  9G25G12G10G17G05G09G04G27G02
   -678383.821 7   -515577.576 6  24463844.789
 -16605685.220 7 -12921138.985 7  21622302.461
 -18973735.86548 -14738733.58046  20920137.5864                   20920138.3674
  -8549318.475 7  -6616026.998 6  22948789.586
 -12055576.049 7  -9351575.551 7  22428708.438
  -3897774.01647  -2342273.79744  23434252.5554                   23434254.5514
 -17435272.47248 -13468829.57545  21342186.6724                   21342187.1844
  -9635344.13646  -7141944.41043  23705500.9304                   23705503.1524
 -22503880.37448 -17484861.10646  20601525.7814                   20601523.5314
 11  8  9  0 56  0.0000000  0  9G25G12G10G17G05G09G04G27G02
   -780526.437 7   -595169.184 6  24444408.195
 -16671688.439 8 -12972570.048 7  21609742.266
 -18989851.14848 -14751290.92046  20917071.2894                   20917071.8594
  -8497705.957 7  -6575809.474 6  22958611.484
 -12152358.993 7  -9426990.758 7  22410291.516
  -3821213.86547  -2282616.55244  23448820.9694                   23448823.6214
 -17362615.91048 -13412214.08445  21356012.6334                   21356013.0354
  -9572638.76946  -7093083.12243  23717433.1024                   23717435.9304
 -22511721.78948 -17490971.30646  20600033.3754                   20600031.3834
 11  8  9  0 56 30.0000000  0  9G25G12G10G17G05G09G04G27G02
   -882536.607 6   -674657.553 6  24424995.328
 -16737297.226 8 -13023693.775 7  21597257.688
 -19005347.26548 -14763365.79746  20914122.0634                   20914122.8524
  -8445944.684 7  -6535476.022 6  22968461.688
 -12248904.594 7  -9502221.016 7  22391918.742
  -3744427.97847  -2222783.47244  23463432.8674                   23463435.8204
 -17289766.42247 -13355448.26845  21369875.4614                   21369876.1294
  -9509816.03546  -7044130.44043  23729388.1024                   23729390.8014
 -22519245.65348 -17496834.05646  20598602.0234                   20598599.9694
 11  8  9  0 57  0.0000000  0  9G25G12G10G17G05G09G04G27G02
   -984412.558 6   -754041.316 6  24405608.328
 -16802510.072 8 -13074508.970 7  21584847.328
 -19020223.98348 -14774958.03546  20911291.1884                   20911291.4774
  -8394034.745 7  -6495026.721 6  22978339.430
 -12345210.616 7  -9577264.605 7  22373592.734
  -3667420.56047  -2162777.76444  23478087.2504                   23478089.3674
 -17216726.81548 -13298534.30946  21383774.2584                   21383775.2074
  -9446879.25246  -6995088.86044  23741364.2584                   23741367.4614
 -22526453.81848 -17502450.80546  20597230.2814                   20597228.3164
 11  8  9  0 57 30.0000000  0  9G25G12G10G17G05G09G04G27G02
  -1086151.627 6   -833318.460 6  24386247.594
 -16867324.386 7 -13125013.604 7  21572513.875
 -19034480.45048 -14786066.93846  20908578.3284                   20908579.1054
  -8341975.538 7  -6454461.134 7  22988245.813
 -12441273.905 7  -9652119.040 7  22355312.305
  -3590194.97347  -2102602.03644  23492782.2344                   23492785.4064
 -17143499.10548 -13241473.77245  21397709.2114                   21397709.2774
  -9383831.22646  -6945960.58643  23753361.8754                   23753364.8404
 -22533347.24148 -17507822.30846  20595918.4224                   20595916.5234
 11  8  9  0 58  0.0000000  0  9G25G12G10G17G05G09G04G27G02
  -1187751.469 6   -912487.095 6  24366913.320
 -16931737.973 7 -13175205.996 7  21560256.609
 -19048115.83748 -14796691.89746  20905983.7584                   20905984.0124
  -8289766.430 7  -6413778.730 7  22998181.258
 -12537091.376 7  -9726781.921 7  22337078.891
  -3512754.87747  -2042259.16744  23507518.6484                   23507520.9384
 -17070085.76648 -13184268.59245  21411679.6174                   21411679.9224
  -9320674.99946  -6896748.06243  23765380.2974                   23765383.2344
 -22539926.75148 -17512949.19546  20594666.3914                   20594664.7384
 11  8  9  0 58 30.0000000  0  9G25G12G10G17G05G09G04G27G02
  -1289209.436 6   -991545.186 6  24347607.422
 -16995747.934 7 -13225083.856 7  21548075.906
 -19061128.79148 -14806831.84246  20903507.4304                   20903507.7664
  -8237407.110 7  -6372979.274 7  23008145.039
 -12632660.212 7  -9801251.078 7  22318892.734
  -3435103.37247  -1981751.53944  23522295.4454                   23522298.5474
 -16996488.56348 -13126920.11845  21425684.3594                   21425685.2814
  -9257413.12046  -6847453.13743  23777418.3834                   23777421.6484
 -22546193.14448 -17517832.10046  20593473.6564                   20593472.0664
 11  8  9  0 59  0.0000000  0  9G25G12G10G17G05G09G04G27G02
  -1390522.775 6  -1070490.553 6  24328328.172
 -17059352.242 8 -13274645.634 7  21535972.203
 -19073518.59448 -14816486.20346  20901149.3444                   20901150.0234
  -8184896.863 7  -6332062.206 7  23018137.414
 -12727977.446 7  -9875524.176 7  22300754.563
  -3357243.86147  -1921081.85944  23537111.8834                   23537114.7234
 -16922709.55248 -13069430.00045  21439724.0474                   21439724.9144
  -9194048.19346  -6798077.96443  23789476.3674                   23789479.5434
 -22552147.55848 -17522471.89346  20592340.8834                   20592338.9384
 11  8  9  0 59 30.0000000  0  9G25G12G10G17G05G09G04G27G02
  -1491689.735 7  -1149321.867 6  24309078.195
 -17122548.906 7 -13323889.773 7  21523945.922
 -19085285.25248 -14825655.01146  20898910.5474                   20898910.7304
  -8132235.743 7  -6291027.580 7  23028158.141
 -12823040.823 7  -9949599.456 7  22282664.375
  -3279180.51747  -1860253.33944  23551966.5864                   23551969.1484
 -16848751.71048 -13011800.52845  21453797.5084                   21453798.5944
  -9130583.83546  -6748625.28943  23801554.5084                   23801556.8714
 -22557791.56648 -17526869.81946  20591266.7734                   20591264.6484
 11  8  9  1  0  0.0000000  0  9G25G12G10G17G05G09G04G27G02
  -1592706.628 7  -1228036.312 6  24289854.422
 -17185334.410 7 -13372813.516 7  21511998.625
 -19096426.92848 -14834336.80746  20896790.3444                   20896790.3094
  -8079422.219 7  -6249874.195 7  23038208.773
 -12917846.074 7 -10023473.602 7  22264623.633
  -3200915.46047  -1799267.62444  23566860.5004                   23566862.3674
 -16774615.95848 -12954032.41645  21467905.0944                   21467906.1134
  -9067021.43046  -6699096.23543  23813649.2424                   23813652.2034
 -22563125.01948 -17531025.75246  20590251.6564                   20590249.8794
 11  8  9  1  0 30.0000000  0  9G25G12G10G17G05G09G04G27G02
  -1693571.518 7  -1306632.281 6  24270660.742
 -17247707.231 7 -13421415.685 7  21500129.711
 -19106943.53548 -14842531.53846  20894788.8524                   20894789.2664
  -8026456.417 7  -6208602.164 7  23048287.094
 -13012391.141 7 -10097145.034 7  22246632.141
  -3122452.90946  -1738128.04744  23581790.6334                   23581793.6174
 -16700305.02948 -12896127.80545  21482046.1564                   21482046.9414
  -9003364.79746  -6649493.78843  23825762.3914                   23825766.1724
 -22568149.61348 -17534941.01946  20589295.2194                   20589293.5314
 11  8  9  1  1  0.0000000  0  9G25G12G10G17G05G09G04G27G02
  -1794282.043 7  -1385107.981 6  24251496.328
 -17309664.942 8 -13469694.393 7  21488338.797
 -19116834.39948 -14850238.68246  20892906.5704                   20892907.0944
  -7973337.939 7  -6167211.153 7  23058395.484
 -13106673.083 7 -10170611.414 7  22228691.023
  -3043796.25946  -1676837.20644  23596759.4144                   23596761.5554
 -16625821.22048 -12838088.48545  21496219.6564                   21496220.6174
  -8939616.69446  -6599820.00843  23837893.3524                   23837896.7934
 -22572866.74648 -17538616.70246  20588398.1644                   20588395.8594
 11  8  9  1  1 30.0000000  0  9G25G12G10G17G05G09G04G27G02
  -1894834.731 7  -1463460.679 6  24232361.625
 -17371204.390 8 -13517647.182 7  21476628.695
 -19126097.96048 -14857457.02046  20891144.1254                   20891143.9924
  -7920064.980 7  -6125699.786 6  23068533.500
 -13200687.835 7 -10243869.600 7  22210800.398
  -2964948.06447  -1615397.07544  23611762.9614                   23611765.4924
 -16551165.57548 -12779915.25545  21510426.5394                   21510427.4884
  -8875778.94146  -6550076.39143  23850041.5164                   23850045.8754
 -22577276.10948 -17542052.55946  20587559.1484                   20587557.2734
 11  8  9  1  2  0.0000000  0  9G25G12G10G17G05G09G04G27G02
  -1995227.411 7  -1541688.710 7  24213257.766
 -17432323.914 8 -13565272.751 7  21464997.805
 -19134733.86848 -14864186.28345  20889500.7194                   20889500.7504
  -7866638.117 7  -6084068.468 7  23078699.641
 -13294433.666 7 -10316918.232 7  22192961.094
  -2885912.30746  -1553810.86543  23626803.5084                   23626806.2664
 -16476340.82048 -12721610.27045  21524664.9694                   21524666.3554
  -8811854.61946  -6500265.28943  23862206.1724                   23862209.8204
 -22581379.35448 -17545249.88746  20586778.0784                   20586776.0164
 11  8  9  1  2 30.0000000  0  9G25G12G10G17G05G09G04G27G02
  -2095458.166 7  -1619790.532 6  24194184.492
 -17493021.499 7 -13612569.562 7  21453447.391
 -19142742.04548 -14870426.40246  20887976.5474                   20887976.8754
  -7813057.292 7  -6042317.188 7  23088895.328
 -13387907.828 7 -10389755.173 7  22175173.633
  -2806693.01846  -1492081.64343  23641878.4844                   23641880.7034
 -16401349.33348 -12663175.34745  21538935.6724                   21538936.6294
  -8747847.34546  -6450389.61043  23874387.0164                   23874389.8874
 -22585178.17348 -17548209.99946  20586055.1094                   20586052.9804
 11  8  9  1  3  0.0000000  0  9G25G12G10G17G05G09G04G27G02
  -2195523.586 7  -1697763.554 7  24175142.039
 -17553293.857 7 -13659535.017 7  21441977.922
 -19150121.29148 -14876176.45246  20886572.5164                   20886572.4144
  -7759320.991 7  -6000444.750 7  23099121.625
 -13481106.393 7 -10462377.373 7  22157438.023
  -2727293.14947  -1430211.65644  23656987.9844                   23656989.7934
 -16326192.79348 -12604611.80545  21553237.3364                   21553238.7194
  -8683758.98046  -6400450.76743  23886582.0864                   23886586.0204
 -22588673.09848 -17550933.31546  20585390.1484                   20585387.9574
 11  8  9  1  3 30.0000000  0  9G25G12G10G17G05G09G04G27G02
  -2295421.139 6  -1775605.722 7  24156132.367
 -17613138.921 8 -13706167.525 7  21430589.555
 -19156871.36048 -14881436.23446  20885288.2034                   20885288.0594
  -7705428.798 7  -5958450.853 6  23109376.813
 -13574026.759 7 -10534782.798 7  22139756.102
  -2647716.18447  -1368203.69044  23672131.5234                   23672133.0944
 -16250873.08848 -12545921.13645  21567570.2664                   21567571.2114
  -8619592.31446  -6350450.86243  23898792.3284                   23898796.2114
 -22591864.71848 -17553420.27846  20584782.6174                   20584780.7624
 11  8  9  1  4  0.0000000  0  9G25G12G10G17G05G09G04G27G02
  -2395148.622 6  -1853315.359 6  24137154.836
 -17672554.541 8 -13752465.409 7  21419283.531
 -19162992.06448 -14886205.59646  20884123.4304                   20884123.3204
  -7651380.599 7  -5916335.388 6  23119662.477
 -13666666.212 7 -10606969.318 7  22122127.305
  -2567965.63847  -1306060.44744  23687306.8674                   23687308.8794
 -16175392.52448 -12487105.11045  21581934.0084                   21581934.8404
  -8555350.39946  -6300392.28943  23911017.9304                   23911020.6994
 -22594754.73248 -17555672.22646  20584233.1334                   20584230.8284
 11  8  9  1  4 30.0000000  0  9G25G12G10G17G05G09G04G27G02
  -2494703.059 6  -1930890.152 6  24118209.758
 -17731538.110 8 -13798426.609 7  21408059.367
 -19168482.48448 -14890483.83146  20883078.2114                   20883078.7154
  -7597175.782 7  -5874097.894 6  23129977.023
 -13759021.512 7 -10678934.433 7  22104552.719
  -2488044.27547  -1243784.11943  23702515.0084                   23702517.4804
 -16099752.85648 -12428165.11245  21596326.8364                   21596328.4304
  -8491035.74546  -6250277.05243  23923256.9774                   23923259.7854
 -22597343.57548 -17557689.49746  20583739.9774                   20583738.0314
 11  8  9  1  5  0.0000000  0  9G25G12G10G17G05G09G04G27G02
  -2594082.174 7  -2008328.362 6  24099299.039
 -17790087.625 8 -13844049.591 7  21396917.758
 -19173342.34548 -14894270.71746  20882153.7274                   20882153.6724
  -7542813.852 7  -5831737.963 6  23140321.648
 -13851090.183 7 -10750676.183 7  22087032.531
  -2407955.94947  -1181377.70344  23717755.9384                   23717757.4964
 -16023956.53248 -12369103.05345  21610750.6644                   21610752.0354
  -8426651.37946  -6200107.57343  23935508.4454                   23935512.3014
 -22599632.62948 -17559473.15546  20583304.5314                   20583302.4804
 11  8  9  1  5 30.0000000  0  9G25G12G10G17G05G09G04G27G02
  -2693283.132 7  -2085627.796 6  24080421.523
 -17848200.991 8 -13889332.712 7  21385858.703
 -19177570.92348 -14897565.69246  20881348.7814                   20881348.8714
  -7488294.201 7  -5789255.165 6  23150695.836
 -13942869.171 7 -10822192.207 7  22069567.344
  -2327703.98247  -1118843.77044  23733027.4144                   23733029.5944
 -15948005.25348 -12309920.26245  21625204.1804                   21625205.3324
  -8362199.97546  -6149885.82343  23947773.0554                   23947776.5784
 -22601622.90948 -17561024.01146  20582925.9304                   20582924.0554
 11  8  9  1  6  0.0000000  0  9G25G12G10G17G05G09G04G27G02
  -2792303.770 7  -2162786.714 6  24061578.164
 -17905875.992 8 -13934274.278 7  21374884.219
 -19181168.09047 -14900368.66246  20880664.2584                   20880664.7464
  -7433616.531 7  -5746649.196 6  23161101.656
 -14034355.857 7 -10893480.481 7  22052158.258
  -2247292.10547  -1056185.22744  23748329.3834                   23748331.7774
 -15871901.60448 -12250618.72645  21639686.3834                   21639687.2624
  -8297684.61446  -6099614.17843  23960049.8364                   23960053.6134
 -22603315.73648 -17562343.07346  20582603.4454                   20582601.9804
 11  8  9  1  6 30.0000000  0  9G25G12G10G17G05G09G04G27G02
  -2891141.389 7  -2239803.031 5  24042770.320
 -17963110.192 8 -13978872.346 7  21363992.391
 -19184133.77648 -14902679.57146  20880099.8134                   20880099.9574
  -7378780.522 6  -5703919.853 6  23171535.594
 -14125547.371 7 -10964538.730 7  22034804.750
  -2166723.97747   -993404.91744  23763660.9924                   23763662.9184
 -15795647.48848 -12191199.93545  21654196.6884                   21654198.0124
  -8233107.96746  -6049294.77943  23972338.9614                   23972342.3754
 -22604712.52848 -17563431.46346  20582337.4224                   20582335.5234
 11  8  9  1  7  0.0000000  0  9G25G12G10G17G05G09G04G27G02
  -2989793.333 7  -2316674.684 5  24023996.930
 -18019901.482 8 -14023125.290 7  21353185.703
 -19186467.50848 -14904498.04446  20879655.7894                   20879656.1214
  -7323785.210 7  -5661066.394 6  23182001.281
 -14216440.618 7 -11035364.584 7  22017508.422
  -2086002.66447   -930505.24844  23779021.6414                   23779024.1914
 -15719244.78748 -12131665.37545  21668736.0704                   21668736.7854
  -8168472.70946  -5998929.75843  23984638.0634                   23984641.8914
 -22605813.86348 -17564289.63146  20582128.2664                   20582126.5704
 11  8  9  1  7 30.0000000  0  9G25G12G10G17G05G09G04G27G02
  -3088256.249 7  -2393399.060 6  24005261.023
 -18076246.781 8 -14067030.717 7  21342463.492
 -19188168.29948 -14905823.32346  20879332.2034                   20879332.4924
  -7268630.109 7  -5618088.404 6  23192497.414
 -14307032.160 7 -11105955.313 7  22000269.164
  -2005130.68247   -867488.20744  23794411.1094                   23794413.8364
 -15642694.91048 -12072016.12345  21683302.4224                   21683303.7504
  -8103780.89846  -5948520.63943  23996949.4614                   23996952.1954
 -22606620.05948 -17564917.82046  20581974.5234                   20581972.6484
 11  8  9  1  8  0.0000000  0  9G25G12G10G17G05G09G04G27G02
  -3186528.050 7  -2469974.455 6  23986559.930
 -18132144.420 8 -14110587.301 7  21331826.406
 -19189236.03148 -14906655.30446  20879129.0634                   20879129.4264
  -7213315.066 7  -5574985.781 6  23203022.953
 -14397319.728 7 -11176309.201 7  21983087.969
  -1924112.31747   -804357.06544  23809828.2114                   23809831.4774
 -15566000.20448 -12012254.04345  21697897.0634                   21697898.8874
  -8039035.87546  -5898070.04343  24009269.8524                   24009273.0164
 -22607132.92048 -17565317.43546  20581877.5784                   20581875.0984
 11  8  9  1  8 30.0000000  0  9G25G12G10G17G05G09G04G27G02
  -3284606.437 7  -2546399.148 6  23967896.242
 -18187592.605 8 -14153793.676 7  21321275.016
 -19189670.85248 -14906994.10546  20879046.4924                   20879046.5044
  -7157839.442 7  -5531758.005 6  23213579.664
 -14487301.136 7 -11246424.515 7  21965965.063
  -1842951.27546   -741114.76444  23825272.1954                   23825276.0004
 -15489163.16248 -11952381.05145  21712519.0864                   21712519.9144
  -7974240.74046  -5847580.41743  24021600.1884                   24021603.3594
 -22607353.95448 -17565489.66246  20581835.2894                   20581833.1764
 11  8  9  1  9  0.0000000  0  9G25G12G10G17G05G09G04G27G02
  -3382487.963 7  -2622670.448 6  23949270.148
 -18242588.204 8 -14196647.378 7  21310809.914
 -19189471.72048 -14906838.91946  20879084.1564                   20879084.4614
  -7102202.316 7  -5488404.432 6  23224167.203
 -14576972.105 7 -11316297.940 7  21948901.445
  -1761650.07746   -677763.25044  23840743.8834                   23840747.3284
 -15412184.95548 -11892398.05045  21727167.4614                   21727168.7274
  -7909397.44646  -5797053.27843  24033939.3674                   24033942.3094
 -22607283.00448 -17565434.37246  20581848.5704                   20581846.9734
 11  8  9  1  9 30.0000000  0  9G25G12G10G17G05G09G04G27G02
  -3480170.368 7  -2698786.541 7  23930681.477
 -18297129.463 8 -14239147.057 7  21300430.594
 -19188638.92348 -14906189.97846  20879242.3364                   20879242.7504
  -7046403.638 7  -5444924.965 6  23234785.789
 -14666329.943 7 -11385927.363 7  21931896.773
  -1680212.43146   -614305.42044  23856240.7664                   23856244.5984
 -15335067.65748 -11832306.67945  21741842.4694                   21741843.3244
  -7844509.00946  -5746490.91743  24046286.5704                   24046290.0864
 -22606921.88148 -17565152.97246  20581917.2974                   20581915.2894
 11  8  9  1 10  0.0000000  0  9G25G12G10G17G05G09G04G27G02
  -3577651.469 7  -2774745.800 7  23912131.117
 -18351214.440 8 -14281291.186 7  21290138.805
 -19187172.69748 -14905047.45646  20879521.8444                   20879521.7424
  -6990443.263 7  -5401319.502 6  23245434.672
 -14755372.693 7 -11455311.252 7  21914952.859
  -1598642.04646   -550744.16043  23871763.9534                   23871766.6414
 -15257813.86948 -11772108.92945  21756543.5234                   21756544.1174
  -7779578.54746  -5695895.87643  24058643.3364                   24058646.7234
 -22606272.27648 -17564646.78746  20582040.9384                   20582038.8404
 11  8  9  1 10 30.0000000  0  9G25G12G10G17G05G09G04G27G02
  -3674928.561 7  -2850546.060 7  23893619.602
 -18404840.925 8 -14323078.041 7  21279933.859
 -19185072.57148 -14903410.97846  20879921.3444                   20879921.4774
  -6934320.846 7  -5357587.746 6  23256113.984
 -14844097.492 7 -11524447.404 7  21898069.133
  -1516942.45546   -487082.21144  23887311.2814                   23887314.4454
 -15180425.25848 -11711806.12145  21771269.7194                   21771270.5164
  -7714608.66546  -5645270.09243  24071006.9844                   24071009.9884
 -22605334.90248 -17563916.36446  20582219.5234                   20582217.3554
 11  8  9  1 11  0.0000000  0  9G25G12G10G17G05G09G04G27G02
  -3771998.236 7  -2926184.659 7  23875148.727
 -18458006.001 8 -14364505.345 7  21269816.805
 -19182337.98248 -14901280.11046  20880441.3204                   20880441.8094
  -6878035.032 7  -5313728.701 6  23266824.797
 -14932500.873 7 -11593333.086 7  21881246.594
  -1435116.10747   -423321.48344  23902882.0554                   23902884.3524
 -15102903.16648 -11651399.31645  21786021.9384                   21786022.8714
  -7649601.57345  -5594615.29943  24083376.1724                   24083380.3524
 -22604110.09648 -17562961.96846  20582452.2274                   20582450.1914
 11  8  9  1 11 30.0000000  0  9G25G12G10G17G05G09G04G27G02
  -3868858.684 7  -3001660.277 6  23856716.547
 -18510708.782 8 -14405572.430 7  21259787.922
 -19178969.79647 -14898655.54746  20881082.4384                   20881082.7974
  -6821586.269 7  -5269742.665 6  23277566.664
 -15020580.427 7 -11661966.460 7  21864485.547
  -1353167.26947   -359465.30843  23918476.0554                   23918479.1564
 -15025250.29448 -11590890.59045  21800798.6174                   21800799.9964
  -7584560.81246  -5543934.28343  24095754.4614                   24095757.8094
 -22602599.79148 -17561785.10846  20582739.7974                   20582737.5634
 11  8  9  1 12  0.0000000  0  9G25G12G10G17G05G09G04G27G02
  -3965506.758 7  -3076970.430 6  23838325.375
 -18562946.238 8 -14446276.921 7  21249847.203
 -19174967.50848 -14895536.85846  20881844.0784                   20881844.3874
  -6764973.366 7  -5225628.712 6  23288339.844
 -15108333.040 7 -11730345.060 7  21847786.516
  -1271099.01946   -295516.10744  23934092.5234                   23934096.1414
 -14947468.09348 -11530281.08845  21815599.9384                   21815600.8914
  -7519488.62846  -5493228.78843  24108136.9384                   24108140.6954
 -22600804.69048 -17560386.33546  20583081.4304                   20583079.0554
 11  8  9  1 12 30.0000000  0  9G25G12G10G17G05G09G04G27G02
  -4061939.793 7  -3152112.956 6  23819973.797
 -18614716.096 8 -14486617.053 7  21239996.180
 -19170330.66248 -14891923.73146  20882726.4694                   20882726.9264
  -6708196.165 7  -5181386.772 6  23299143.938
 -15195755.802 7 -11798466.644 7  21831150.328
  -1188914.59946   -231476.37344  23949732.3914                   23949735.6054
 -14869558.44947 -11469572.29545  21830425.8984                   21830426.7234
  -7454387.77646  -5442500.96543  24120525.1484                   24120528.4184
 -22598725.90748 -17558766.50146  20583476.9694                   20583474.7154
 11  8  9  1 13  0.0000000  0  9G25G12G10G17G05G09G04G27G02
  -4158155.627 7  -3227086.294 6  23801665.328
 -18666016.761 8 -14526591.582 7  21230233.375
 -19165060.08547 -14887816.76946  20883729.2504                   20883729.3364
  -6651254.489 7  -5137016.627 6  23309979.727
 -15282846.526 7 -11866329.494 7  21814577.633
  -1106617.64846   -167348.93943  23965393.7194                   23965395.7424
 -14791523.85648 -11408766.13945  21845275.2894                   21845276.2584
  -7389261.41846  -5391753.26943  24132919.2814                   24132922.2584
 -22596365.15048 -17556926.94546  20583926.4534                   20583923.9024
 11  8  9  1 13 30.0000000  0  9G25G12G10G17G05G09G04G27G02
  -4254151.170 7  -3301887.936 6  23783397.484
 -18716845.606 8 -14566198.452 7  21220561.273
 -19159155.32747 -14883215.63846  20884853.2034                   20884852.9224
  -6594147.446 7  -5092517.659 6  23320846.844
 -15369601.787 7 -11933930.926 7  21798068.586
  -1024211.07447   -103136.08643  23981074.8524                   23981077.1564
 -14713365.70548 -11347863.69745  21860148.8834                   21860148.8674
  -7324111.75346  -5340987.39643  24145316.0164                   24145319.7704
 -22593722.89048 -17554868.03646  20584429.4144                   20584427.0474
 11  8  9  1 14  0.0000000  0  9G25G12G10G17G05G09G04G27G02
  -4349924.024 7  -3376516.097 6  23765172.609
 -18767201.639 8 -14605436.924 7  21210978.813
 -19152616.59547 -14878120.50846  20886097.1644                   20886097.6564
  -6536874.803 7  -5047889.654 6  23331746.070
 -15456019.089 7 -12001269.054 7  21781623.758
   -941698.52746    -38840.69043  23996775.7114                   23996778.6134
 -14635086.02648 -11286866.55745  21875044.5554                   21875045.8014
  -7258941.93846  -5290205.84943  24157717.7034                   24157721.1374
 -22590800.61947 -17552590.93946  20584985.1174                   20584983.2894
 11  8  9  1 14 30.0000000  0  9G25G12G10G17G05G09G04G27G02
  -4445471.070 7  -3450968.314 6  23746990.734
 -18817081.662 8 -14644304.454 7  21201486.984
 -19145443.87647 -14872531.36146  20887462.4534                   20887462.3954
  -6479435.938 7  -5003132.121 6  23342675.359
 -15542095.654 7 -12068341.633 7  21765244.102
   -859083.15846     25534.86944  24012497.8134                   24012500.4884
 -14556686.27347 -11225775.86145  21889963.4304                   21889964.6214
  -7193754.06846  -5239410.24843  24170123.0634                   24170126.4734
 -22587598.94848 -17550096.12246  20585594.4614                   20585592.3594
 11  8  9  1 15  0.0000000  0  9G25G12G10G17G05G09G04G27G02
  -4540789.963 7  -3525242.739 6  23728851.953
 -18866484.002 8 -14682799.757 7  21192085.750
 -19137637.48447 -14866448.43946  20888947.6484                   20888947.7464
  -6421830.617 6  -4958244.850 6  23353637.516
 -15627828.624 7 -12135146.498 7  21748929.602
   -776368.60246     89987.66644  24028237.6414                   24028240.1604
 -14478168.62647 -11164593.30345  21904905.1174                   21904905.9774
  -7128551.08946  -5188602.77743  24182529.6724                   24182533.4224
 -22584119.31048 -17547384.71346  20586256.3834                   20586254.1024
 11  8  9  1 15 30.0000000  0  9G25G12G10G17G05G09G04G27G02
  -4635877.969 7  -3599337.224 6  23710757.383
 -18915406.527 8 -14720921.191 7  21182776.266
 -19129197.26647 -14859871.63446  20890553.7424                   20890553.8954
  -6364058.534 7  -4913227.660 6  23364631.391
 -15713215.112 7 -12201681.392 7  21732681.141
   -693557.95947    154515.35943  24043997.0554                   24043998.8324
 -14399534.97748 -11103320.35745  21919868.7344                   21919869.7424
  -7063335.60646  -5137785.60143  24194940.6254                   24194943.4924
 -22580362.78548 -17544457.53446  20586971.4844                   20586969.4384
 11  8  9  1 16  0.0000000  0  9G25G12G10G17G05G09G04G27G02
  -4730732.470 7  -3673249.866 5  23692706.953
 -18963846.968 8 -14758666.986 7  21173558.344
 -19120123.18447 -14852800.91346  20892280.7424                   20892280.9614
  -6306119.052 6  -4868080.017 6  23375656.727
 -15798252.645 8 -12267944.337 7  21716498.906
   -610654.72947    219115.21844  24059771.7424                   24059774.2344
 -14320787.12748 -11041958.42245  21934854.5704                   21934854.8054
  -6998110.48446  -5086960.96543  24207352.0554                   24207355.8954
 -22576330.47148 -17541315.47246  20587738.7734                   20587736.9414
 11  8  9  1 16 30.0000000  0  9G25G12G10G17G05G09G04G27G02
  -4825350.701 7  -3746978.321 6  23674701.172
 -19011803.550 8 -14796035.721 7  21164432.945
 -19110415.67047 -14845236.60546  20894127.7344                   20894128.3284
  -6248011.589 6  -4822801.489 7  23386714.430
 -15882937.999 8 -12333932.875 7  21700383.953
   -527662.07947    283784.75144  24075564.9924                   24075567.7074
 -14241926.79347 -10980508.82645  21949860.4614                   21949861.1054
  -6932878.32946  -5036130.83743  24219766.3674                   24219769.8094
 -22572023.59048 -17537959.45946  20588558.3204                   20588556.4804
 11  8  9  1 17  0.0000000  0  9G25G12G10G17G05G09G04G27G02
  -4919729.936 7  -3820520.575 6  23656741.742
 -19059274.328 8 -14833025.922 7  21155399.234
 -19100075.37048 -14837179.22146  20896095.2424                   20896095.8754
  -6189735.822 7  -4777391.849 6  23397803.250
 -15967268.762 8 -12399645.119 7  21684336.078
   -444583.33747    348521.41144  24091373.9694                   24091377.3524
 -14162955.74547 -10918972.97745  21964888.1724                   21964888.8324
  -6867641.75146  -4985297.30742  24232180.2584                   24232184.1804
 -22567443.09348 -17534390.24146  20589430.0474                   20589428.2894
 11  8  9  1 17 30.0000000  0  9G25G12G10G17G05G09G04G27G02
  -5013868.271 7  -3893875.066 6  23638828.008
 -19106257.876 8 -14869636.455 7  21146458.406
 -19089102.63648 -14828629.02946  20898183.7584                   20898183.9964
  -6131291.802 7  -4731851.054 7  23408925.047
 -16051242.731 8 -12465079.326 7  21668356.773
   -361422.37847    413322.07544  24107199.6804                   24107202.8014
 -14083876.66747 -10857352.93745  21979935.9694                   21979937.6604
  -6802404.38046  -4934463.08742  24244593.8054                   24244598.7154
 -22562590.88648 -17530609.30346  20590353.1484                   20590351.1684
 11  8  9  1 18  0.0000000  0  9G25G12G10G17G05G09G04G27G02
  -5107761.765 7  -3967038.783 6  23620960.008
 -19152750.966 8 -14905864.827 7  21137611.055
 -19077496.72848 -14819585.45546  20900392.1174                   20900392.3404
  -6072678.495 6  -4686178.358 7  23420079.141
 -16134855.967 8 -12530232.454 7  21652445.367
   -278181.51447    478185.03944  24123040.1724                   24123042.5634
 -14004690.05748 -10795649.09945  21995005.2974                   21995006.1024
  -6737167.41646  -4883629.19142  24257007.7424                   24257012.7464
 -22557466.65748 -17526616.39746  20591328.4534                   20591326.0634
 11  8  9  1 18 30.0000000  0  9G25G12G10G17G05G09G04G27G02
  -5201408.742 7  -4040010.432 7  23603140.117
 -19198752.535 8 -14941710.182 7  21128857.430
 -19065258.97748 -14810049.53846  20902720.7114                   20902721.2504
  -6013896.022 7  -4640373.868 6  23431265.008
 -16218107.106 8 -12595103.421 7  21636603.289
   -194864.86846    543107.03344  24138894.7034                   24138897.1724
 -13925398.75348 -10733863.69245  22010093.7734                   22010094.7934
  -6671934.63445  -4832798.57942  24269421.8594                   24269426.2894
 -22552072.83348 -17522413.42146  20592354.7974                   20592352.8244
 11  8  9  1 19  0.0000000  0  9G25G12G10G17G05G09G04G27G02
  -5294806.754 7  -4112788.076 7  23585367.438
 -19244261.179 8 -14977171.453 7  21120197.484
 -19052390.06448 -14800021.79246  20905169.6484                   20905170.2114
  -5954944.296 7  -4594437.458 6  23442482.883
 -16300993.282 8 -12659689.996 7  21620830.484
   -111476.20446    608085.11143  24154762.4454                   24154765.7154
 -13846004.66548 -10671998.18745  22025202.7584                   22025203.1214
  -6606708.92546  -4781973.49243  24281834.3364                   24281838.8484
 -22546410.74048 -17518001.40446  20593432.0944                   20593429.8674
 11  8  9  1 19 30.0000000  0  9G25G12G10G17G05G09G04G27G02
  -5387952.137 7  -4185368.815 7  23567641.656
 -19289273.665 8 -15012246.123 7  21111631.961
 -19038889.17048 -14789501.61846  20907738.7034                   20907739.3914
  -5895822.208 6  -4548368.341 6  23453733.586
 -16383510.830 8 -12723989.351 7  21605127.773
    -28017.41947    673117.87143  24170645.3834                   24170646.9614
 -13766508.49047 -10610053.13645  22040329.8754                   22040330.4614
  -6541492.06446  -4731155.31843  24294244.5634                   24294249.1174
 -22540480.37348 -17513380.34646  20594560.9454                   20594558.7814
 11  8  9  1 20  0.0000000  0  9G25G12G10G17G05G09G04G27G02
  -5480842.206 7  -4257750.676 7  23549965.258
 -19333788.325 8 -15046932.859 7  21103161.320
 -19024756.94248 -14778489.47946  20910428.2424                   20910428.5784
  -5836529.112 6  -4502165.953 6  23465016.781
 -16465657.039 8 -12787999.335 7  21589495.742
     55507.71146    738202.32843  24186539.3914                   24186542.5434
 -13686912.25548 -10548030.10045  22055476.3754                   22055477.8484
  -6476286.61546  -4680345.97343  24306652.6414                   24306657.4024
 -22534283.21448 -17508551.39246  20595740.3054                   20595737.7664
 11  8  9  1 20 30.0000000  0  9G25G12G10G17G05G09G04G27G02
  -5573474.832 7  -4329931.882 6  23532338.398
 -19377803.562 8 -15081230.434 7  21094784.953
 -19009994.54348 -14766986.29946  20913237.2344                   20913237.3914
  -5777065.034 7  -4455830.335 6  23476332.391
 -16547429.890 8 -12851718.396 7  21573935.125
    139095.51147    803335.61543  24202445.7194                   24202448.6484
 -13607218.09747 -10485930.75445  22070641.4774                   22070642.8164
  -6411095.75246  -4629548.01643  24319058.3284                   24319062.9414
 -22527820.60448 -17503515.59146  20596969.7034                   20596967.4884
 11  8  9  1 21  0.0000000  0  9G25G12G10G17G05G09G04G27G02
  -5665847.487 7  -4401910.538 6  23514760.313
 -19421317.721 8 -15115137.567 7  21086504.609
 -18994602.21648 -14754992.26046  20916166.5234                   20916166.6954
  -5717429.886 7  -4409361.387 6  23487681.094
 -16628826.831 8 -12915144.547 7  21558445.445
    222742.60846    868515.09443  24218362.9774                   24218366.6214
 -13527427.92547 -10423756.61545  22085825.0084                   22085825.7584
  -6345922.31446  -4578763.64242  24331460.2034                   24331464.8984
 -22521093.88048 -17498273.98946  20598249.5234                   20598247.4614
 11  8  9  1 21 30.0000000  0  9G25G12G10G17G05G09G04G27G02
  -5757957.222 7  -4473684.337 6  23497232.148
 -19464328.750 8 -15148652.640 7  21078319.930
 -18978580.34748 -14742507.68046  20919214.8754                   20919215.3444
  -5657623.100 7  -4362758.706 6  23499062.047
 -16709844.928 8 -12978275.515 7  21543028.477
    306446.24446    933738.62643  24234291.1254                   24234294.0704
 -13447543.35247 -10361508.92645  22101026.5634                   22101027.7974
  -6280768.83145  -4527994.81543  24343859.1884                   24343863.5084
 -22514104.05548 -17492827.36646  20599580.0704                   20599577.8244
 11  8  9  1 22  0.0000000  0  9G25G12G10G17G05G09G04G27G02
  -5849801.365 7  -4545251.152 6  23479754.938
 -19506834.584 8 -15181774.063 7  21070231.305
 -18961929.49948 -14729532.98046  20922383.6484                   20922383.9734
  -5597644.215 7  -4316021.915 6  23510475.539
 -16790481.566 7 -13041109.202 7  21527683.711
    390202.85246    999003.43443  24250229.7424                   24250232.1024
 -13367566.08447 -10299188.98545  22116245.9614                   22116246.8874
  -6215637.81345  -4477243.49642  24356253.3524                   24356257.8244
 -22506851.90848 -17487176.33846  20600959.6884                   20600958.3134
 11  8  9  1 22 30.0000000  0  9G25G12G10G17G05G09G04G27G02
  -5941376.729 7  -4616608.529 6  23462328.359
 -19548833.342 8 -15214500.354 7  21062238.758
 -18944649.83448 -14716068.28846  20925671.7504                   20925671.9344
  -5537492.370 7  -4269150.364 6  23521922.016
 -16870733.728 8 -13103643.313 7  21512412.063
    474009.67346   1064307.34243  24266177.5634                   24266180.1374
 -13287497.12947 -10236797.59645  22131482.5234                   22131483.5474
  -6150531.36845  -4426511.33343  24368642.6644                   24368647.1884
 -22499338.69648 -17481321.88946  20602389.8204                   20602387.6024
 11  8  9  1 23  0.0000000  0  9G25G12G10G17G05G09G04G27G02
  -6032681.827 7  -4687755.315 6  23444953.758
 -19590324.293 8 -15246830.966 7  21054343.727
 -18926742.92248 -14702114.84546  20929079.6094                   20929079.7934
  -5477168.459 7  -4222144.712 6  23533400.852
 -16950600.018 8 -13165876.744 7  21497214.430
    557862.46346   1129647.10043  24282134.1484                   24282136.6214
 -13207339.45847 -10174337.08445  22146736.2974                   22146737.0394
  -6085453.45046  -4375801.38842  24381027.1254                   24381031.3794
 -22491566.34148 -17475265.50646  20603868.7424                   20603866.8094
 11  8  9  1 23 30.0000000  0  9G25G12G10G17G05G09G04G27G02
  -6123712.996 7  -4758688.651 6  23427631.773
 -19631304.303 8 -15278763.447 7  21046545.656
 -18908208.62348 -14687672.51746  20932606.3834                   20932606.3364
  -5416671.172 7  -4175003.987 6  23544913.438
 -17030076.593 8 -13227806.504 7  21482090.297
    641758.68946   1195020.67543  24298099.3204                   24298102.2384
 -13127093.89247 -10111808.06745  22162006.6024                   22162007.4734
  -6020405.60445  -4325114.89242  24393405.0554                   24393409.8324
 -22483535.14148 -17469007.41246  20605396.9924                   20605395.3054
 11  8  9  1 24  0.0000000  0  9G25G12G10G17G05G09G04G27G02
  -6214467.647 7  -4829406.526 6  23410360.828
 -19671771.813 8 -15310296.577 7  21038844.422
 -18889047.38748 -14672741.67046  20936252.5474                   20936253.3444
  -5356000.175 7  -4127727.886 6  23556459.125
 -17109160.948 8 -13289430.650 7  21467041.133
    725695.20446   1260425.68443  24314071.3674                   24314074.8914
 -13046762.24147 -10049211.99645  22177292.9844                   22177293.8364
  -5955390.64145  -4274454.00542  24405776.0864                   24405782.2934
 -22475246.40948 -17462548.64446  20606974.0004                   20606971.9804
 11  8  9  1 24 30.0000000  0  9G25G12G10G17G05G09G04G27G02
  -6304943.216 7  -4899906.906 6  23393144.195
 -19711725.195 8 -15341429.087 7  21031241.961
 -18869260.12248 -14657323.01546  20940017.8364                   20940018.3284
  -5295154.878 7  -4080316.006 6  23568037.594
 -17187850.723 8 -13350747.313 7  21452066.523
    809668.72546   1325859.49143  24330051.7194                   24330054.6604
 -12966346.29047  -9986550.23345  22192595.9384                   22192596.8134
  -5890411.01445  -4223820.72942  24418142.3984                   24418147.9844
 -22466701.20548 -17455890.04046  20608600.3594                   20608598.4344
 11  8  9  1 25  0.0000000  0  9G25G12G10G17G05G09G04G27G02
  -6395136.856 7  -4970187.609 6  23375980.781
 -19751162.632 8 -15372159.556 7  21023737.391
 -18848847.25548 -14641416.87746  20943902.3524                   20943902.4804
  -5234135.496 7  -4032768.427 6  23579648.586
 -17266143.137 8 -13411754.346 7  21437168.273
    893676.19546   1391319.78543  24346037.6804                   24346040.8364
 -12885847.31747  -9923823.77745  22207914.0314                   22207914.8244
  -5825469.43245  -4173217.04042  24430499.6564                   24430505.8754
 -22457900.68948 -17449032.49846  20610274.8674                   20610273.0354
 11  8  9  1 25 30.0000000  0  9G25G12G10G17G05G09G04G27G02
  -6485046.891 7  -5040247.324 7  23358871.258
 -19790083.227 8 -15402487.280 7  21016330.961
 -18827810.79548 -14625024.81746  20947905.5474                   20947905.9344
  -5172942.215 6  -3985085.348 6  23591293.547
 -17344036.578 8 -13472450.500 7  21422345.344
    977713.19246   1456803.02843  24362029.4534                   24362032.9184
 -12805268.25047  -9861034.92245  22223247.7974                   22223248.6024
  -5760569.55246  -4122645.87442  24442849.8984                   24442856.2034
 -22448847.10548 -17441977.74946  20611997.8594                   20611996.0044
 11  8  9  1 26  0.0000000  0  9G25G12G10G17G05G09G04G27G02
  -6574669.577 7  -5110083.108 7  23341817.320
 -19828484.203 8 -15432410.120 7  21009023.297
 -18806150.12648 -14608146.36346  20952027.1254                   20952027.7774
  -5111573.721 7  -3937265.756 6  23602970.703
 -17421527.515 8 -13532833.008 7  21407599.336
   1061777.65346   1522307.72943  24378026.4694                   24378029.8554
 -12724609.36147  -9798183.86745  22238596.2814                   22238597.9384
  -5695712.80545  -4072108.29142  24455191.2814                   24455197.6604
 -22439540.32148 -17434725.71446  20613769.5634                   20613766.9734
 11  8  9  1 26 30.0000000  0  9G25G12G10G17G05G09G04G27G02
  -6664002.648 7  -5179693.259 6  23324817.266
 -19866364.486 8 -15461927.210 7  21001815.023
 -18783866.57448 -14590782.54646  20956268.0314                   20956268.0664
  -5050030.143 6  -3889309.733 6  23614682.852
 -17498613.622 8 -13592900.059 7  21392930.352
   1145866.18646   1587831.15043  24394027.7664                   24394031.4224
 -12643872.80647  -9735272.28945  22253959.7814                   22253961.2774
  -5630902.19246  -4021606.62842  24467525.8984                   24467530.9844
 -22429981.95248 -17427277.62546  20615588.0394                   20615586.0394
 11  8  9  1 27  0.0000000  0  9G25G12G10G17G05G09G04G27G02
  -6753043.427 7  -5249075.644 7  23307873.313
 -19903722.258 8 -15491037.158 7  20994706.094
 -18760961.01447 -14572934.05446  20960626.3594                   20960626.8244
  -4988311.329 6  -3841217.170 6  23626427.492
 -17575292.469 8 -13652649.778 7  21378338.344
   1229975.44846   1653370.75843  24410034.3834                   24410037.3204
 -12563060.23047  -9672301.46445  22269338.5234                   22269339.6524
  -5566140.29746  -3971143.03143  24479849.9534                   24479854.3954
 -22420173.07048 -17419634.32646  20617454.3524                   20617452.2304
 11  8  9  1 27 30.0000000  0  9G25G12G10G17G05G09G04G27G02
  -6841785.202 7  -5318225.045 6  23290986.516
 -19940551.624 8 -15519735.351 7  20987697.578
 -18737430.14148 -14554598.30546  20965104.2034                   20965104.6214
  -4926412.674 7  -3792984.450 6  23638206.719
 -17651557.388 8 -13712076.961 7  21363826.016
   1314106.20146   1718927.04243  24426043.3054                   24426046.9264
 -12482169.50847  -9609269.75745  22284731.4144                   22284732.5664
  -5501425.79646  -3920716.30243  24492164.3594                   24492168.7464
 -22410110.77448 -17411793.56646  20619368.7664                   20619367.1484
 11  8  9  1 28  0.0000000  0  8G25G12G10G17G05G09G04G02
  -6930232.980 7  -5387145.374 6  23274155.258
 -19976858.683 8 -15548026.570 7  20980788.430
 -18713282.52548 -14535781.97846  20969699.7034                   20969700.1134
  -4864341.443 7  -3744617.283 6  23650018.273
 -17727413.929 8 -13771185.901 7  21349390.711
   1398247.54046   1784491.61743  24442054.5474                   24442058.7504
 -12401209.73747  -9546184.23145  22300137.9924                   22300138.7074
 -22399804.11548 -17403762.40346  20621330.1954                   20621328.4654
 11  8  9  1 28 30.0000000  0  8G25G12G10G17G05G09G04G02
  -7018381.050 7  -5455832.162 7  23257381.438
 -20012638.963 8 -15575907.293 7  20973980.016
 -18688516.06548 -14516483.42846  20974412.3054                   20974412.8324
  -4802094.518 7  -3696113.174 6  23661863.688
 -17802856.142 8 -13829972.015 7  21335034.828
   1482399.57746   1850064.53243  24458069.6564                   24458072.4184
 -12320179.15047  -9483043.53245  22315557.4774                   22315558.3674
 -22389251.09648 -17395539.25646  20623338.6174                   20623336.6994
 11  8  9  1 29  0.0000000  0  8G25G12G10G17G05G09G04G02
  -7106225.636 7  -5524282.441 7  23240665.102
 -20047889.758 8 -15603375.434 7  20967271.688
 -18663130.45148 -14496702.43346  20979243.1414                   20979243.8914
  -4739670.392 6  -3647471.024 6  23673743.023
 -17877880.596 8 -13888432.590 7  21320757.867
   1566560.13746   1915644.10243  24474083.6724                   24474087.6844
 -12239078.50147  -9419848.23445  22330990.1094                   22330990.7934
 -22378451.83748 -17387124.22746  20625393.6724                   20625391.7114
 11  8  9  1 29 30.0000000  0  8G25G12G10G17G05G09G04G02
  -7193764.651 7  -5592494.643 7  23224007.188
 -20082610.138 8 -15630430.267 7  20960665.000
 -18637127.46948 -14476440.36146  20984191.2974                   20984191.3284
  -4677069.516 7  -3598691.108 6  23685655.164
 -17952485.494 8 -13946566.240 7  21306561.383
   1650725.37846   1981227.27843  24490099.9534                   24490103.6214
 -12157910.04447  -9356600.10145  22346435.6334                   22346437.3954
 -22367408.07448 -17378518.69246  20627495.3754                   20627493.5704
 11  8  9  1 30  0.0000000  0  8G25G12G10G17G05G09G04G02
  -7280995.193 7  -5660466.483 7  23207407.477
 -20116798.155 8 -15657070.287 7  20954159.078
 -18610507.82148 -14455697.78346  20989256.9144                   20989257.3204
  -4614291.415 7  -3549773.113 6  23697600.563
 -18026667.842 8 -14004370.625 7  21292444.508
   1734892.54646   2046811.94242  24506117.4844                   24506120.9064
 -12076675.03847  -9293300.12345  22361894.1484                   22361895.6054
 -22356120.49448 -17369723.16046  20629643.4844                   20629641.1294
 11  8  9  1 30 30.0000000  0  8G25G12G10G17G05G09G04G02
  -7367914.681 7  -5728195.930 7  23190867.070
 -20150452.268 8 -15683294.255 7  20947754.703
 -18583272.50648 -14434475.45346  20994439.6334                   20994439.9774
  -4551335.502 7  -3500716.588 6  23709581.422
 -18100425.406 8 -14061844.020 7  21278409.164
   1819058.32545   2112395.58242  24522132.7344                   24522136.9104
 -11995374.95347  -9229949.39945  22377365.1174                   22377366.4414
 -22344590.55848 -17360738.77946  20631837.4924                   20631835.1804
 11  8  9  1 31  0.0000000  0  8G25G12G10G17G05G09G04G02
  -7454520.492 7  -5795680.960 7  23174386.469
 -20183571.087 7 -15709101.121 7  20941452.727
 -18555422.52148 -14412774.15146  20999739.2114                   20999739.6524
  -4488201.734 7  -3451521.455 6  23721595.039
 -18173755.918 8 -14118984.645 7  21264454.922
   1903219.56645   2177975.63342  24538148.3524                   24538153.8284
 -11914011.70347  -9166549.48444  22392848.1564                   22392849.3984
 -22332819.52248 -17351566.52146  20634077.1724                   20634075.3244
 11  8  9  1 31 30.0000000  0  8G25G12G10G17G05G09G04G02
  -7540810.656 7  -5862920.028 6  23157965.984
 -20216153.733 8 -15734490.188 7  20935252.336
 -18526959.64347 -14390595.28246  21005155.4924                   21005156.1294
  -4424890.670 6  -3402188.175 6  23733642.883
 -18246657.686 8 -14175791.179 7  21250581.938
   1987372.25546   2243548.94042  24554163.3054                   24554166.9844
 -11832587.23747  -9103101.87645  22408342.4844                   22408344.1334
 -22320809.35348 -17342207.93946  20636362.5004                   20636360.4104
 11  8  9  1 32  0.0000000  0  8G25G12G10G17G05G09G04G02
  -7626781.602 7  -5929910.353 6  23141606.563
 -20248197.869 8 -15759459.638 7  20929154.844
 -18497884.14748 -14367939.04146  21010688.5004                   21010688.9494
  -4361400.932 6  -3352715.672 6  23745724.883
 -18319127.093 8 -14232260.812 7  21236791.172
   2071514.48546   2309114.24842  24570173.9534                   24570178.8754
 -11751102.08847  -9039606.97945  22423848.4144                   22423850.3164
 -22308559.73948 -17332662.77346  20638693.6644                   20638691.5044
 11  8  9  1 32 30.0000000  0  8G25G12G10G17G05G09G04G02
  -7712431.051 7  -5996650.150 6  23125307.242
 -20279702.518 8 -15784008.701 7  20923159.375
 -18468197.52748 -14344806.60146  21016337.6024                   21016337.6214
  -4297732.710 6  -3303104.079 6  23757840.477
 -18391162.438 8 -14288392.216 7  21223083.414
   2155642.59746   2374668.53343  24586183.0234                   24586187.9804
 -11669558.36147  -8976066.43344  22439366.0394                   22439367.2234
 -22296072.55148 -17322932.48446  20641070.0634                   20641067.6054
 11  8  9  1 33  0.0000000  0  8G25G12G10G17G05G09G04G02
  -7797756.258 7  -6063137.318 6  23109070.805
 -20310665.919 8 -15808136.028 7  20917267.195
 -18437900.65348 -14321198.63246  21022103.1564                   21022103.3324
  -4233885.619 6  -3253353.083 6  23769990.820
 -18462761.230 8 -14344183.458 7  21209458.602
   2239753.66046   2440209.49943  24602189.6024                   24602193.0824
 -11587957.42047  -8912481.27545  22454894.2114                   22454895.0474
 -22283348.91148 -17313017.94846  20643491.0554                   20643489.0004
 11  8  9  1 33 30.0000000  0  8G25G12G10G17G05G09G04G02
  -7882754.014 7  -6129369.287 6  23092896.352
 -20341086.195 8 -15831840.132 7  20911478.344
 -18406993.97947 -14297115.50946  21027984.3914                   21027984.6174
  -4169859.037 7  -3203462.245 6  23782173.844
 -18533920.319 8 -14399632.056 7  21195917.688
   2323845.08046   2505735.14543  24618191.3134                   24618195.7544
 -11506300.08847  -8848852.19745  22470433.4614                   22470434.0984
 -22270389.16748 -17302919.44146  20645957.3284                   20645954.9734
 11  8  9  1 34  0.0000000  0  8G25G12G10G17G05G09G04G02
  -7967422.583 7  -6195344.749 7  23076784.594
 -20370962.952 8 -15855120.718 7  20905793.125
 -18375480.08448 -14272559.20546  21033980.8364                   21033981.1254
  -4105653.491 6  -3153431.976 6  23794392.086
 -18604638.459 8 -14454737.080 7  21182459.914
   2407912.77546   2571242.32042  24634188.6024                   24634192.8524
 -11424588.99347  -8785181.22644  22485982.6954                   22485983.3914
 -22257195.78348 -17292638.88346  20648467.8134                   20648465.5904
 11  8  9  1 34 30.0000000  0  8G25G12G10G17G05G09G04G02
  -8051759.093 7  -6261061.472 7  23060735.992
 -20400294.375 8 -15877976.367 7  20900211.117
 -18343359.79148 -14247530.40646  21040093.2034                   21040093.9414
  -4041268.475 6  -3103261.852 6  23806643.914
 -18674912.944 8 -14509496.382 7  21169087.453
   2491954.26546   2636729.09243  24650181.0704                   24650185.5314
 -11342825.24647  -8721469.20544  22501541.0394                   22501542.2774
 -22243769.35548 -17282176.72146  20651022.7734                   20651020.8834
 11  8  9  1 35  0.0000000  0  8G25G12G10G17G05G09G04G02
  -8135760.790 7  -6326517.318 7  23044750.320
 -20429079.355 8 -15900406.219 7  20894733.742
 -18310634.04047 -14222029.81946  21046321.1954                   21046321.3524
  -3976703.662 6  -3052951.631 6  23818930.086
 -18744741.263 8 -14563908.021 7  21155799.477
   2575966.31046   2702192.88243  24666169.0084                   24666173.0784
 -11261010.21547  -8657717.23444  22517110.1484                   22517110.8594
 -22230110.89148 -17271533.75446  20653622.1094                   20653620.0044
 11  8  9  1 35 30.0000000  0  8G25G12G10G17G05G09G04G02
  -8219425.004 7  -6391710.136 7  23028829.805
 -20457315.587 8 -15922408.482 7  20889360.594
 -18277304.14747 -14196058.46046  21052663.1724                   21052663.4224
  -3911958.830 6  -3002501.119 6  23831250.734
 -18814121.341 8 -14617970.391 7  21142597.039
   2659945.93946   2767631.45343  24682149.2734                   24682153.6954
 -11179145.10947  -8593926.24044  22532688.9384                   22532689.3594
 -22216221.54348 -17260710.88546  20656264.9694                   20656262.5984
 11  8  9  1 36  0.0000000  0  8G25G12G10G17G05G09G04G02
  -8302748.913 7  -6456637.804 7  23012973.641
 -20485002.209 8 -15943982.464 7  20884092.031
 -18243371.10547 -14169617.12646  21059120.5704                   21059121.0594
  -3847033.661 6  -2951910.095 6  23843605.844
 -18883050.566 8 -14671681.442 7  21129480.195
   2743890.32546   2833042.51543  24698123.5634                   24698127.5594
 -11097231.60447  -8530097.52244  22548276.2114                   22548277.6954
 -22202102.48348 -17249709.01446  20658951.7194                   20658949.3754
 11  8  9  1 36 30.0000000  0  8G25G12G10G17G05G09G04G02
  -8385730.798 7  -6521298.954 7  22997182.570
 -20512139.045 8 -15965128.047 7  20878928.164
 -18208837.41947 -14142707.76646  21065692.3594                   21065692.8954
  -3781928.817 6  -2901179.076 6  23855994.742
 -18951527.534 8 -14725040.085 7  21116449.609
   2827795.90745   2898423.37243  24714091.3054                   24714094.6484
 -11015271.69847  -8466232.66844  22563873.0704                   22563874.3594
 -22187755.60548 -17238529.62346  20661681.6414                   20661679.5204
 11  8  9  1 37  0.0000000  0  8G25G12G10G17G05G09G04G02
  -8468367.050 7  -6585690.806 7  22981457.484
 -20538723.567 8 -15985843.246 7  20873869.617
 -18173703.13248 -14115330.38746  21072377.9694                   21072378.3714
  -3716643.148 6  -2850307.125 6  23868417.688
 -19019548.827 8 -14778043.659 7  21103505.336
   2911660.25245   2963772.00442  24730047.9614                   24730054.1454
 -10933265.87947  -8402332.03744  22579478.2194                   22579479.1764
 -22173181.06548 -17227172.83046  20664455.0394                   20664452.9964
 11  8  9  1 37 30.0000000  0  8G25G12G10G17G05G09G04G02
  -8550654.979 7  -6649811.224 7  22965798.492
 -20564754.394 8 -16006126.995 7  20868915.883
 -18137969.68247 -14087486.13446  21079177.5784                   21079178.0554
  -3651176.259 6  -2799293.970 6  23880876.500
 -19087112.471 8 -14830690.619 7  21090648.203
   2995480.33945   3029086.26242  24745999.3284                   24746005.4264
 -10851215.37447  -8338396.58444  22595091.4304                   22595093.4774
 -22158379.88148 -17215639.45046  20667271.7974                   20667269.5704
 11  8  9  1 38  0.0000000  0  8G25G12G10G17G05G09G04G02
  -8632593.351 7  -6713659.259 6  22950206.281
 -20590231.457 8 -16025979.255 7  20864067.695
 -18101639.90248 -14059177.21446  21086091.0554                   21086091.8954
  -3585529.034 6  -2748140.282 6  23893367.617
 -19154217.382 8 -14882980.123 7  21077878.875
   3079251.897 5                  24761941.781
 -10769123.19247  -8274428.68344  22610713.4384                   22610714.1684
 -22143354.73148 -17203931.55046  20670131.1954                   20670129.1884
 11  8  9  1 38 30.0000000  0  8G25G12G10G17G05G09G04G02
  -8714178.070 7  -6777231.746 6  22934681.227
 -20615152.384 8 -16045398.156 7  20859325.617
 -18064713.45747 -14030403.35446  21093118.1884                   21093118.4734
  -3519700.147 6  -2696845.064 6  23905895.438
 -19220860.013 8 -14934909.421 7  21065196.547
 -48825886.562 5                  24777870.539
 -10686988.97547  -8210428.00944  22626342.9924                   22626344.2584
 -22128104.98248 -17192048.62646  20673032.9694                   20673030.7034
 11  8  9  1 39  0.0000000  0  8G25G12G10G17G05G09G04G02
  -8795406.948 7  -6840526.935 6  22919223.398
 -20639516.053 8 -16064382.845 7  20854688.688
 -18027192.33147 -14001166.11246  21100258.3674                   21100258.5824
  -3453689.736 6  -2645408.429 6  23918457.313
 -19287038.280 8 -14986476.851 7  21052603.375
 -48742218.499 5                  24793794.305
 -10604814.67247  -8146396.08944  22641980.8284                   22641981.1374
 -22112632.16348 -17179991.88746  20675977.0704                   20675974.7274
 11  8  9  1 39 30.0000000  0  8G25G12G10G17G05G09G04G02
  -8876277.805 7  -6903543.193 6  22903834.398
 -20663322.039 8 -16082932.960 7  20850159.016
 -17989078.48748 -13971467.01246  21107510.6414                   21107511.4694
  -3387498.285 6  -2593830.658 6  23931052.438
 -19352750.621 8 -15037681.243 7  21040099.273
 -48658607.322 5                  24809704.656
 -10522602.06347  -8082334.31744  22657625.1484                   22657626.4494
 -22096937.90448 -17167762.60246  20678963.8984                   20678961.6524
 11  8  9  1 40  0.0000000  0  8G25G12G10G17G05G09G04G02
  -8956788.237 7  -6966278.551 7  22888514.211
 -20686569.516 8 -16101047.878 7  20845734.844
 -17950373.54047 -13941307.31846  21114876.4774                   21114876.5514
  -3321125.339 6  -2542111.465 6  23943683.242
 -19417995.152 8 -15088521.096 7  21027683.203
 -48575056.167 5                  24825602.938
 -10440352.64247  -8018243.85444  22673277.1414                   22673277.3874
 -22081023.79548 -17155362.00646  20681992.4224                   20681990.3984
 11  8  9  1 40 30.0000000  0  8G25G12G10G17G05G09G04G02
  -9036935.746 7  -7028731.111 7  22873262.383
 -20709256.849 8 -16118726.312 7  20841417.711
 -17911079.11047 -13910688.27346  21122353.6804                   21122353.8204
  -3254571.031 6  -2490250.984 6  23956347.977
 -19482769.593 8 -15138994.670 7  21015356.625
 -48491568.131 6                  24841492.188
 -10358068.02747  -7954125.97545  22688935.2424                   22688936.1254
 -22064890.80248 -17142790.85146  20685062.3364                   20685060.2734
 11  8  9  1 41  0.0000000  0  8G25G12G10G17G05G09G04G02
  -9116707.915 7  -7090891.219 7  22858082.250
 -20731373.599 8 -16135960.135 7  20837209.008
 -17871186.74548 -13879603.32446  21129944.8984                   21129945.3324
  -3187825.658 6  -2438241.639 6  23969049.234
 -19547062.111 8 -15189092.699 7  21003122.570
 -48408136.301 6                  24857367.781
 -10275739.60447  -7889973.97345  22704600.9844                   22704602.5634
 -22048530.32448 -17130042.43446  20688175.8054                   20688173.6524
 11  8  9  1 41 30.0000000  0  7G25G12G10G17G05G04G02
  -9196120.332 7  -7152770.990 7  22842970.828
 -20752936.773 8 -16152762.609 7  20833105.828
 -17830716.60247 -13848068.14846  21137646.3984                   21137646.1294
  -3120907.067 6  -2386097.277 6  23981782.680
 -19610888.688 8 -15238827.656 7  20990976.844
 -10193386.66947  -7825802.89144  22720272.3834                   22720274.4144
 -22031961.56848 -17117131.72446  20691328.4384                   20691326.3954
 11  8  9  1 42  0.0000000  0  7G25G12G10G17G05G04G02
  -9275162.193 7  -7214362.022 7  22827929.477
 -20773936.660 8 -16169126.154 7  20829109.672
 -17789661.82247 -13816077.41346  21145458.6174                   21145458.8714
  -3053806.858 6  -2333811.376 6  23994551.766
 -19674238.924 8 -15288191.447 7  20978921.586
 -10111002.51547  -7761607.48244  22735950.2274                   22735950.8484
 -22015177.51548 -17104053.24746  20694522.3674                   20694520.1054
 11  8  9  1 42 30.0000000  0  7G25G12G10G17G05G04G02
  -9353830.191 7  -7275661.729 7  22812959.695
 -20794371.911 8 -16185049.722 7  20825220.867
 -17748023.03047 -13783631.60845  21153382.3444                   21153382.5234
  -2986523.964 6  -2281383.157 6  24007354.891
 -19737110.214 8 -15337182.027 7  20966957.516
 -10028587.55447  -7697388.06844  22751633.1174                   22751634.6214
 -21998178.36548 -17090807.15846  20697756.9694                   20697754.8594
 11  8  9  1 43  0.0000000  0  7G25G12G10G17G05G04G02
  -9432122.123 7  -7336668.407 7  22798061.188
 -20814241.844 8 -16200532.791 7  20821439.508
 -17705802.59648 -13750732.58546  21161416.4844                   21161416.7974
  -2919058.989 6  -2228813.048 6  24020192.805
 -19799500.809 8 -15385798.034 7  20955084.914
  -9946143.57447  -7633146.02844  22767321.0004                   22767323.2854
 -21980965.88548 -17077394.83946  20701032.7034                   20701030.5664
 11  8  9  1 43 30.0000000  0  7G25G12G10G17G05G04G02
  -9510035.384 8  -7397380.030 7  22783234.977
 -20833545.401 8 -16215574.523 7  20817766.484
 -17663001.72047 -13717381.25245  21169561.3914                   21169561.5904
  -2851411.482 6  -2176100.740 6  24033066.641
 -19861408.422 8 -15434037.705 8  20943304.367
  -9863671.70147  -7568882.23044  22783015.1414                   22783016.6644
 -21963540.86348 -17063816.91546  20704348.5314                   20704346.5394
 11  8  9  1 44  0.0000000  0  7G25G12G10G17G05G04G02
  -9587566.906 7  -7457794.166 7  22768480.898
 -20852280.983 8 -16230173.668 7  20814200.969
 -17619621.58947 -13683578.54646  21177816.2974                   21177816.7194
  -2783580.734 6  -2123245.571 6  24045974.414
 -19922830.321 8 -15481898.892 7  20931616.109
  -9781172.66647  -7504597.25044  22798714.4224                   22798715.6954
 -21945903.82548 -17050073.76546  20707704.9454                   20707702.9774
 11  8  9  1 44 30.0000000  0  7G25G12G10G17G05G04G02
  -9664714.997 7  -7517909.546 7  22753800.125
 -20870448.260 8 -16244330.007 7  20810744.180
 -17575664.96647 -13649326.62845  21186180.6174                   21186181.2814
  -2715567.967 6  -2070248.651 6  24058915.719
 -19983766.004 8 -15529381.221 7  20920020.430
  -9698648.74847  -7440292.89744  22814417.7664                   22814418.5594
 -21928056.93648 -17036167.11046  20711101.0234                   20711098.4144
 11  8  9  1 45  0.0000000  0  7G25G12G10G17G05G04G02
  -9741476.592 7  -7577723.772 6  22739192.711
 -20888045.820 8 -16258042.386 7  20807395.359
 -17531132.76247 -13614626.22245  21194655.2274                   21194655.5274
  -2647371.935 6  -2017108.896 6  24071894.156
 -20044212.347 8 -15576482.228 7  20908517.828
  -9616100.41147  -7375969.51844  22830127.0394                   22830127.0354
 -21910000.73648 -17022097.33546  20714536.9694                   20714534.9104
 11  8  9  1 45 30.0000000  0  7G25G12G10G17G05G04G02
  -9817849.760 7  -7637235.325 6  22724659.367
 -20905073.785 8 -16271310.927 7  20804155.328
 -17486027.73147 -13579479.45245  21203238.6484                   21203238.8674
  -2578993.479 6  -1963826.974 6  24084905.734
 -20104168.295 8 -15623201.131 7  20897108.570
  -9533529.73447  -7311628.76944  22845839.7664                   22845840.1024
 -21891736.92848 -17007865.79646  20718012.5394                   20718010.0784
 11  8  9  1 46  0.0000000  0  7G25G12G10G17G05G04G02
  -9893831.236 7  -7696441.668 6  22710200.391
 -20921530.303 8 -16284134.194 7  20801023.328
 -17440350.68747 -13543886.95945  21211930.6174                   21211930.9064
  -2510431.669 6  -1910402.206 6  24097952.836
 -20163630.907 8 -15669535.600 7  20885793.430
  -9450937.03947  -7247270.82444  22861555.7894                   22861556.3014
 -21873265.88748 -16993472.78746  20721527.4844                   20721525.3324
 11  8  9  1 46 30.0000000  0  7G25G12G10G17G05G04G02
  -9969419.549 7  -7755341.651 6  22695816.797
 -20937415.376 8 -16296512.165 7  20798000.938
 -17394104.18147 -13507850.73245  21220731.0164                   21220731.1954
  -2441687.194 6  -1856835.091 6  24111035.586
 -20222599.365 8 -15715485.021 7  20874571.836
  -9368324.61247  -7182897.52044  22877276.3284                   22877277.1954
 -21854589.59648 -16978919.83546  20725081.1334                   20725079.2544
 11  8  9  1 47  0.0000000  0  7G25G12G10G17G05G04G02
 -10044611.609 7  -7813932.856 6  22681507.383
 -20952727.594 8 -16308443.766 8  20795086.711
 -17347289.47847 -13471371.74646  21229639.4144                   21229639.6764
  -2372759.913 6  -1803125.518 6  24124151.297
 -20281071.314 8 -15761047.555 7  20863445.164
  -9285692.96647  -7118509.21644  22893000.4224                   22893001.9344
 -21835708.66548 -16964207.42446  20728674.1174                   20728671.9734
 11  8  9  1 47 30.0000000  0  7G25G12G10G17G05G04G02
 -10119404.409 7  -7872212.969 6  22667275.508
 -20967465.939 8 -16319928.188 7  20792282.227
 -17299908.18047 -13434451.25146  21238656.0164                   21238656.4534
  -2303649.054 6  -1749272.937 6  24137302.258
 -20339044.000 8 -15806221.047 8  20852413.094
  -9203042.91047  -7054106.58244  22908728.7894                   22908729.9964
 -21816623.50648 -16949335.87446  20732305.9064                   20732303.8914
 11  8  9  1 48  0.0000000  0  7G25G12G10G17G05G04G02
 -10193796.333 7  -7930180.681 7  22653118.820
 -20981630.313 8 -16330965.360 7  20789586.914
 -17251962.78247 -13397091.21946  21247779.6644                   21247779.8754
  -2234355.426 6  -1695277.873 6  24150488.258
 -20396516.638 8 -15851004.896 7  20841476.625
  -9120376.45447  -6989691.16144  22924460.1884                   22924460.5944
 -21797336.36148 -16934306.92546  20735976.5394                   20735974.2154
 11  8  9  1 48 30.0000000  0  7G25G12G10G17G05G04G02
 -10267784.946 7  -7987834.113 7  22639039.609
 -20995220.120 8 -16341554.822 7  20787000.805
 -17203455.40547 -13359293.26045  21257009.8914                   21257010.1884
  -2164878.908 6  -1641140.364 5  24163708.773
 -20453487.120 8 -15895397.457 7  20830636.031
  -9037694.87447  -6925263.96544  22940193.1094                   22940194.5594
 -21777848.19748 -16919121.35046  20739684.9774                   20739682.7234
 11  8  9  1 49  0.0000000  0  7G25G12G10G17G05G04G02
 -10341367.799 7  -8045171.406 7  22625037.148
 -21008234.397 8 -16351695.813 7  20784524.508
 -17154387.89148 -13321058.84345  21266347.9064                   21266347.6994
  -2095219.248 6  -1586860.102 6  24176964.813
 -20509954.232 8 -15939397.778 7  20819890.234
  -8954999.28947  -6860825.85544  22955929.7584                   22955931.0474
 -21758160.19148 -16903780.04546  20743431.2504                   20743428.8444
 11  8  9  1 49 30.0000000  0  7G25G12G10G17G05G04G02
 -10414542.200 7  -8102190.388 7  22611112.781
 -21020672.238 8 -16361387.642 7  20782157.352
 -17104761.68747 -13282389.08245  21275790.8284                   21275791.1024
  -2025376.503 6  -1532437.207 6  24190255.430
 -20565915.508 8 -15983003.935 7  20809240.867
  -8872290.66947  -6796377.59644  22971669.1644                   22971670.1334
 -21738272.94948 -16888283.49746  20747215.6724                   20747213.5354
 11  8  9  1 50  0.0000000  0  7G25G12G10G17G05G04G02
 -10487304.988 7  -8158888.663 7  22597266.117
 -21032532.383 8 -16370629.310 7  20779900.516
 -17054577.86748 -13243284.81245  21285340.8754                   21285340.5474
  -1955350.228 7  -1477871.270 6  24203581.414
 -20621368.483 8 -16026214.015 8  20798688.555
  -8789569.39847  -6731919.47144  22987409.7504                   22987411.3914
 -21718186.87348 -16872632.00746  20751037.6884                   20751035.5704
 11  8  9  1 50 30.0000000  0  7G25G12G10G17G05G04G02
 -10559654.783 7  -8215265.095 7  22583498.469
 -21043814.874 8 -16379420.863 7  20777753.297
 -17003839.44947 -13203748.37445  21294996.1564                   21294996.6564
  -1885140.917 6  -1423162.745 6  24216941.672
 -20676312.334 8 -16069027.393 7  20788233.172
  -8706837.54546  -6667453.10844  23003153.1484                   23003154.5634
 -21697904.75448 -16856827.76346  20754897.7274                   20754895.3594
 11  8  9  1 51  0.0000000  0  7G25G12G10G17G05G04G02
 -10631588.313 7  -8271317.175 7  22569810.031
 -21054518.708 8 -16387761.513 7  20775716.453
 -16952547.79347 -13163780.85646  21304756.1024                   21304756.7384
  -1814747.943 6  -1368311.077 6  24230337.398
 -20730744.419 8 -16111441.976 7  20777874.617
  -8624095.62047  -6602978.86044  23018898.9064                   23018900.4494
 -21677426.03648 -16840870.31846  20758794.6724                   20758792.3134
 11  8  9  1 51 30.0000000  0  8G25G12G10G17G05G29G04G02
 -10703104.012 7  -8327043.664 7  22556200.633
 -21064643.962 8 -16395651.330 7  20773790.211
 -16900705.66247 -13123384.39745  21314621.1884                   21314621.4104
  -1744172.070 7  -1313316.915 6  24243767.797
 -20784663.816 8 -16153457.069 7  20767614.391
   -142857.476 6    -98790.214 6  24653660.383
  -8541345.53647  -6538498.25344  23034645.5634                   23034646.7034
 -21656752.66548 -16824761.19646  20762728.7274                   20762726.1844
 11  8  9  1 52  0.0000000  0  8G25G12G10G17G05G29G04G02
 -10774201.479 7  -8382444.271 7  22542671.188
 -21074191.870 8 -16403091.259 7  20771972.867
 -16848317.47047 -13082562.43445  21324590.7424                   21324591.1604
  -1673415.496 6  -1258181.900 5  24257231.703
 -20838070.798 8 -16195072.869 8  20757451.227
   -223065.869 6   -161290.247 6  24638397.188
  -8458590.26247  -6474013.64844  23050393.1724                   23050395.1804
 -21635888.01548 -16808503.02546  20766699.0634                   20766696.5394
 11  8  9  1 52 30.0000000  0  8G25G12G10G17G05G29G04G02
 -10844873.476 7  -8437513.330 7  22529222.867
 -21083157.175 8 -16410077.205 7  20770267.297
 -16795379.99347 -13041312.44745  21334664.7664                   21334664.8594
  -1602473.172 6  -1202902.185 6  24270731.594
 -20890959.079 8 -16236284.501 8  20747387.164
   -303342.832 6   -223843.739 6  24623120.797
  -8375826.29846  -6409522.26144  23066142.2814                   23066143.8134
 -21614828.30948 -16792092.85746  20770706.6334                   20770704.1334
 11  8  9  1 53  0.0000000  0  8G25G12G10G17G05G29G04G02
 -10915119.861 7  -8492250.732 7  22515855.953
 -21091541.663 8 -16416610.587 7  20768671.063
 -16741897.49347 -12999637.76945  21344841.4064                   21344842.1914
  -1531347.357 6  -1147479.503 6  24284266.547
 -20943329.203 8 -16277092.362 8  20737421.313
   -383690.125 6   -286451.931 6  24607830.727
  -8293056.50646  -6345026.33844  23081893.9304                   23081894.7074
 -21593576.68548 -16775533.14046  20774750.5234                   20774748.4224
 11  8  9  1 53 30.0000000  0  8G25G12G10G17G05G29G04G02
 -10984939.319 7  -8546655.479 7  22502568.547
 -21099345.866 8 -16422691.773 7  20767186.109
 -16687873.30347 -12957541.01245  21355121.7814                   21355122.3094
  -1460039.169 6  -1091914.675 6  24297835.633
 -20995180.329 8 -16317495.815 7  20727554.672
   -464108.214 6   -349115.368 6  24592528.383
  -8210283.33947  -6280527.76644  23097645.1724                   23097646.6024
 -21572135.29048 -16758825.55346  20778830.2194                   20778828.4924
 11  8  9  1 54  0.0000000  0  8G25G12G10G17G05G29G04G02
 -11054328.736 7  -8600725.147 7  22489364.875
 -21106568.625 8 -16428319.895 7  20765811.945
 -16633309.01347 -12915023.38245  21365505.2814                   21365505.9144
  -1388547.924 6  -1036207.258 6  24311440.438
 -21046510.384 8 -16357493.224 7  20717786.539
   -544595.908 6   -411833.026 6  24577211.938
  -8127507.21947  -6216026.91044  23113396.5394                   23113397.5864
 -21550504.48548 -16741970.38346  20782947.0704                   20782944.5204
 11  8  9  1 54 30.0000000  0  8G25G12G10G17G05G29G04G02
 -11123285.558 7  -8654457.719 7  22476242.867
 -21113208.597 8 -16433493.904 7  20764548.453
 -16578205.91647 -12872085.89445  21375991.3594                   21375991.0664
  -1316873.433 6   -980357.000 6  24325079.047
 -21097317.172 8 -16397082.908 7  20708118.477
   -625152.283 6   -474604.145 6  24561882.930
  -8044728.87447  -6151524.30744  23129148.6954                   23129150.3914
 -21528685.13148 -16724968.28046  20787099.0474                   20787096.8674
 11  8  9  1 55  0.0000000  0  8G25G12G10G17G05G29G04G02
 -11191807.453 7  -8707851.377 7  22463203.031
 -21119265.938 8 -16438213.902 7  20763395.914
 -16522566.39747 -12828730.42345  21386578.9844                   21386579.2704
  -1245015.827 6   -924364.121 6  24338753.648
 -21147599.236 8 -16436263.706 7  20698550.070
   -705776.752 6   -537428.345 6  24546539.750
  -7961949.26446  -6087020.71144  23144901.0004                   23144902.2584
 -21506678.27348 -16707820.06646  20791286.3984                   20791284.5744
 11  8  9  1 55 30.0000000  0  8G25G12G10G17G05G29G04G02
 -11259892.724 7  -8760904.810 7  22450247.242
 -21124741.236 7 -16442480.373 7  20762353.852
 -16466393.16947 -12784959.07445  21397268.4774                   21397268.7194
  -1172975.797 6   -868229.013 6  24352462.617
 -21197355.643 8 -16475034.907 8  20689081.703
   -786469.527 6   -600305.743 6  24531184.219
  -7879170.24546  -6022517.55644  23160652.9774                   23160655.1524
 -21484485.35648 -16690526.87046  20795509.5864                   20795507.2894
 11  8  9  1 56  0.0000000  0  8G25G12G10G17G05G29G04G02
 -11327538.854 7  -8813616.070 7  22437374.602
 -21129633.461 8 -16446292.487 7  20761422.852
 -16409688.32247 -12740773.46845  21408058.5864                   21408058.8984
  -1100753.121 6   -811951.659 6  24366205.867
 -21246584.719 8 -16513395.210 8  20679713.773
   -867229.810 6   -663235.755 6  24515816.016
  -7796392.56846  -5958015.49344  23176405.2114                   23176406.6024
 -21462107.44148 -16673089.52846  20799768.0084                   20799765.9574
 11  8  9  1 56 30.0000000  0  8G25G12G10G17G05G29G04G02
 -11394743.054 7  -8865982.964 7  22424585.813
 -21133941.842 8 -16449649.675 7  20760603.031
 -16352453.46347 -12696174.87745  21418950.7274                   21418950.8874
  -1028347.643 6   -755531.817 6  24379984.758
 -21295284.260 8 -16551342.875 8  20670446.320
   -948056.412 6   -726217.472 6  24500434.828
  -7713616.71647  -5893514.79143  23192156.8284                   23192158.3554
 -21439544.83248 -16655508.27746  20804061.9064                   20804059.7194
 11  8  9  1 57  0.0000000  0  8G25G12G10G17G05G29G04G02
 -11461503.280 7  -8918003.893 7  22411881.875
 -21137666.179 8 -16452551.758 7  20759893.930
 -16294690.91547 -12651165.08745  21429942.3284                   21429942.4384
   -955759.465 7   -698969.614 6  24393798.328
 -21343453.206 8 -16588877.091 8  20661280.258
  -1028949.206 7   -789250.796 6  24485041.797
  -7630843.95247  -5829016.51644  23207908.1954                   23207909.2034
 -21416799.27348 -16637784.45046  20808389.7814                   20808387.8164
 11  8  9  1 57 30.0000000  0  8G25G12G10G17G05G29G04G02
 -11527818.131 7  -8969677.776 7  22399262.703
 -21140807.047 7 -16454999.177 7  20759296.266
 -16236403.88647 -12605746.61945  21441034.0864                   21441034.4104
   -882989.600 6   -642265.866 6  24407644.563
 -21391091.022 8 -16625997.443 7  20652214.852
  -1109908.247 6   -852335.693 6  24469636.336
  -7548076.16947  -5764522.11444  23223658.4534                   23223659.2734
 -21393872.41248 -16619919.34546  20812752.2894                   20812750.9344
 11  8  9  1 58  0.0000000  0  8G25G12G10G17G05G29G04G02
 -11593684.004 8  -9021001.820 7  22386728.789
 -21143362.701 8 -16456990.599 7  20758810.180
 -16177593.07147 -12559920.01345  21452225.3204                   21452225.3914
   -810036.632 6   -585419.434 6  24421527.969
 -21438194.646 8 -16662701.545 8  20643251.234
  -1190931.624 6   -915470.730 6  24454217.828
  -7465312.93847  -5700031.27144  23239408.5554                   23239408.9304
 -21370763.90348 -16601912.70846  20817150.1724                   20817148.2664
 11  8  9  1 58 30.0000000  0  8G25G12G10G17G05G29G04G02
 -11659098.922 7  -9071974.458 7  22374280.609
 -21145333.500 8 -16458526.270 7  20758435.109
 -16118261.44248 -12513687.56445  21463515.6884                   21463515.9064
   -736901.141 6   -528430.764 6  24435444.867
 -21484762.939 8 -16698988.497 8  20634389.719
  -1272019.171 6   -978655.677 6  24438786.984
  -7382555.74547  -5635545.15244  23255155.6334                   23255156.9454
 -21347475.19648 -16583765.65946  20821581.6094                   20821579.9964
 11  8  9  1 59  0.0000000  0  8G25G12G10G17G05G29G04G02
 -11724061.371 7  -9122594.522 7  22361918.648
 -21146720.021 8 -16459606.674 7  20758171.211
 -16058411.88947 -12467051.54745  21474904.4844                   21474905.2114
   -663584.171 6   -471300.683 6  24449396.625
 -21530795.366 8 -16734857.904 8  20625630.234
  -1353170.707 6  -1041890.533 6  24423343.844
  -7299806.04847  -5571064.85144  23270902.1804                   23270903.9734
 -21324007.87948 -16565479.44746  20826047.3364                   20826045.5664
 11  8  9  1 59 30.0000000  0  8G25G12G10G17G05G29G04G02
 -11788567.820 7  -9172859.268 7  22349643.258
 -21147520.727 8 -16460230.594 7  20758018.969
 -15998045.11648 -12420012.50245  21486392.2664                   21486392.3594
   -590084.374 6   -414028.153 6  24463382.984
 -21576289.170 8 -16770307.595 8  20616972.930
  -1434384.511 6  -1105173.881 5  24407890.313
  -7217063.55047  -5506590.19944  23286648.2894                   23286649.3984
 -21300361.64448 -16547053.81046  20830547.1174                   20830544.6684
 11  8  9  2  0  0.0000000  0  8G25G12G10G17G05G29G04G02
 -11852617.393 7  -9222767.998 7  22337455.484
 -21147736.443 8 -16460398.686 7  20757977.898
 -15937165.03047 -12372573.46445  21497976.9844                   21497977.4024
   -516403.153 5   -356614.227 6  24477404.094
 -21621244.185 8 -16805337.460 8  20608418.023
  -1515661.081 6  -1168506.189 5  24392423.664
  -7134330.71446  -5442123.04944  23302391.4454                   23302393.0664
 -21276539.00148 -16528490.70946  20835080.3984                   20835078.4964
 11  8  9  2  0 30.0000000  0  8G25G12G10G17G05G29G04G02
 -11916208.302 7  -9272319.346 7  22325354.250
 -21147367.630 8 -16460111.294 7  20758048.125
 -15875774.17647 -12324736.42645  21509658.9614                   21509659.7664
   -442540.776 6   -299059.153 5  24491459.266
 -21665659.746 8 -16839946.969 8  20599966.219
  -1596999.968 7  -1231887.012 6  24376945.148
  -7051608.71146  -5377664.33544  23318132.6414                   23318134.3554
 -21252541.27548 -16509791.17946  20839646.8984                   20839644.9534
 11  8  9  2  1  0.0000000  0  8G25G12G10G17G05G29G04G02
 -11979337.400 8  -9321510.840 7  22313341.477
 -21146413.179 8 -16459367.553 7  20758229.500
 -15813874.02747 -12276502.54545  21521438.4384                   21521438.7544
   -368496.733 6   -241362.483 5  24505549.172
 -21709533.410 8 -16874134.223 8  20591617.086
  -1678399.860 6  -1295315.428 5  24361454.328
  -6968897.49847  -5313214.06144  23333872.2114                   23333873.9884
 -21228368.25048 -16490955.04946  20844247.0004                   20844245.0274
 11  8  9  2  1 30.0000000  0  7G25G12G10G05G29G04G02
 -12041997.016 8  -9370336.484 7  22301417.328
 -21144867.458 8 -16458163.108 7  20758524.367
 -15751461.06647 -12227869.06045  21533315.1724                   21533315.4614
 -21752858.280 8 -16907893.836 8  20583372.906
  -1759854.597 6  -1358786.576 6  24345953.508
  -6886192.63547  -5248768.71644  23349610.3134                   23349612.1724
 -21204015.70548 -16471979.03546  20848881.2424                   20848879.2034
 11  8  9  2  2  0.0000000  0  7G25G12G10G05G29G04G02
 -12104195.341 8  -9418802.689 7  22289581.492
 -21142740.919 8 -16456506.057 8  20758928.914
 -15688548.16247 -12178846.03445  21545287.3054                   21545287.4414
 -21795643.533 8 -16941232.980 8  20575230.828
  -1841373.600 6  -1422307.794 6  24330441.898
  -6803505.38747  -5184337.11144  23365345.0784                   23365346.8054
 -21179495.05848 -16452872.04346  20853547.3834                   20853545.4224
 11  8  9  2  2 30.0000000  0  7G25G12G10G05G29G04G02
 -12165925.790 8  -9466904.330 7  22277834.805
 -21140028.832 8 -16454392.741 7  20759444.414
 -15625133.60747 -12129432.10745  21557354.4534                   21557354.8594
 -21837883.612 8 -16974147.297 8  20567192.898
  -1922951.928 6  -1485875.203 6  24314918.047
  -6720832.08946  -5119916.39844  23381077.4534                   23381079.3204
 -21154802.72148 -16433631.25946  20858246.2664                   20858244.5354
 11  8  9  2  3  0.0000000  0  7G25G12G10G05G29G04G02
 -12227186.703 8  -9514640.082 7  22266177.188
 -21136731.923 8 -16451823.721 7  20760071.938
 -15561220.22447 -12079629.46645  21569517.0704                   21569517.3874
 -21879577.066 8 -17006635.692 8  20559258.828
  -2004589.090 6  -1549488.527 6  24299382.609
  -6638173.97647  -5055507.50544  23396806.9924                   23396808.4144
 -21129940.01248 -16414257.71846  20862977.3674                   20862975.7854
 11  8  9  2  3 30.0000000  0  7G25G12G10G05G29G04G02
 -12287974.473 8  -9562007.151 7  22254609.625
 -21132848.727 8 -16448797.854 7  20760810.875
 -15496808.92348 -12029438.83245  21581773.9144                   21581774.6484
 -21920721.920 8 -17038696.594 8  20551429.352
  -2086282.988 6  -1613146.030 6  24283836.555
  -6555530.78746  -4991110.22544  23412533.2344                   23412535.0634
 -21104906.46248 -16394751.05746  20867741.0784                   20867739.1414
 11  8  9  2  4  0.0000000  0  7G25G12G10G05G29G04G02
 -12348288.171 8  -9609004.814 7  22243131.977
 -21128379.724 8 -16445315.516 7  20761661.242
 -15431903.01747 -11978862.79445  21594124.9844                   21594125.6214
 -21961318.039 8 -17070329.918 8  20543704.164
  -2168034.237 6  -1676848.198 6  24268280.250
  -6472904.32246  -4926725.99943  23428255.9224                   23428257.9144
 -21079704.72848 -16375113.34246  20872536.6024                   20872534.7544
 11  8  9  2  4 30.0000000  0  7G25G12G10G05G29G04G02
 -12408124.695 8  -9655630.661 7  22231745.859
 -21123324.934 8 -16441376.733 7  20762623.148
 -15366503.85647 -11927902.41145  21606570.4304                   21606570.4774
 -22001363.046 8 -17101533.790 8  20536083.641
  -2249841.033 6  -1740593.656 6  24252712.695
  -6390294.47046  -4862354.68543  23443976.4064                   23443977.5274
 -21054334.07848 -16355343.99146  20877364.4224                   20877362.5744
 11  8  9  2  5  0.0000000  0  7G25G12G10G05G29G04G02
 -12467482.461 8  -9701883.457 7  22220450.188
 -21117684.729 8 -16436981.770 7  20763696.703
 -15300614.47747 -11876560.04045  21619108.2584                   21619109.1644
 -22040856.403 8 -17132307.820 8  20528568.453
  -2331702.884 6  -1804382.074 6  24237134.875
  -6307702.73046  -4797997.46743  23459693.5004                   23459694.1454
 -21028796.16748 -16335444.31046  20882224.5234                   20882222.4224
 11  8  9  2  5 30.0000000  0  7G25G12G10G05G29G04G02
 -12526360.795 7  -9747762.640 7  22209246.586
 -21111460.307 8 -16432131.572 7  20764880.766
 -15234238.88947 -11824838.80845  21631740.3984                   21631740.0124
 -22079798.176 8 -17162652.027 8  20521158.398
  -2413620.391 6  -1868213.806 6  24221546.953
  -6225130.97146  -4733655.87743  23475406.4224                   23475407.2074
 -21003093.10348 -16315415.94446  20887115.7424                   20887113.7384
 11  8  9  2  6  0.0000000  0  7G25G12G10G05G29G04G02
 -12584755.534 8  -9793265.035 7  22198133.758
 -21104649.969 8 -16426824.822 7  20766177.203
 -15167377.52048 -11772739.02945  21644462.9774                   21644462.9184
 -22118185.391 8 -17192564.119 8  20513853.039
  -2495590.941 7  -1932086.921 6  24205948.453
  -6142578.23646  -4669329.13043  23491115.7894                   23491117.5864
 -20977224.18648 -16295258.33746  20892038.1884                   20892036.0984
 11  8  9  2  6 30.0000000  0  7G25G12G10G05G29G04G02
 -12642666.898 7  -9838390.756 7  22187113.836
 -21097255.808 8 -16421063.155 7  20767583.922
 -15100034.82747 -11720264.20745  21657277.6884                   21657278.5944
 -22156019.204 8 -17222044.988 8  20506653.758
  -2577615.803 7  -1996002.357 6  24190339.813
  -6060047.76347  -4605019.70444  23506821.1724                   23506822.5004
 -20951192.45448 -16274973.87146  20896991.9534                   20896989.8014
 11  8  9  2  7  0.0000000  0  7G25G12G10G05G29G04G02
 -12700091.098 8  -9883136.846 7  22176186.078
 -21089276.437 8 -16414845.470 7  20769102.500
 -15032211.76247 -11667415.06245  21670183.8914                   21670184.5394
 -22193296.625 8 -17251092.310 8  20499560.055
  -2659692.629 7  -2059958.258 6  24174720.773
  -5977537.94547  -4540726.37843  23522522.3594                   23522523.6374
 -20924996.94748 -16254561.77646  20901976.7034                   20901974.8714
 11  8  9  2  7 30.0000000  0  7G25G12G10G05G29G04G02
 -12757026.436 8  -9927502.036 7  22165351.844
 -21080712.257 8 -16408172.100 7  20770731.766
 -14963910.93348 -11614193.62845  21683181.6484                   21683181.4534
 -22230017.140 8 -17279705.679 8  20492572.313
  -2741820.678 7  -2123954.150 6  24159091.688
  -5895050.38047  -4476450.34544  23538219.3204                   23538219.1134
 -20898638.95248 -16234023.07346  20906992.4774                   20906990.5204
 11  8  9  2  8  0.0000000  0  7G25G12G10G05G29G04G02
 -12813470.924 8  -9971484.744 7  22154610.859
 -21071563.655 8 -16401043.328 7  20772473.016
 -14895134.74447 -11560601.78345  21696269.0234                   21696269.0124
 -22266179.622 8 -17307884.215 8  20485690.906
  -2823999.097 6  -2187989.241 6  24143453.383
  -5812585.69647  -4412192.16044  23553911.7894                   23553912.4574
 -20872119.32448 -16213358.41746  20912038.9224                   20912036.8634
 11  8  9  2  8 30.0000000  0  7G25G12G10G05G29G04G02
 -12869422.598 8 -10015083.462 7  22143963.641
 -21061830.634 8 -16393459.160 7  20774325.258
 -14825885.93247 -11506641.66445  21709446.3754                   21709446.6174
 -22301782.956 8 -17335627.055 8  20478915.469
  -2906227.110 6  -2252063.014 6  24127805.781
  -5730144.72647  -4347952.42844  23569600.4144                   23569600.9344
 -20845439.09648 -16192568.61146  20917115.7894                   20917113.9884
 11  8  9  2  9  0.0000000  0  7G25G12G10G05G29G04G02
 -12924880.366 8 -10058297.302 7  22133410.117
 -21051514.569 8 -16385420.681 7  20776288.453
 -14756168.09047 -11452316.06545  21722713.3284                   21722713.7584
 -22336827.072 8 -17362934.129 8  20472247.117
  -2988504.844 6  -2316175.470 6  24112148.719
  -5647728.97847  -4283732.36744  23585283.1884                   23585284.1604
 -20818600.21448 -16171655.18146  20922223.6334                   20922221.2384
 11  8  9  2  9 30.0000000  0  7G25G12G10G05G29G04G02
 -12979840.799 8 -10101123.599 7  22122951.516
 -21040614.560 8 -16376927.171 7  20778362.117
 -14685982.01647 -11397625.61745  21736069.2194                   21736069.6684
 -22371309.878 8 -17389803.835 8  20465685.156
  -3070830.006 6  -2380324.891 6  24096482.938
  -5565337.79547  -4219531.45144  23600961.6804                   23600962.6644
 -20791601.67048 -16150617.35346  20927361.2114                   20927359.0394
 11  8  9  2 10  0.0000000  0  7G25G12G10G05G29G04G02
 -13034302.009 8 -10143560.914 7  22112588.211
 -21029130.690 8 -16367978.710 7  20780547.641
 -14615330.45147 -11342572.44645  21749513.9144                   21749514.1524
 -22405230.215 8 -17416235.244 8  20459229.891
  -3153201.819 6  -2444510.674 6  24080809.094
  -5482972.04547  -4155350.36844  23616634.8834                   23616636.5084
 -20764444.75748 -16129456.11746  20932528.8204                   20932526.2894
 11  8  9  2 10 30.0000000  0  7G25G12G10G05G29G04G02
 -13088263.278 8 -10185608.646 7  22102319.430
 -21017064.516 8 -16358576.513 7  20782843.781
 -14544217.31147 -11287159.61545  21763046.2814                   21763046.8484
 -22438588.280 8 -17442228.523 8  20452882.180
  -3235620.349 6  -2508732.845 6  24065125.563
  -5400633.67947  -4091190.59643  23632303.6024                   23632305.0594
 -20737131.29748 -16108172.88846  20937726.4454                   20937724.4184
 11  8  9  2 11  0.0000000  0  7G25G12G10G05G29G04G02
 -13141722.528 8 -10227265.191 7  22092146.438
 -21004415.653 8 -16348720.271 7  20785250.789
 -14472644.75447 -11231388.78745  21776666.0234                   21776666.1914
 -22471383.379 8 -17467783.129 8  20446641.875
  -3318084.610 6  -2572990.675 6  24049432.609
  -5318322.97546  -4027052.40143  23647965.6644                   23647968.2304
 -20709662.03448 -16086768.27546  20942953.0474                   20942951.2544
 11  8  9  2 11 30.0000000  0  7G25G12G10G05G29G04G02
 -13194678.213 7 -10268529.371 7  22082069.398
 -20991185.839 8 -16338411.341 7  20787768.594
 -14400615.73047 -11175262.28745  21790372.3984                   21790372.8404
 -22503614.654 8 -17492898.375 8  20440507.781
  -3400594.106 6  -2637283.729 6  24033731.109
  -5236041.01446  -3962936.60943  23663623.9224                   23663625.8714
 -20682038.23248 -16065243.23246  20948210.1414                   20948207.9924
 11  8  9  2 12  0.0000000  0  7G25G12G10G05G29G04G02
 -13247128.392 8 -10309399.638 7  22072088.617
 -20977375.307 8 -16327649.887 7  20790396.625
 -14328132.55847 -11118781.89945  21804165.8204                   21804165.9304
 -22535281.371 8 -17517573.725 8  20434482.070
  -3483147.725 6  -2701611.187 6  24018021.891
  -5153788.55147  -3898843.80043  23679276.3754                   23679278.2384
 -20654260.59948 -16043598.32646  20953495.9844                   20953493.8984
 11  8  9  2 12 30.0000000  0  7G25G12G10G05G29G04G02
 -13299070.318 8 -10349873.871 7  22062204.164
 -20962983.285 8 -16316435.327 7  20793135.188
 -14255196.97947 -11061948.97545  21818045.1804                   21818045.6334
 -22566381.655 8 -17541807.704 8  20428564.438
  -3565743.899 6  -2765971.826 6  24002304.141
  -5071565.30946  -3834773.75843  23694922.7584                   23694924.3284
 -20626329.31048 -16021833.68146  20958811.1804                   20958808.8714
 11  8  9  2 13  0.0000000  0  7G25G12G10G05G29G04G02
 -13350503.194 8 -10389951.427 7  22052417.352
 -20948011.215 8 -16304768.787 7  20795984.148
 -14181812.69847 -11004766.41845  21832009.2194                   21832009.7814
 -22596915.942 8 -17565600.630 8  20422753.523
  -3648382.245 7  -2830365.337 6  23986578.734
  -4989373.20146  -3770727.95343  23710563.1484                   23710564.6954
 -20598246.25548 -15999950.76646  20964155.0164                   20964152.9654
 11  8  9  2 13 30.0000000  0  7G25G12G10G05G29G04G02
 -13401425.425 8 -10429631.086 7  22042726.563
 -20932460.071 8 -16292651.019 7  20798943.531
 -14107983.01847 -10947236.79945  21846058.7194                   21846059.3484
 -22626883.402 8 -17588951.881 8  20417050.977
  -3731062.255 6  -2894791.282 6  23970845.086
  -4907213.12046  -3706707.12343  23726198.1644                   23726199.1954
 -20570012.35948 -15977950.32746  20969527.5944                   20969525.4924
 11  8  9  2 14  0.0000000  0  7G25G12G10G05G29G04G02
 -13451832.966 8 -10468909.670 7  22033134.430
 -20916327.990 8 -16280080.565 7  20802013.430
 -14033707.93147 -10889360.09945  21860192.5084                   21860193.0084
 -22656281.432 8 -17611859.418 8  20411456.523
  -3813780.982 7  -2959247.379 6  23955104.586
  -4825083.27446  -3642709.86643  23741826.4844                   23741827.3834
 -20541626.01848 -15955831.10046  20974929.8284                   20974927.8404
 11  8  9  2 14 30.0000000  0  7G25G12G10G05G29G04G02
 -13501726.664 8 -10507787.866 7  22023640.352
 -20899618.368 8 -16267060.080 7  20805193.398
 -13958992.81447 -10831140.53745  21874411.1334                   21874411.1954
 -22685111.938 8 -17634324.729 8  20405970.391
  -3896540.032 7  -3023734.943 6  23939355.938
  -4742986.87346  -3578738.67543  23757449.4064                   23757451.1804
 -20513090.89248 -15933595.93246  20980359.6094                   20980357.5864
 11  8  9  2 15  0.0000000  0  7G25G12G10G05G29G04G02
 -13551103.874 8 -10546263.596 7  22014243.875
 -20882330.443 8 -16253588.981 7  20808483.023
 -13883839.21247 -10772579.28645  21888712.4224                   21888712.5664
 -22713373.262 8 -17656346.520 8  20400592.344
  -3979337.491 7  -3088252.375 6  23923599.734
  -4660923.73747  -3514793.34643  23773066.0234                   23773066.6024
 -20484406.95248 -15911244.79346  20985818.1484                   20985816.0354
 11  8  9  2 15 30.0000000  0  7G25G12G10G05G29G04G02
 -13599963.981 8 -10584336.404 7  22004945.914
 -20864466.270 8 -16239668.847 7  20811882.305
 -13808251.14247 -10713679.49245  21903095.8674                   21903096.6804
 -22741065.742 8 -17677925.056 8  20395322.641
  -4062173.325 6  -3152799.804 6  23907836.961
  -4578895.67247  -3450875.37043  23788675.1414                   23788676.6294
 -20455576.33348 -15888779.37046  20991304.1804                   20991302.0474
 11  8  9  2 16  0.0000000  0  7G25G12G10G05G29G04G02
 -13648303.281 8 -10622003.361 7  21995747.320
 -20846024.772 8 -16225298.843 7  20815391.680
 -13732229.35247 -10654441.73145  21917562.7584                   21917562.9144
 -22768186.896 8 -17699058.403 8  20390161.883
  -4145044.954 6  -3217375.032 6  23892066.656
  -4496901.29547  -3386983.67643  23804278.1954                   23804279.1214
 -20426597.51948 -15866198.46946  20996818.2504                   20996816.7344
 11  8  9  2 16 30.0000000  0  7G25G12G10G05G29G04G02
 -13696122.419 8 -10659264.981 7  21986647.977
 -20827008.543 8 -16210481.004 7  20819010.438
 -13655778.67147 -10594869.75545  21932110.3754                   21932110.5234
 -22794738.308 8 -17719747.802 8  20385109.047
  -4227953.259 6  -3281978.917 6  23876290.250
  -4414943.54647  -3323120.49743  23819874.5474                   23819874.5474
 -20397473.99948 -15843504.82146  21002361.1024                   21002358.8204
 11  8  9  2 17  0.0000000  0  7G25G12G10G05G29G04G02
 -13743416.793 8 -10696117.724 7  21977647.656
 -20807415.516 8 -16195213.714 7  20822739.055
 -13578899.06347 -10534963.58045  21946740.2274                   21946740.8524
 -22820716.617 8 -17739990.625 8  20380165.750
  -4310894.591 6  -3346608.466 6  23860506.461
  -4333020.24847  -3259284.16243  23835463.5314                   23835464.5904
 -20368203.15248 -15820696.35646  21007931.2274                   21007928.7894
 11  8  9  2 17 30.0000000  0  7G25G12G10G05G29G04G02
 -13790186.581 8 -10732561.656 7  21968747.680
 -20787248.252 8 -16179498.965 7  20826576.352
 -13501594.97847 -10474726.64045  21961450.6334                   21961450.9774
 -22846123.142 8 -17759787.903 8  20375331.023
  -4393869.761 7  -3411264.430 6  23844717.078
  -4251133.60747  -3195476.39243  23851046.5164                   23851048.0204
 -20338787.87748 -15797775.34946  21013528.4064                   21013526.5354
 11  8  9  2 18  0.0000000  0  7G25G12G10G05G29G04G02
 -13836430.017 8 -10768595.475 7  21959947.813
 -20766507.392 8 -16163337.254 7  20830523.266
 -13423868.92147 -10414160.87145  21976241.3594                   21976241.9964
 -22870957.298 8 -17779139.181 8  20370604.977
  -4476877.296 7  -3475945.561 6  23828920.367
  -4169284.17646  -3131697.60143  23866621.9844                   23866622.1294
 -20309229.00948 -15774742.45546  21019153.2114                   21019151.4384
 11  8  9  2 18 30.0000000  0  7G25G12G10G05G29G04G02
 -13882145.155 8 -10804217.619 7  21951248.641
 -20745192.999 8 -16146728.636 7  20834579.609
 -13345723.46547 -10353268.30545  21991112.0164                   21991112.6484
 -22895217.995 8 -17798043.603 8  20365988.359
  -4559915.944 6  -3540650.980 6  23813119.430
  -4087472.18847  -3067947.99943  23882189.7114                   23882191.2304
 -20279526.88448 -15751597.93746  21024805.6334                   21024803.7774
 11  8  9  2 19  0.0000000  0  7G25G12G10G05G29G04G02
 -13927329.620 8 -10839426.256 7  21942650.461
 -20723305.739 8 -16129673.618 7  20838744.711
 -13267160.34247 -10292050.28845  22006062.0554                   22006062.7424
 -22918904.031 8 -17816500.241 8  20361481.047
  -4642984.104 7  -3605379.351 6  23797312.109
  -4005697.52546  -3004227.49143  23897751.6644                   23897752.3524
 -20249681.33648 -15728341.64746  21030484.6884                   21030482.9024
 11  8  9  2 19 30.0000000  0  7G25G12G10G05G29G04G02
 -13971983.558 8 -10874221.492 7  21934152.758
 -20700848.064 8 -16112174.128 7  20843018.063
 -13188183.92947 -10230510.22745  22021090.5474                   22021090.3054
 -22942016.698 8 -17834510.095 8  20357083.031
  -4726082.361 7  -3670131.217 6  23781499.148
  -3923962.37246  -2940537.79543  23913303.5084                   23913305.7194
 -20219695.08348 -15704975.73546  21036191.0784                   21036189.3484
 11  8  9  2 20  0.0000000  0  7G25G12G10G05G29G04G02
 -14016105.332 8 -10908602.053 7  21925756.922
 -20677820.183 8 -16094230.329 7  20847400.141
 -13108797.17247 -10168650.41145  22036197.8364                   22036197.3754
 -22964555.406 8 -17852072.705 8  20352793.734
  -4809209.563 7  -3734905.601 6  23765680.594
  -3842267.38646  -2876879.39943  23928851.0394                   23928851.7854
 -20189569.01348 -15681500.87146  21041923.7504                   21041921.8714
 11  8  9  2 20 30.0000000  0  7G25G12G10G05G29G04G02
 -14059693.567 8 -10942566.882 7  21917461.922
 -20654223.485 8 -16075843.282 7  20851890.344
 -13029002.95647 -10106473.09145  22051381.7814                   22051382.0664
 -22986520.027 8 -17869187.982 8  20348614.078
  -4892364.911 7  -3799701.944 6  23749856.734
  -3760612.88146  -2813252.55143  23944388.8284                   23944390.0124
 -20159303.80848 -15657917.58746  21047682.7894                   21047681.1094
 11  8  9  2 21  0.0000000  0  7G25G12G10G05G29G04G02
 -14102745.159 8 -10976113.541 7  21909269.813
 -20630057.618 8 -16057012.738 7  20856488.688
 -12948802.22247 -10043978.99745  22066643.5554                   22066643.6914
 -23007908.916 8 -17885854.629 8  20344543.883
  -4975545.763 7  -3864518.145 6  23734027.898
  -3678998.15146  -2749656.65143  23959920.4304                   23959921.5164
 -20128898.40948 -15634225.06846  21053468.8834                   21053467.1054
 11  8  9  2 21 30.0000000  0  7G25G12G10G05G29G04G02
 -14145258.730 8 -11009240.981 7  21901179.578
 -20605323.131 8 -16037739.112 7  20861195.305
 -12868198.17947  -9981170.63144  22081981.5084                   22081981.9654
 -23028721.508 8 -17902072.217 8  20340583.828
  -5058750.860 7  -3929353.227 6  23718193.906
  -3597423.88846  -2686092.28243  23975442.9774                   23975443.5314
 -20098353.96748 -15610424.20046  21059281.5474                   21059279.6604
 11  8  9  2 22  0.0000000  0  7G25G12G10G05G29G04G02
 -14187233.627 8 -11041948.656 7  21893191.977
 -20580022.266 8 -16018024.152 7  20866010.555
 -12787194.47247  -9918050.87645  22097396.0234                   22097396.9804
 -23048958.275 8 -17917841.103 8  20336732.734
  -5141980.027 7  -3994207.038 6  23702355.938
  -3515891.30246  -2622560.40043  23990958.1024                   23990959.4264
 -20067672.03048 -15586516.17746  21065120.2424                   21065118.0474
 11  8  9  2 22 30.0000000  0  7G25G12G10G05G29G04G02
 -14228668.549 8 -11074235.587 7  21885307.180
 -20554155.785 8 -15997868.459 7  20870932.813
 -12705793.69847  -9854621.70845  22112886.6564                   22112886.8554
 -23068619.272 8 -17933161.351 8  20332991.367
  -5225232.249 7  -4059078.852 6  23686513.891
  -3434401.02046  -2559061.51843  24006465.0394                   24006466.5904
 -20036853.33348 -15562501.60146  21070984.6954                   21070982.4614
 11  8  9  2 23  0.0000000  0  7G25G12G10G05G29G04G02
 -14269562.700 8 -11106101.130 7  21877525.430
 -20527725.308 8 -15977273.277 7  20875962.172
 -12623999.38347  -9790885.87545  22128451.1884                   22128451.9734
 -23087704.624 8 -17948033.034 8  20329359.398
  -5308507.056 7  -4123968.278 6  23670666.797
  -3352954.14646  -2495596.42143  24021964.2664                   24021964.8244
 -20005899.26948 -15538381.55146  21076875.1884                   21076872.7504
 11  8  9  2 23 30.0000000  0  7G25G12G10G05G29G04G02
 -14309913.807 8 -11137543.535 7  21869846.234
 -20500731.102 7 -15956238.836 7  20881099.031
 -12541813.38747  -9726844.84045  22144091.2734                   22144091.7664
 -23106213.339 8 -17962455.394 8  20325837.586
  -5391802.495 7  -4188873.815 6  23654816.586
  -3271550.39246  -2432164.94043  24037454.6644                   24037456.3794
 -19974809.93548 -15514156.08946  21082791.3134                   21082789.0824
 11  8  9  2 24  0.0000000  0  7G25G12G10G05G29G04G02
 -14349720.700 8 -11168561.868 7  21862271.984
 -20473174.540 8 -15934766.201 7  20886343.352
 -12459238.81747  -9662501.02745  22159804.5314                   22159804.7274
 -23124145.317 8 -17976428.344 8  20322424.844
  -5475117.869 7  -4253794.892 6  23638961.961
  -3190190.42546  -2368767.58943  24052937.0554                   24052938.4494
 -19943586.16348 -15489825.87546  21088732.6484                   21088730.8954
 11  8  9  2 24 30.0000000  0  7G25G12G10G05G29G04G02
 -14388981.927 8 -11199155.017 7  21854800.609
 -20445056.402 8 -15912855.962 7  20891693.570
 -12376278.23747  -9597856.42245  22175591.1254                   22175592.2704
 -23141500.518 8 -17989951.853 8  20319122.266
  -5558451.550 7  -4318730.194 6  23623103.992
  -3108874.65846  -2305404.66143  24068410.9454                   24068411.5394
 -19912228.55748 -15465391.37246  21094699.8984                   21094697.6764
 11  8  9  2 25  0.0000000  0  7G25G12G10G05G29G04G02
 -14427696.442 8 -11229322.143 7  21847433.422
 -20416378.186 8 -15890509.302 7  20897150.719
 -12292935.14347  -9532913.73845  22191450.8444                   22191451.1994
 -23158278.832 8 -18003025.862 8  20315929.344
  -5641802.942 7  -4383679.290 6  23607242.820
  -3027603.91746  -2242076.81443  24083876.0084                   24083877.5554
 -19880738.34948 -15440853.54746  21100692.5784                   21100690.0354
 11  8  9  2 25 30.0000000  0  7G25G12G10G05G29G04G02
 -14465863.035 8 -11259062.329 7  21840170.289
 -20387141.199 8 -15867727.243 7  20902714.664
 -12209212.26647  -9467675.12745  22207383.0004                   22207383.4494
 -23174480.300 8 -18015650.348 8  20312846.281
  -5725170.849 7  -4448641.295 6  23591378.672
  -2946378.83146  -2178784.53343  24099332.4924                   24099334.3054
 -19849115.97448 -15416212.72346  21106709.7274                   21106707.3674
 11  8  9  2 26  0.0000000  0  7G25G12G10G05G29G04G02
 -14503478.840 8 -11288373.328 7  21833012.391
 -20357345.198 8 -15844509.583 7  20908384.695
 -12125110.64047  -9402141.37045  22223387.3364                   22223386.8984
 -23190103.315 8 -18027824.115 8  20309873.375
  -5808552.491 7  -4513613.946 6  23575511.656
  -2865198.02846  -2115526.77943  24114781.1024                   24114783.1294
 -19817360.70748 -15391468.35646  21112752.7734                   21112750.4614
 11  8  9  2 26 30.0000000  0  7G25G12G10G05G29G04G02
 -14540543.834 8 -11317255.130 7  21825959.305
 -20326992.061 7 -15820857.787 7  20914160.344
 -12040634.46047  -9336315.76045  22239461.7584                   22239461.8364
 -23205148.860 8 -18039547.897 8  20307010.391
  -5891948.112 7  -4578597.491 6  23559641.859
  -2784063.40446  -2052305.01243  24130219.3984                   24130221.5744
 -19785474.52047 -15366621.96846  21118820.3054                   21118818.1054
 11  8  9  2 27  0.0000000  0  7G25G12G10G05G29G04G02
 -14577057.468 8 -11345707.299 7  21819010.789
 -20296084.184 8 -15796773.728 7  20920041.961
 -11955787.22847  -9270201.05145  22255607.9384                   22255608.4884
 -23219617.693 8 -18050822.286 8  20304256.875
  -5975357.146 7  -4643591.466 6  23543769.492
  -2702976.16946  -1989120.17443  24145650.2664                   24145651.9224
 -19753459.09448 -15341674.88246  21124912.6644                   21124910.4884
 11  8  9  2 27 30.0000000  0  7G25G12G10G05G29G04G02
 -14613017.849 8 -11373728.361 7  21812167.672
 -20264621.910 8 -15772257.673 7  20926029.180
 -11870571.33047  -9203799.07645  22271824.0634                   22271824.9884
 -23233509.196 8 -18061646.807 8  20301613.477
  -6058777.638 7  -4708594.370 6  23527894.609
  -2621936.04246  -1925972.05643  24161071.8054                   24161074.2344
 -19721314.04448 -15316626.77746  21131029.6414                   21131027.3874
 11  8  9  2 28  0.0000000  0  7G25G12G10G05G29G04G02
 -14648423.347 8 -11401317.049 7  21805430.563
 -20232606.211 7 -15747310.374 7  20932121.719
 -11784989.32547  -9137111.81844  22288110.1094                   22288110.2774
 -23246822.746 8 -18072020.979 8  20299079.891
  -6142207.872 7  -4773604.891 6  23512018.219
  -2540942.90546  -1862860.53143  24176484.3984                   24176485.8714
 -19689039.51248 -15291477.79346  21137171.0314                   21137169.3914
 11  8  9  2 28 30.0000000  0  7G25G12G10G05G29G04G02
 -14683273.791 8 -11428473.224 7  21798798.828
 -20200039.113 8 -15721933.421 7  20938318.711
 -11699044.82747  -9070142.06344  22304464.2274                   22304464.9384
 -23259559.287 8 -18081945.527 8  20296656.109
  -6225647.513 7  -4838622.736 6  23496140.539
  -2459998.18746  -1799786.71843  24191888.3204                   24191889.0554
 -19656637.46048 -15266229.43846  21143336.7894                   21143334.8444
 11  8  9  2 29  0.0000000  0  7G25G12G10G05G29G04G02
 -14717568.056 8 -11455196.011 7  21792272.422
 -20166922.357 8 -15696128.154 7  20944620.867
 -11612740.46947  -9002891.91044  22320887.2974                   22320887.3094
 -23271719.365 8 -18091420.895 8  20294342.281
  -6309095.592 7  -4903647.206 6  23480260.828
  -2379102.22746  -1736750.89843  24207281.8134                   24207283.1954
 -19624108.54647 -15240882.23446  21149527.1334                   21149525.3754
 11  8  9  2 29 30.0000000  0  7G25G12G10G05G29G04G02
 -14751302.843 8 -11481482.855 7  21785853.328
 -20133255.187 8 -15669894.003 7  20951027.547
 -11526077.15647  -8935362.06244  22337378.7584                   22337379.7424
 -23283300.679 8 -18100445.271 8  20292138.414
  -6392549.138 7  -4968675.907 6  23464380.406
  -2298253.66446  -1673752.09143  24222666.7894                   24222668.0434
 -19591451.26348 -15215434.99746  21155741.5084                   21155739.6374
 11  8  9  2 30  0.0000000  0  7G25G12G10G05G29G04G02
 -14784478.605 8 -11507334.092 7  21779539.883
 -20099040.147 7 -15643232.935 7  20957538.219
 -11439059.31247  -8867555.95345  22353938.2034                   22353938.1994
 -23294304.646 8 -18109019.766 8  20290044.078
  -6476007.672 6  -5033708.504 6  23448498.500
  -2217454.22846  -1610791.51243  24238042.2504                   24238043.8594
 -19558667.84147 -15189889.47446  21161980.0784                   21161978.1564
 11  8  9  2 30 30.0000000  0  7G25G12G10G05G29G04G02
 -14817095.529 8 -11532749.881 7  21773333.500
 -20064279.949 8 -15616147.071 7  20964152.742
 -11351691.05447  -8799476.80144  22370564.0944                   22370564.4414
 -23304732.953 8 -18117145.701 8  20288059.750
  -6559471.463 7  -5098745.184 6  23432615.773
  -2136705.53346  -1547870.46843  24253408.7814                   24253410.5004
 -19525760.09748 -15164247.07646  21168242.0704                   21168240.3444
 11  8  9  2 31  0.0000000  0  7G25G12G10G05G29G04G02
 -14849150.555 8 -11557727.798 7  21767233.016
 -20028974.107 8 -15588636.032 7  20970871.766
 -11263973.53447  -8731125.52444  22387255.9454                   22387256.1684
 -23314583.528 8 -18124821.447 8  20286185.367
  -6642937.467 7  -5163783.590 6  23416732.109
  -2056005.95246  -1484987.68943  24268765.1334                   24268766.6374
 -19492726.84848 -15138506.88146  21174528.4844                   21174526.2734
 11  8  9  2 31 30.0000000  0  7G25G12G10G05G29G04G02
 -14880643.957 8 -11582268.113 7  21761240.391
 -19993125.142 8 -15560701.791 7  20977693.328
 -11175910.62847  -8662505.08544  22404013.5394                   22404014.0944
 -23323858.009 8 -18132048.301 8  20284420.602
  -6726405.598 6  -5228823.660 6  23400848.969
  -1975357.19346  -1422144.50743  24284112.3594                   24284113.6214
 -19459570.05448 -15112670.41546  21180838.0234                   21180836.0084
 11  8  9  2 32  0.0000000  0  7G25G12G10G05G29G04G02
 -14911574.418 8 -11606369.752 7  21755354.156
 -19956734.165 8 -15532345.185 7  20984618.109
 -11087504.88547  -8593617.48944  22420836.5784                   22420836.9844
 -23332555.951 8 -18138825.893 8  20282765.375
  -6809874.268 7  -5293864.156 6  23384965.523
  -1894759.40546  -1359341.03943  24299449.3834                   24299450.5704
 -19426289.78347 -15086737.73846  21187171.3204                   21187168.7034
 11  8  9  2 32 30.0000000  0  8G25G12G10G26G05G29G04G02
 -14941940.253 8 -11630031.424 7  21749575.570
 -19919802.078 8 -15503566.949 7  20991646.227
 -10998758.54547  -8524464.49244  22437724.4224                   22437724.9654
   -673203.45446   -461324.49443  24813206.9454                   24813208.7384
 -23340677.097 8 -18145154.042 8  20281220.016
  -6893341.430 6  -5358903.440 6  23369082.648
  -1814212.17046  -1296576.94543  24314777.6094                   24314778.1294
 -19392885.98348 -15060708.80446  21193527.3284                   21193525.0704
 11  8  9  2 33  0.0000000  0  8G25G12G10G26G05G29G04G02
 -14971742.722 8 -11653254.126 7  21743904.727
 -19882332.917 8 -15474370.200 7  20998776.242
 -10909676.65147  -8455050.02344  22454676.1484                   22454676.2894
   -767530.17946   -534825.71842  24795257.2274                   24795260.1454
 -23348224.183 8 -18151034.874 8  20279783.938
  -6976808.224 7  -5423942.459 6  23353198.844
  -1733718.14646  -1233854.38443  24330095.2274                   24330096.2664
 -19359361.62847 -15034585.92846  21199906.8834                   21199904.8914
 11  8  9  2 33 30.0000000  0  8G25G12G10G26G05G29G04G02
 -15000976.834 8 -11676033.954 7  21738341.445
 -19844323.739 8 -15444752.672 7  21006008.953
 -10820257.94647  -8385373.11344  22471692.2504                   22471691.6994
   -861977.69446   -608421.12242  24777283.8834                   24777286.9144
 -23355193.274 8 -18156465.312 8  20278457.766
  -7060268.858 7  -5488976.696 6  23337316.648
  -1653273.47346  -1171170.19343  24345402.2734                   24345404.2114
 -19325713.30548 -15008366.46246  21206309.9304                   21206307.6254
 11  8  9  2 34  0.0000000  0  8G25G12G10G26G05G29G04G02
 -15029644.478 8 -11698372.368 7  21732886.102
 -19805779.262 8 -15414718.019 7  21013344.070
 -10730508.33247  -8315438.34744  22488770.6174                   22488770.5904
   -956545.83446   -682110.49543  24759288.3204                   24759291.3204
 -23361587.252 8 -18161447.614 8  20277241.008
  -7143724.763 6  -5554007.215 6  23321435.875
  -1572881.40746  -1108527.05943  24360700.4694                   24360701.8794
 -19291944.51147 -14982053.11246  21212736.3674                   21212733.7854
 11  8  9  2 34 30.0000000  0  8G25G12G10G26G05G29G04G02
 -15057744.668 7 -11720268.620 7  21727538.859
 -19766700.814 8 -15384267.293 7  21020780.555
 -10640430.88047  -8245248.11944  22505911.7894                   22505911.9924
  -1051231.57046   -755891.44343  24741270.9384                   24741273.0124
 -23367406.631 8 -18165982.179 8  20276133.445
  -7227174.775 6  -5619033.163 6  23305556.125
  -1492542.19146  -1045925.12943  24375989.2344                   24375990.1134
 -19258055.44648 -14955646.05246  21219184.6254                   21219182.5824
 11  8  9  2 35  0.0000000  0  8G25G12G10G26G05G29G04G02
 -15085275.634 8 -11741721.304 7  21722300.453
 -19727088.969 8 -15353400.927 7  21028318.219
 -10550027.23947  -8174803.74544  22523115.1564                   22523115.5944
  -1146031.36246   -829761.27843  24723230.4454                   24723232.8794
 -23372650.576 8 -18170068.357 8  20275135.734
  -7310616.683 6  -5684052.793 6  23289677.750
  -1412255.38846   -983363.97043  24391266.6564                   24391268.3754
 -19224045.98347 -14929145.17246  21225656.9144                   21225654.2034
 11  8  9  2 35 30.0000000  0  8G25G12G10G26G05G29G04G02
 -15112237.035 8 -11762730.168 7  21717169.648
 -19686945.757 8 -15322120.515 7  21035957.203
 -10459300.77947  -8104107.81844  22540379.8984                   22540380.1134
  -1240942.46446   -903717.90443  24705169.9064                   24705171.9534
 -23377320.155 8 -18173706.977 8  20274246.797
  -7394049.540 6  -5749065.364 6  23273801.250
  -1332021.29246   -920843.92843  24406535.6724                   24406536.1024
 -19189917.33948 -14902551.41746  21232151.4144                   21232149.0664
 11  8  9  2 36  0.0000000  0  8G25G12G10G26G05G29G04G02
 -15138628.764 8 -11783295.145 7  21712147.398
 -19646273.711 8 -15290428.022 7  21043697.242
 -10368255.07346  -8033163.13744  22557705.0234                   22557705.6604
  -1335962.89746   -977759.72643  24687087.8054                   24687090.2464
 -23381416.682 8 -18176899.056 8  20273467.641
  -7477472.714 6  -5814070.377 6  23257925.688
  -1251841.36346   -858366.07643  24421792.9384                   24421793.9384
 -19155670.79948 -14875865.79246  21238668.0554                   21238665.8554
 11  8  9  2 36 30.0000000  0  8G25G12G10G26G05G29G04G02
 -15164449.010 8 -11803414.815 7  21707233.609
 -19605073.460 8 -15258323.935 7  21051537.219
 -10276891.77547  -7961970.97744  22575090.8134                   22575091.4844
  -1431088.59046  -1051883.50243  24668986.0164                   24668988.8054
 -23384939.123 8 -18179643.800 8  20272796.984
  -7560883.854 7  -5879066.026 6  23242053.820
  -1171714.84147   -795929.84143  24437040.7584                   24437041.8404
 -19121305.73748 -14849087.82246  21245207.3444                   21245205.0944
 11  8  9  2 37  0.0000000  0  8G25G12G10G26G05G29G04G02
 -15189697.053 8 -11823088.598 7  21702429.500
 -19563346.509 8 -15225809.433 7  21059477.461
 -10185214.31947  -7890534.01944  22592537.3674                   22592537.0394
  -1526316.69546  -1126087.15543  24650864.6254                   24650867.1914
 -23387887.938 8 -18181941.562 8  20272235.961
  -7644281.423 7  -5944051.057 6  23226182.516
  -1091641.88246   -733535.29643  24452277.5554                   24452279.5204
 -19086822.50448 -14822217.77746  21251769.5394                   21251767.6174
 11  8  9  2 37 30.0000000  0  8G25G12G10G26G05G29G04G02
 -15214372.516 8 -11842316.214 7  21697733.906
 -19521095.175 8 -15192886.324 7  21067517.578
 -10093225.81947  -7818854.67744  22610042.3754                   22610041.7704
  -1621644.51646  -1200368.44843  24632724.3754                   24632726.7664
 -23390264.627 8 -18183793.515 8  20271783.742
  -7727664.514 7  -6009024.839 7  23210315.273
  -1011623.47746   -671183.29643  24467503.9924                   24467506.0554
 -19052222.47148 -14795256.70546  21258353.5944                   21258351.9694
 11  8  9  2 38  0.0000000  0  8G25G12G10G26G05G29G04G02
 -15238474.249 8 -11861096.774 7  21693147.477
 -19478320.665 8 -15159555.551 7  21075657.383
 -10000928.86947  -7746934.95244  22627605.2424                   22627605.1604
  -1717068.62546  -1274724.76043  24614564.8364                   24614568.0164
 -23392068.640 8 -18185199.219 8  20271440.094
  -7811031.364 7  -6073985.966 6  23194451.930
   -931659.10046   -608873.44743  24482721.7584                   24482723.3484
 -19017505.75848 -14768204.70946  21264960.4924                   21264958.2704
 11  8  9  2 38 30.0000000  0  8G25G12G10G26G05G29G04G02
 -15262002.268 8 -11879430.276 7  21688670.109
 -19435025.155 8 -15125818.796 7  21083896.109
  -9908326.75847  -7674777.46944  22645226.6024                   22645227.1954
  -1812586.82546  -1349154.42643  24596388.8914                   24596391.6024
 -23393301.346 8 -18186159.751 8  20271205.805
  -7894381.313 7  -6138933.932 6  23178590.063
   -851749.97246   -546606.56443  24497927.4844                   24497928.8444
 -18982673.34048 -14741062.55746  21271588.4304                   21271586.1484
 11  8  9  2 39  0.0000000  0  8G25G12G10G26G05G29G04G02
 -15284955.241 8 -11897315.704 7  21684302.625
 -19391210.298 8 -15091677.359 7  21092233.984
  -9815421.88347  -7602384.07844  22662906.3364                   22662906.9104
  -1908195.46446  -1423654.54143  24578195.0314                   24578197.2704
 -23393962.662 8 -18186675.046 8  20271079.930
  -7977711.973 7  -6203866.847 6  23162733.297
   -771895.44446   -484382.26643  24513122.9774                   24513125.2854
 -18947725.15747 -14713830.20646  21278239.0864                   21278236.8484
 11  8  9  2 39 30.0000000  0  8G25G12G10G26G05G29G04G02
 -15307332.684 8 -11914752.650 7  21680044.047
 -19346877.946 8 -15057132.680 7  21100669.953
  -9722217.19646  -7529757.06744  22680642.8054                   22680643.2384
  -2003891.77546  -1498222.98243  24559984.4454                   24559987.2234
 -23394053.149 8 -18186745.537 8  20271062.609
  -8061022.377 7  -6268783.986 6  23146879.445
   -692096.14946   -422201.03443  24528308.6644                   24528310.0314
 -18912661.85347 -14686508.14646  21284911.0704                   21284908.8714
 11  8  9  2 40  0.0000000  0  8G25G12G10G26G05G29G04G02
 -15329134.515 8 -11931741.073 7  21675895.203
 -19302030.124 8 -15022186.343 7  21109204.539
  -9628715.88047  -7456898.93144  22698434.6564                   22698435.8914
  -2099673.00446  -1572857.57942  24541757.6334                   24541760.0984
 -23393574.450 8 -18186372.508 8  20271153.680
  -8144311.556 7  -6333684.605 6  23131030.273
   -612353.04046   -360063.51943  24543483.9454                   24543484.6094
 -18877484.72448 -14659097.39746  21291604.8914                   21291603.2624
 11  8  9  2 40 30.0000000  0  8G25G12G10G26G05G29G04G02
 -15350359.835 8 -11948280.261 7  21671856.016
 -19256668.440 8 -14986839.593 7  21117836.672
  -9534921.10447  -7383812.09544  22716284.0474                   22716284.2274
  -2195536.18046  -1647556.05742  24523516.0864                   24523518.0234
 -23392526.471 8 -18185555.883 8  20271353.328
  -8227577.436 7  -6398567.042 6  23115184.648
   -532665.55446   -297969.36643  24558647.6414                   24558649.0044
 -18842194.02348 -14631598.13946  21298320.9774                   21298318.6414
 11  8  9  2 41  0.0000000  0  8G25G12G10G26G05G29G04G02
 -15371007.603 8 -11964369.396 7  21667927.289
 -19210794.280 8 -14951093.501 7  21126565.852
  -9440835.27947  -7310498.47544  22734187.8754                   22734187.6914
  -2291477.42746  -1722315.30943  24505258.0474                   24505261.4064
 -23390909.227 8 -18184295.673 8  20271660.734
  -8310818.159 7  -6463429.882 6  23099344.648
   -453033.85246   -235918.70243  24573800.8284                   24573801.7194
 -18806789.38548 -14604010.10046  21305057.8054                   21305056.1954
 11  8  9  2 41 30.0000000  0  8G25G12G10G26G05G29G04G02
 -15391077.762 8 -11980008.473 7  21664107.664
 -19164410.066 8 -14914949.982 7  21135392.594
  -9346461.48847  -7236960.44844  22752146.4144                   22752146.7854
  -2387494.26046  -1797133.59042  24486987.1094                   24486989.4694
 -23388724.028 8 -18182592.907 8  20272076.914
  -8394033.001 6  -6528272.560 6  23083509.406
   -373458.45046   -173911.91843  24588943.2194                   24588944.5984
 -18771272.14948 -14576334.33146  21311816.4844                   21311814.7074
 11  8  9  2 42  0.0000000  0  8G25G12G10G26G05G29G04G02
 -15410569.632 8 -11995196.908 7  21660398.383
 -19117517.553 8 -14878410.365 7  21144316.047
  -9251802.16647  -7163199.91344  22770159.1564                   22770159.7114
  -2483583.60346  -1872008.28943  24468702.0864                   24468704.4574
 -23385971.461 8 -18180448.027 8  20272600.547
  -8477220.225 7  -6593093.714 6  23067679.500
   -293939.67946   -111949.25843  24604074.6954                   24604077.1134
 -18735642.49848 -14548570.96146  21318597.0704                   21318594.6174
 11  8  9  2 42 30.0000000  0  8G25G12G10G26G05G29G04G02
 -15429482.495 8 -12009934.181 7  21656799.156
 -19070118.194 8 -14841475.812 7  21153335.500
  -9156860.13347  -7089219.13244  22788226.2584                   22788227.1484
  -2579742.06946  -1946936.85342  24450402.5864                   24450405.9804
 -23382651.991 8 -18177861.414 8  20273232.281
  -8560377.890 7  -6657891.827 6  23051854.945
   -214477.15746    -50030.38843  24619196.8594                   24619198.1884
 -18699900.39948 -14520719.96946  21325398.3134                   21325396.1644
 11  8  9  2 43  0.0000000  0  8G25G12G10G26G05G29G04G02
 -15447816.436 8 -12024220.342 7  21653310.523
 -19022214.599 8 -14804148.357 7  21162451.484
  -9061639.12747  -7015020.95944  22806346.7194                   22806346.7194
  -2675967.11746  -2021917.37543  24432091.7894                   24432094.8134
 -23378766.952 8 -18174834.091 8  20273971.555
  -8643505.362 7  -6722666.391 6  23036036.234
   -135071.78746     11843.87943  24634306.8984                   24634308.5744
 -18664047.15948 -14492782.38346  21332220.8204                   21332219.0864
 11  8  9  2 43 30.0000000  0  8G25G12G10G26G05G29G04G02
 -15465571.369 8 -12038055.318 7  21649931.938
 -18973809.248 8 -14766429.900 7  21171662.914
  -8966142.43447  -6940607.97044  22824518.6884                   22824519.4924
  -2772255.88646  -2096947.53343  24413769.1414                   24413772.2114
 -23374317.735 8 -18171367.151 8  20274818.023
  -8726601.259 7  -6787416.380 6  23020224.086
    -55724.12246     73673.22543  24649406.6254                   24649408.4024
 -18628083.54648 -14464758.77046  21339064.6884                   21339062.7154
 11  8  9  2 44  0.0000000  0  8G25G12G10G26G05G29G04G02
 -15482745.752 8 -12051437.938 7  21646663.625
 -18924902.795 8 -14728320.994 7  21180970.086
  -8870371.40247  -6865981.18744  22842743.5004                   22842743.6804
  -2868604.45546  -2172024.24543  24395435.2424                   24395436.2934
 -23369303.693 8 -18167460.093 8  20275772.398
  -8809663.031 7  -6852139.752 6  23004418.109
     23566.81746    135458.42743  24664494.4694                   24664496.8204
 -18592009.26148 -14436648.91946  21345929.2194                   21345927.4104
 11  8  9  2 44 30.0000000  0  8G25G12G10G26G05G29G04G02
 -15499338.553 8 -12064367.370 7  21643506.469
 -18875496.716 8 -14689822.769 7  21190370.664
  -8774328.43947  -6791142.51044  22861019.7894                   22861020.5084
  -2965008.73846  -2247144.39343  24377089.7894                   24377091.3524
 -23363724.742 8 -18163112.853 8  20276833.563
  -8892688.405 7  -6916834.802 6  22988618.914
    102801.50346    197199.66343  24679572.0864                   24679574.2154
 -18555823.82948 -14408452.46646  21352814.9774                   21352813.0234
 11  8  9  2 45  0.0000000  0  7G25G12G10G26G05G29G02
 -15515352.267 8 -12076845.570 7  21640458.938
 -18825595.616 8 -14650938.819 7  21199866.961
  -8678019.14447  -6716096.29444  22879346.7114                   22879347.8554
  -3061468.67646  -2322307.91843  24358733.7424                   24358735.7814
 -23357584.756 8 -18158328.425 8  20278002.188
  -8975678.738 7  -6981502.537 6  22972826.141
 -18519530.41248 -14380171.86646  21359721.3364                   21359719.5004
 11  8  9  2 45 30.0000000  0  7G25G12G10G26G05G29G02
 -15530784.170 8 -12088870.414 7  21637522.461
 -18775199.601 8 -14611669.208 7  21209456.977
  -8581444.38947  -6640843.24244  22897724.4534                   22897724.8204
  -3157978.55746  -2397510.36843  24340368.3754                   24340371.3984
 -23350882.129 8 -18153105.594 8  20279277.883
  -9058629.981 7  -7046139.792 6  22957040.680
 -18483127.09348 -14351805.63946  21366648.7504                   21366646.5664
 11  8  9  2 46  0.0000000  0  7G25G12G10G26G05G29G02
 -15545635.141 8 -12100442.589 7  21634695.992
 -18724311.548 8 -14572016.196 7  21219140.906
  -8484608.25047  -6565386.50544  22916151.3444                   22916152.3244
  -3254536.53946  -2472750.28543  24321994.1414                   24321995.8524
 -23343619.120 8 -18147446.084 8  20280659.633
  -9141541.929 7  -7110746.448 6  22941262.844
 -18446615.54447 -14323355.05946  21373597.1024                   21373594.5164
 11  8  9  2 46 30.0000000  0  7G25G12G10G26G05G29G02
 -15559904.227 8 -12111561.340 7  21631981.086
 -18672932.605 8 -14531980.665 7  21228917.875
  -8387512.88947  -6489727.79544  22934627.9844                   22934628.7664
  -3351138.75146  -2548024.63443  24303611.3444                   24303613.0784
 -23335795.978 8 -18141350.119 8  20282148.539
  -9224412.074 7  -7175320.540 7  22925493.289
 -18409995.82548 -14294820.20646  21380565.4304                   21380563.0474
 11  8  9  2 47  0.0000000  0  7G25G12G10G26G05G29G02
 -15573591.144 8 -12122226.458 7  21629376.586
 -18621065.125 8 -14491564.461 7  21238788.203
  -8290160.96747  -6413869.16444  22953153.6884                   22953154.6024
  -3447781.88346  -2623330.92943  24285220.8444                   24285222.8714
 -23327413.245 8 -18134818.115 8  20283743.625
  -9307239.052 7  -7239860.991 7  22909731.063
 -18373268.13048 -14266201.20846  21387554.2894                   21387552.0514
 11  8  9  2 47 30.0000000  0  7G25G12G10G26G05G29G02
 -15586695.529 8 -12132437.644 7  21626882.484
 -18568711.321 8 -14450769.308 7  21248750.594
  -8192555.30247  -6337812.80744  22971727.9534                   22971728.1254
  -3544462.78246  -2698666.60843  24266822.2974                   24266824.9694
 -23318472.153 8 -18127851.015 8  20285445.383
  -9390021.095 7  -7304366.401 7  22893977.961
 -18336432.68948 -14237498.25646  21394564.0234                   21394561.4884
 11  8  9  2 48  0.0000000  0  7G25G12G10G26G05G29G02
 -15599218.805 8 -12142196.022 7  21624499.438
 -18515874.644 8 -14409597.887 7  21258805.070
  -8094699.90747  -6261561.85144  22990348.8134                   22990349.5944
  -3641179.87147  -2774030.49943  24248418.3204                   24248419.9574
 -23308974.998 8 -18120450.628 8  20287252.617
  -9472758.158 6  -7368836.767 7  22878234.148
 -18299491.44748 -14208712.87146  21401593.3284                   21401591.5904
 11  8  9  2 48 30.0000000  0  7G25G12G10G26G05G29G02
 -15611158.690 8 -12151499.821 7  21622227.141
 -18462555.011 8 -14368050.140 7  21268950.906
  -7996596.03647  -6185117.26944  23009017.9304                   23009018.5274
  -3737927.81146  -2849418.41543  24230008.1954                   24230009.6724
 -23298920.753 8 -18112616.134 8  20289165.469
  -9555446.695 7  -7433269.327 7  22862499.336
 -18262442.73548 -14179843.74446  21408643.6094                   21408641.5944
 11  8  9  2 49  0.0000000  0  7G25G12G10G26G05G29G02
 -15622515.870 8 -12160349.557 7  21620065.977
 -18408755.686 8 -14326128.604 7  21279189.203
  -7898247.40147  -6108481.94144  23027732.5784                   23027732.9064
  -3834704.30846  -2924828.56143  24211590.9064                   24211593.5474
 -23288311.367 8 -18104349.062 8  20291184.641
  -9638085.720 7  -7497663.329 7  22846773.055
 -18225287.96248 -14150891.97546  21415713.9694                   21415711.8204
 11  8  9  2 49 30.0000000  0  7G25G12G10G26G05G29G02
 -15633290.083 8 -12168745.048 7  21618015.953
 -18354478.759 8 -14283834.913 7  21289517.641
  -7799656.53646  -6031657.91744  23046493.5314                   23046494.0234
  -3931505.93146  -3000258.30043  24193170.3524                   24193172.3554
 -23277147.801 8 -18095650.162 8  20293309.117
  -9720673.469 7  -7562017.369 6  22831057.820
 -18188027.09648 -14121857.53646  21422804.2974                   21422802.1604
 11  8  9  2 50  0.0000000  0  7G25G12G10G26G05G29G02
 -15643481.185 8 -12176686.140 7  21616076.391
 -18299726.004 8 -14241170.442 7  21299937.219
  -7700826.54546  -5954647.52243  23065299.9924                   23065300.3524
  -4028329.43046  -3075705.08943  24174745.4384                   24174747.9614
 -23265430.763 8 -18086519.997 8  20295538.453
  -9803208.321 7  -7626330.185 6  22815351.461
 -18150660.83348 -14092740.96346  21429914.9774                   21429912.8054
 11  8  9  2 50 30.0000000  0  7G25G12G10G26G05G29G02
 -15653088.683 8 -12184172.492 7  21614248.180
 -18244499.534 8 -14198136.839 7  21310446.000
  -7601759.71946  -5877452.58644  23084152.1484                   23084152.4304
  -4125171.16246  -3151166.07343  24156317.1564                   24156319.6054
 -23253161.079 8 -18076959.188 8  20297873.336
  -9885688.221 7  -7690600.221 6  22799656.094
 -18113188.82648 -14063541.99546  21437045.5164                   21437043.1884
 11  8  9  2 51  0.0000000  0  7G25G12G10G26G05G29G02
 -15662113.736 8 -12191204.977 7  21612530.664
 -18188802.890 8 -14154736.877 7  21321044.750
  -7502460.13747  -5800076.28543  23103047.5234                   23103048.2074
  -4222028.80546  -3226639.50943  24137885.9064                   24137887.8054
 -23240340.963 8 -18066969.472 8  20300312.852
  -9968112.650 7  -7754827.004 6  22783970.930
 -18075612.70448 -14034261.90446  21444196.0474                   21444194.1294
 11  8  9  2 51 30.0000000  0  7G25G12G10G26G05G29G02
 -15670555.647 8 -12197783.089 7  21610924.602
 -18132637.451 7 -14110971.611 7  21331732.609
  -7402930.00847  -5722520.34644  23121987.7194                   23121988.7274
  -4318898.55946  -3302122.31143  24119451.4844                   24119454.2934
 -23226970.878 8 -18056551.212 8  20302857.133
 -10050479.116 7  -7819008.657 6  22768297.102
 -18037932.17848 -14004900.46546  21451366.7664                   21451364.3874
 11  8  9  2 52  0.0000000  0  7G25G12G10G26G05G29G02
 -15678414.431 8 -12203906.792 7  21609429.156
 -18076005.409 7 -14066842.768 7  21342509.094
  -7303171.86947  -5644786.72343  23140971.3284                   23140970.9964
  -4415777.49146  -3377612.34943  24101016.9844                   24101018.4534
 -23213052.221 8 -18045705.496 8  20305505.703
 -10132786.063 7  -7883143.929 6  22752635.047
 -18000147.64948 -13975457.98346  21458556.9774                   21458554.7114
 11  8  9  2 52 30.0000000  0  7G25G12G10G26G05G29G02
 -15685691.019 8 -12209576.856 7  21608044.375
 -18018909.794 7 -14022352.695 7  21353373.953
  -7203189.47347  -5566878.37144  23159997.0554                   23159998.2584
  -4512662.93446  -3453107.46743  24082579.7274                   24082581.2504
 -23198586.713 8 -18034433.659 8  20308258.398
 -10215032.844 7  -7947232.291 6  22736984.148
 -17962260.33848 -13945935.42446  21465766.6174                   21465764.4574
 11  8  9  2 53  0.0000000  0  7G25G12G10G26G05G29G02
 -15692385.015 8 -12214792.941 7  21606770.555
 -17961352.913 7 -13977503.207 7  21364327.109
  -7102985.52047  -5488797.38944  23179065.7274                   23179066.5784
  -4609551.27746  -3528604.74843  24064142.3834                   24064145.3674
 -23183575.261 8 -18022736.424 8  20311115.078
 -10297216.992 7  -8011271.884 7  22721344.570
 -17924270.33648 -13916332.82446  21472995.5084                   21472993.5234
 11  8  9  2 53 30.0000000  0  7G25G12G10G26G05G29G02
 -15698495.061 8 -12219553.993 7  21605607.648
 -17903335.446 7 -13932294.800 7  21375367.422
  -7002561.29747  -5410544.71944  23198175.4534                   23198176.1094
  -4706437.40546  -3604100.39243  24045705.1724                   24045707.3874
 -23168017.617 8 -18010613.565 8  20314075.586
 -10379335.652 7  -8075260.446 6  22705718.688
 -17886176.15148 -13886649.04646  21480245.1564                   21480242.8014
 11  8  9  2 54  0.0000000  0  7G25G12G10G26G05G29G02
 -15704023.206 8 -12223861.637 7  21604556.086
 -17844861.518 8 -13886730.717 7  21386494.375
  -6901921.51147  -5332124.12844  23217327.4224                   23217327.1764
  -4803320.40447  -3679593.55043  24027269.2584                   24027270.3164
 -23151916.930 8 -17998067.559 8  20317139.563
 -10461388.888 7  -8139197.996 6  22690104.273
 -17847980.13148 -13856885.90546  21487512.6884                   21487511.1844
 11  8  9  2 54 30.0000000  0  7G25G12G10G26G05G29G02
 -15708968.050 8 -12227714.741 7  21603615.055
 -17785931.978 7 -13840811.615 7  21397708.797
  -6801067.62547  -5253536.68344  23236518.8914                   23236519.1994
  -4900195.28946  -3755080.38243  24008834.1724                   24008836.1334
 -23135273.085 8 -17985098.316 8  20320306.656
 -10543373.610 7  -8203082.164 6  22674502.742
 -17809681.04948 -13827042.46245  21494801.0314                   21494799.0824
 11  8  9  2 55  0.0000000  0  7G25G12G10G26G05G29G02
 -15713330.770 8 -12231114.252 7  21602784.727
 -17726550.027 7 -13794539.986 7  21409008.375
  -6700003.29147  -5174785.24544  23255750.3284                   23255751.0664
  -4997059.67046  -3830559.03043  23990401.8754                   23990403.4024
 -23118088.080 8 -17971707.405 8  20323576.844
 -10625288.793 7  -8266912.153 7  22658914.891
 -17771280.43748 -13797119.91946  21502108.8364                   21502106.5044
 11  8  9  2 55 30.0000000  0  7G25G12G10G26G05G29G02
 -15717110.796 8 -12234059.699 7  21602065.195
 -17666717.347 7 -13747917.127 7  21420394.320
  -6598730.57847  -5095871.45644  23275022.2664                   23275023.0984
  -5093909.52346  -3906026.35843  23971971.9694                   23971973.0824
 -23100362.371 8 -17957895.145 8  20326950.164
 -10707132.282 7  -8330686.282 7  22643340.797
 -17732777.60248 -13767117.69846  21509435.6644                   21509433.2464
 11  8  9  2 56  0.0000000  0  7G25G12G10G26G05G29G02
 -15720308.322 8 -12236551.273 7  21601456.984
 -17606436.770 8 -13700945.268 7  21431865.586
  -6497252.12546  -5016797.36644  23294333.2584                   23294333.7584
  -5190741.37846  -3981479.65943  23953544.8754                   23953547.3014
 -23082097.393 8 -17943662.698 8  20330425.586
 -10788902.132 7  -8394403.009 6  22627780.078
 -17694172.71748 -13737035.97046  21516781.5704                   21516779.5474
 11  8  9  2 56 30.0000000  0  7G25G12G10G26G05G29G02
 -15722924.513 8 -12238589.854 7  21600959.031
 -17545711.056 7 -13653626.537 7  21443420.758
  -6395571.76347  -4937565.87643  23313681.8284                   23313682.4414
  -5287552.83047  -4056917.08643  23935123.0634                   23935124.5314
 -23063295.227 8 -17929011.645 8  20334003.578
 -10870597.257 7  -8458061.516 6  22612233.781
 -17655467.17248 -13706875.80746  21524147.2814                   21524145.1884
 11  8  9  2 57  0.0000000  0  7G25G12G10G26G05G29G02
 -15724958.377 8 -12240174.663 7  21600571.758
 -17484541.783 7 -13605962.186 7  21455061.383
  -6293691.11746  -4858178.39843  23333069.4224                   23333070.1804
  -5384339.44446  -4132335.15243  23916704.9304                   23916706.4184
 -23043956.109 8 -17913942.201 8  20337683.531
 -10952214.835 7  -8521659.565 7  22596702.641
 -17616660.12948 -13676636.53845  21531531.8984                   21531529.8524
 11  8  9  2 57 30.0000000  0  7G25G12G10G26G05G29G02
 -15726411.734 8 -12241307.150 7  21600295.234
 -17422932.743 7 -13557955.150 7  21466785.328
  -6191614.37147  -4778638.05044  23352493.9454                   23352494.6724
  -5481099.09046  -4207732.19044  23898291.9694                   23898293.4384
 -23024082.974 8 -17898456.633 8  20341465.344
 -11033754.464 7  -8585196.895 7  22581186.320
 -17577753.22948 -13646319.45746  21538935.7894                   21538933.7194
 11  8  9  2 58  0.0000000  0  7G25G12G10G26G05G29G02
 -15727283.619 8 -12241986.517 7  21600129.453
 -17360885.060 7 -13509606.334 7  21478591.984
  -6089342.86047  -4698946.00643  23371955.3834                   23371956.2734
  -5577827.35446  -4283104.75843  23879884.1254                   23879886.7814
 -23003675.932 8 -17882555.037 8  20345348.672
 -11115213.184 7  -8648671.194 7  22565685.563
 -17538745.52448 -13615923.83345  21546358.4304                   21546356.2584
 11  8  9  2 58 30.0000000  0  7G25G12G10G26G05G29G02
 -15727572.828 8 -12242211.881 7  21600074.414
 -17298399.606 7 -13460916.376 7  21490482.852
  -5986878.03547  -4619103.28943  23391454.4454                   23391454.6214
  -5674519.05146  -4358448.88643  23861484.4694                   23861487.0124
 -22982734.800 8 -17866237.261 8  20349333.563
 -11196587.621 7  -8712079.796 7  22550199.617
 -17499635.67548 -13585448.59846  21553801.0944                   21553798.9774
 11  8  9  2 59  0.0000000  0  7G25G12G10G26G05G29G02
 -15727287.095 8 -12241989.222 7  21600128.492
 -17235485.904 8 -13411892.718 7  21502455.250
  -5884230.14747  -4539117.93344  23410987.4774                   23410987.7854
  -5771178.50046  -4433767.84443  23843090.4614                   23843092.9654
 -22961268.352 8 -17849510.152 8  20353418.391
 -11277883.347 7  -8775427.031 6  22534729.734
 -17460431.07247 -13554899.55245  21561261.2344                   21561259.3954
 11  8  9  2 59 30.0000000  0  7G25G12G10G26G05G29G02
 -15726419.378 8 -12241313.070 7  21600293.867
 -17172139.853 7 -13362532.175 7  21514509.594
  -5781394.36747  -4458986.14743  23430556.5784                   23430556.4574
  -5867794.41646  -4509052.88844  23824705.3364                   23824707.4574
 -22939270.551 8 -17832369.007 8  20357604.328
 -11359091.038 7  -8838705.691 6  22519276.883
 -17421124.80248 -13524271.28346  21568741.2894                   21568739.2194
 11  8  9  3  0  0.0000000  0  7G25G12G10G26G05G29G02
 -15724971.928 8 -12240185.163 7  21600569.227
 -17108365.175 8 -13312837.625 7  21526645.398
  -5678375.39947  -4378711.58643  23450160.2034                   23450160.1524
  -5964365.47647  -4584303.01343  23806329.1804                   23806330.8014
 -22916744.638 8 -17814816.341 8  20361891.359
 -11440210.686 7  -8901915.746 6  22503840.109
 -17381718.78648 -13493565.28646  21576239.5784                   21576237.6604
 11  8  9  3  0 30.0000000  0  7G25G12G10G26G05G29G02
 -15722945.288 8 -12238605.974 7  21600954.953
 -17044164.651 8 -13262811.258 7  21538862.500
  -5575176.15747  -4298296.66043  23469798.1484                   23469798.2274
  -6060888.07447  -4659515.37143  23787961.2274                   23787963.2624
 -22893692.295 8 -17796853.469 8  20366277.727
 -11521240.507 7  -8965055.811 6  22488421.094
 -17342213.23448 -13462781.72945  21583757.8914                   21583755.3164
 11  8  9  3  1  0.0000000  0  7G25G12G10G26G05G29G02
 -15720340.434 7 -12236576.206 7  21601450.703
 -16979541.453 8 -13212455.535 7  21551159.867
  -5471799.74346  -4217743.58143  23489469.8594                   23489470.2734
  -6157359.49047  -4734687.81043  23769603.7584                   23769605.1024
 -22870115.511 8 -17778481.936 8  20370764.375
 -11602179.085 7  -9028124.792 7  22473017.992
 -17302609.46448 -13431921.63445  21591293.8674                   21591291.8324
 11  8  9  3  1 30.0000000  0  7G25G12G10G26G05G29G02
 -15717157.815 8 -12234096.260 7  21602056.023
 -16914497.886 7 -13161772.242 7  21563537.008
  -5368248.66347  -4137054.44843  23509174.7504                   23509175.0514
  -6253776.13947  -4809817.66044  23751256.6174                   23751257.6524
 -22846015.614 8 -17759702.788 8  20375350.141
 -11683024.742 7  -9091121.333 6  22457633.883
 -17262906.96748 -13400984.61045  21598848.8594                   21598846.7974
 11  8  9  3  2  0.0000000  0  7G25G12G10G26G05G29G02
 -15713397.125 8 -12231165.825 7  21602772.063
 -16849035.299 7 -13110762.456 7  21575994.367
  -5264524.87847  -4056230.70743  23528913.3134                   23528913.0744
  -6350133.92747  -4884901.58244  23732919.8364                   23732921.0554
 -22821392.942 8 -17740516.284 8  20380035.828
 -11763774.557 7  -9154043.206 7  22442267.148
 -17223105.02748 -13369970.09746  21606422.9144                   21606420.4614
 11  8  9  3  2 30.0000000  0  7G25G12G10G26G05G29G02
 -15709060.053 8 -12227786.313 7  21603597.242
 -16783157.935 7 -13059429.450 7  21588530.148
  -5160632.50747  -3975275.64743  23548683.5314                   23548684.2384
  -6446430.35246  -4959937.67943  23714594.3984                   23714596.0434
 -22796251.048 8 -17720925.189 8  20384820.445
 -11844427.908 7  -9216889.916 7  22426920.086
 -17183205.39548 -13338879.47045  21614015.7974                   21614013.5634
 11  8  9  3  3  0.0000000  0  7G25G12G10G26G05G29G02
 -15704146.399 8 -12223957.489 7  21604532.367
 -16716867.494 7 -13007774.571 7  21601145.070
  -5056573.31447  -3894190.55143  23568484.8984                   23568485.4924
  -6542661.19346  -5034922.71943  23696282.2194                   23696284.1024
 -22770590.238 8 -17700929.740 8  20389703.594
 -11924982.167 7  -9279659.407 7  22411590.453
 -17143207.29348 -13307712.11046  21621627.1254                   21621624.6724
 11  8  9  3  3 30.0000000  0  8G25G12G10G26G05G29G15G02
 -15698657.465 8 -12219680.398 7  21605576.898
 -16650167.018 7 -12955800.182 7  21613837.594
  -4952350.57647  -3812978.07044  23588317.7584                   23588318.5664
  -6638823.53146  -5109854.37743  23677984.3444                   23677985.3134
 -22744412.726 8 -17680531.667 8  20394684.898
 -12005436.026 7  -9342350.676 7  22396280.813
      7151.625 6     23265.702 5  24634972.313
 -17103111.65648 -13276468.75846  21629256.8984                   21629254.5234
 11  8  9  3  4  0.0000000  0  8G25G12G10G26G05G29G15G02
 -15692598.801 8 -12214959.369 7  21606729.875
 -16583064.416 7 -12903512.452 7  21626606.797
  -4847972.01246  -3731644.10443  23608180.7734                   23608180.3014
  -6734919.07446  -5184733.96943  23659697.2734                   23659698.0354
 -22717725.394 8 -17659736.333 8  20399763.211
 -12085792.522 7  -9404966.073 7  22380989.430
    -87476.109 6    -50470.022 5  24616963.594
 -17062923.66648 -13245153.41845  21636904.3674                   21636901.7584
 11  8  9  3  4 30.0000000  0  8G25G12G10G26G05G29G15G02
 -15685960.128 8 -12209786.377 7  21607993.266
 -16515551.167 8 -12850904.736 7  21639454.297
  -4743429.42046  -3650182.35243  23628074.3364                   23628074.8794
  -6830933.09346  -5259550.05143  23641426.7734                   23641427.3134
 -22690518.452 8 -17638536.105 8  20404940.625
 -12166038.654 7  -9467495.485 7  22365718.898
   -182220.733 6   -124296.894 6  24598936.164
 -17022632.46348 -13213757.66345  21644571.5864                   21644569.1724
 11  8  9  3  5  0.0000000  0  8G25G12G10G26G05G29G15G02
 -15678747.873 8 -12204166.441 7  21609365.938
 -16447635.682 7 -12797983.593 7  21652378.070
  -4638731.45446  -3568599.55343  23647997.8524                   23647998.2504
  -6926868.02146  -5334304.47543  23623170.3284                   23623172.3874
 -22662799.228 7 -17616936.696 8  20410215.164
 -12246178.310 7  -9529941.905 7  22350468.906
   -277085.252 6   -198217.148 6  24580882.859
 -16982243.81247 -13182285.97945  21652257.4844                   21652255.1254
 11  8  9  3  5 30.0000000  0  8G25G12G10G26G05G29G15G02
 -15670962.420 8 -12198099.852 7  21610847.203
 -16379320.411 7 -12744750.915 7  21665377.922
  -4533880.37046  -3486897.45343  23667950.3134                   23667950.8714
  -7022720.12546  -5408994.38643  23604929.8204                   23604931.7734
 -22634569.354 8 -17594939.376 8  20415586.898
 -12326209.396 7  -9592303.732 7  22335239.688
   -372066.844 6   -272228.624 6  24562807.758
 -16941757.45047 -13150738.16645  21659961.4614                   21659959.4104
 11  8  9  3  6  0.0000000  0  8G25G12G10G26G05G29G15G02
 -15662604.768 8 -12191587.397 7  21612437.352
 -16310608.084 8 -12691208.857 7  21678453.500
  -4428878.86946  -3405078.14243  23687930.0474                   23687931.9844
  -7118485.79847  -5483616.94644  23586706.7504                   23586708.1564
 -22605830.557 8 -17572545.491 8  20421055.859
 -12406130.017 7  -9654579.489 7  22320031.203
   -467163.216 6   -346329.537 6  24544711.758
 -16901174.02747 -13119114.71445  21667684.3054                   21667682.2304
 11  8  9  3  6 30.0000000  0  8G25G12G10G26G05G29G15G02
 -15653676.195 8 -12184630.071 7  21614136.727
 -16241501.838 8 -12637359.850 7  21691604.172
  -4323730.21346  -3323144.15043  23707940.3204                   23707940.9884
  -7214162.45646  -5558170.10744  23568499.6884                   23568501.8204
 -22576585.370 8 -17549757.020 8  20426621.219
 -12485938.715 7  -9716768.036 7  22304844.125
   -562372.419 6   -420518.405 6  24526594.930
 -16860494.39047 -13087416.32146  21675425.2894                   21675423.5204
 11  8  9  3  7  0.0000000  0  8G25G12G10G26G05G29G15G02
 -15644177.414 8 -12177228.419 7  21615944.297
 -16172004.222 8 -12583205.878 7  21704829.117
  -4218436.94247  -3241097.48343  23727977.7734                   23727977.8484
  -7309746.15047  -5632650.85644  23550311.1484                   23550312.5354
 -22546835.406 8 -17526575.197 8  20432282.070
 -12565633.570 7  -9778867.902 6  22289678.602
   -657691.748 6   -494793.084 6  24508456.070
 -16819718.56548 -13055642.95546  21683184.7194                   21683182.9344
 11  8  9  3  7 30.0000000  0  8G25G12G10G26G05G29G15G02
 -15634109.031 8 -12169382.942 7  21617859.945
 -16102117.812 8 -12528748.955 7  21718127.859
  -4113001.41047  -3158939.93043  23748041.0084                   23748041.2894
  -7405233.22847  -5707056.31544  23532140.0704                   23532141.9384
 -22516581.949 8 -17503001.057 8  20438039.688
 -12645212.473 7  -9840877.394 7  22274534.547
   -753118.655 6   -569151.558 6  24490296.328
 -16778846.14948 -13023794.32646  21690962.9774                   21690960.3794
 11  8  9  3  8  0.0000000  0  8G25G12G10G26G05G29G15G02
 -15623471.291 8 -12161093.789 7  21619884.539
 -16031844.660 8 -12473990.656 7  21731500.484
  -4007425.79047  -3076673.21043  23768131.2584                   23768130.7774
  -7500619.70847  -5781383.37144  23513988.4064                   23513990.1564
 -22485826.164 8 -17479035.494 8  20443892.305
 -12724672.810 7  -9902794.494 6  22259413.836
   -848649.828 7   -643591.333 6  24472118.094
 -16737876.73848 -12991870.11345  21698758.8594                   21698756.8244
 11  8  9  3  8 30.0000000  0  8G25G12G10G26G05G29G15G02
 -15612265.785 8 -12152362.227 7  21622016.938
 -15961188.552 8 -12418933.966 7  21744945.641
  -3901713.58447  -2994300.06743  23788247.7424                   23788248.0944
  -7595902.62747  -5855629.72044  23495856.9384                   23495858.7344
 -22454570.694 8 -17454680.561 8  20449839.906
 -12804013.248 7  -9964618.161 7  22244316.508
   -944283.409 6   -718110.927 6  24453918.773
 -16696811.27148 -12959871.06345  21706572.9144                   21706570.8874
 11  8  9  3  9  0.0000000  0  8G25G12G10G26G05G29G15G02
 -15600492.323 8 -12143188.110 7  21624257.289
 -15890151.100 8 -12363580.122 7  21758464.086
  -3795866.34247  -2911821.63143  23808390.2814                   23808389.3134
  -7691077.25147  -5929791.71644  23477745.6334                   23477746.6024
 -22422815.889 8 -17429936.539 8  20455882.695
 -12883230.784 7 -10026346.079 7  22229242.156
  -1040015.952 6   -792707.605 6  24435701.234
 -16655648.61948 -12927796.27945  21714405.8754                   21714403.8674
 11  8  9  3  9 30.0000000  0  8G25G12G10G26G05G29G15G02
 -15588153.612 8 -12133573.515 7  21626605.070
 -15818736.611 8 -12307932.477 7  21772053.625
  -3689888.38146  -2829241.43043  23828556.5634                   23828556.9884
  -7786141.97347  -6003868.04344  23459655.3594                   23459656.8014
 -22390565.641 8 -17404806.466 8  20462019.430
 -12962325.019 7 -10087977.915 7  22214190.898
  -1135846.100 6   -867380.366 6  24417466.031
 -16614390.59748 -12895647.18445  21722257.2194                   21722255.3554
 11  8  9  3 10  0.0000000  0  8G25G12G10G26G05G29G15G02
 -15575248.695 8 -12123517.738 7  21629061.078
 -15746945.674 8 -12251991.511 7  21785715.203
  -3583780.29346  -2746559.83043  23848748.5164                   23848748.0664
  -7881091.20647  -6077854.40544  23441586.6024                   23441588.6564
 -22357819.548 8 -17379290.007 8  20468250.719
 -13041292.290 7 -10149510.802 7  22199163.508
  -1231769.851 6   -942126.140 5  24399211.602
 -16573035.70747 -12863422.60045  21730127.1804                   21730124.9694
 11  8  9  3 10 30.0000000  0  8G25G12G10G26G05G29G15G02
 -15561779.624 8 -12113022.365 7  21631623.875
 -15674782.327 7 -12195760.342 7  21799447.438
  -3477545.70246  -2663779.62943  23868964.3364                   23868963.7814
  -7975922.60047  -6151748.95244  23423541.2664                   23423542.7974
 -22324580.733 8 -17353389.616 8  20474576.258
 -13120131.635 7 -10210943.978 7  22184160.680
  -1327785.426 6  -1016943.462 5  24380940.180
 -16531584.95647 -12831123.30946  21738014.5394                   21738012.8984
 11  8  9  3 11  0.0000000  0  8G25G12G10G26G05G29G15G02
 -15547747.289 8 -12102088.073 7  21634293.898
 -15602249.561 8 -12139241.328 7  21813250.555
  -3371187.31746  -2580902.92443  23889203.2344                   23889202.9924
  -8070632.39247  -6225548.70444  23405518.1644                   23405520.6094
 -22290850.877 8 -17327106.589 8  20480994.281
 -13198840.788 7 -10272275.754 7  22169182.516
  -1423889.955 6  -1091830.116 6  24362652.938
 -16490038.33448 -12798749.31345  21745921.0234                   21745918.4804
 11  8  9  3 11 30.0000000  0  8G25G12G10G26G05G29G15G02
 -15533152.455 8 -12090715.480 7  21637071.172
 -15529349.556 7 -12082436.142 7  21827122.789
  -3264707.46246  -2497931.65943  23909465.9774                   23909466.3834
  -8165216.68947  -6299250.70444  23387519.6484                   23387521.4774
 -22256631.356 8 -17300442.023 8  20487506.102
 -13277417.535 7 -10333504.330 7  22154229.906
  -1520080.812 6  -1166784.044 6  24344348.180
 -16448395.54847 -12766300.39445  21753845.0394                   21753842.6134
 11  8  9  3 12  0.0000000  0  8G25G12G10G26G05G29G15G02
 -15517997.195 8 -12078906.174 7  21639955.188
 -15456086.115 7 -12025347.746 7  21841063.680
  -3158109.71446  -2414868.52143  23929750.4534                   23929751.5164
  -8259673.02147  -6372852.97944  23369545.0394                   23369546.9494
 -22221925.702 8 -17273398.639 8  20494110.469
 -13355860.767 7 -10394628.914 7  22139302.914
  -1616356.313 6  -1241803.905 6  24326026.969
 -16406658.14248 -12733777.74945  21761787.7344                   21761785.6724
 11  8  9  3 12 30.0000000  0  8G25G12G10G26G05G29G15G02
 -15502281.881 8 -12066660.462 7  21642945.719
 -15382461.598 7 -11967978.007 7  21855074.188
  -3051396.00046  -2331715.01343  23950058.1254                   23950058.8834
  -8353997.06747  -6446352.16744  23351595.5704                   23351597.1724
 -22186734.487 8 -17245976.906 8  20500807.430
 -13434167.800 7 -10455647.374 7  22124401.859
  -1712712.698 6  -1316886.822 6  24307691.445
 -16364824.94247 -12701180.46245  21769748.4534                   21769746.1024
 11  8  9  3 13  0.0000000  0  8G25G12G10G26G05G29G15G02
 -15486007.135 8 -12053978.856 7  21646043.086
 -15308478.143 7 -11910328.577 7  21869153.031
  -2944568.59046  -2248472.90343  23970386.1094                   23970387.4734
  -8448184.82547  -6519745.16544  23333672.0004                   23333673.8674
 -22151059.187 8 -17218177.962 8  20507595.859
 -13512336.167 7 -10516557.762 7  22109526.500
  -1809147.457 6  -1392030.750 6  24289340.641
 -16322895.70748 -12668508.32945  21777727.2114                   21777724.9804
 11  8  9  3 13 30.0000000  0  8G25G12G10G26G05G29G15G02
 -15469174.285 8 -12040862.359 7  21649246.102
 -15234138.903 7 -11852401.918 7  21883298.828
  -2837630.23147  -2165144.30743  23990736.8914                   23990736.8984
  -8542232.78947  -6593029.23044  23315775.9304                   23315777.4024
 -22114901.892 8 -17190003.429 8  20514476.648
 -13590363.933 7 -10577358.553 7  22094678.148
  -1905657.756 6  -1467233.542 6  24270975.258
 -16280870.79448 -12635761.64145  21785724.4924                   21785721.8484
 11  8  9  3 14  0.0000000  0  8G25G12G10G26G05G29G15G02
 -15451784.659 8 -12027311.999 7  21652555.102
 -15159446.568 7 -11794200.108 7  21897512.852
  -2730583.29746  -2081731.12544  24011106.7584                   24011107.3444
  -8636137.18647  -6666201.42344  23297906.3984                   23297907.6884
 -22078264.831 8 -17161455.059 8  20521448.297
 -13668249.320 7 -10638048.399 7  22079857.375
  -2002241.484 6  -1542493.659 6  24252595.938
 -16238750.59048 -12602940.69145  21793739.1174                   21793737.0004
 11  8  9  3 14 30.0000000  0  8G25G12G10G26G05G29G15G02
 -15433839.192 8 -12013328.527 7  21655969.836
 -15084404.038 7 -11735725.422 7  21911792.445
  -2623430.20446  -1998235.21843  24031496.4304                   24031497.6644
  -8729894.84947  -6739259.25744  23280064.4774                   23280066.5234
 -22041149.854 8 -17132534.290 8  20528510.898
 -13745989.820 8 -10698625.355 7  22065063.625
  -2098895.119 6  -1617808.154 6  24234202.750
 -16196534.56048 -12570045.07645  21801773.1174                   21801770.4614
 11  8  9  3 15  0.0000000  0  8G25G12G10G26G05G29G15G02
 -15415340.337 8 -11998913.844 7  21659490.359
 -15009015.291 7 -11676980.959 7  21926138.281
  -2516174.73146  -1914659.54343  24051907.3364                   24051907.8984
  -8823503.00747  -6812200.59244  23262251.6564                   23262252.9264
 -22003559.922 8 -17103243.423 8  20535664.133
 -13823584.813 7 -10759088.950 7  22050297.742
  -2195617.423 6  -1693176.136 6  24215797.328
 -16154223.98748 -12537075.79345  21809824.1094                   21809822.0234
 11  8  9  3 15 30.0000000  0  8G25G12G10G26G05G29G15G02
 -15396287.789 8 -11984067.700 7  21663115.953
 -14933281.633 7 -11617967.746 7  21940550.773
  -2408818.09246  -1831005.00043  24072336.3674                   24072337.4104
  -8916956.45447  -6885021.37844  23244468.0084                   23244469.6524
 -21965495.742 8 -17073583.015 8  20542907.391
 -13901030.548 8 -10819436.268 7  22035560.227
  -2292404.321 6  -1768594.431 6  24197379.992
 -16111817.52248 -12504031.79845  21817894.1804                   21817891.7424
 11  8  9  3 16  0.0000000  0  8G25G12G10G26G05G29G15G02
 -15376683.696 8 -11968791.787 7  21666846.430
 -14857206.916 8 -11558688.751 7  21955027.141
  -2301363.60546  -1747274.26843  24092784.5944                   24092785.5084
  -9010252.71347  -6957719.66844  23226713.9454                   23226715.3324
 -21926959.753 8 -17043554.959 8  20550240.297
 -13978325.965 7 -10879666.438 7  22020851.156
  -2389253.762 6  -1844061.517 6  24178950.000
 -16069315.89548 -12470913.62946  21825981.7734                   21825979.7544
 11  8  9  3 16 30.0000000  0  8G25G12G10G26G05G29G15G02
 -15356528.407 8 -11953086.379 7  21670681.969
 -14780793.184 8 -11499145.597 7  21969568.125
  -2193812.65646  -1663468.33543  24113250.6254                   24113251.1454
  -9103387.12647  -7030291.87544  23208991.7974                   23208991.9574
 -21887953.333 8 -17013160.346 8  20557663.266
 -14055467.880 7 -10939776.990 7  22006171.563
  -2486162.357 6  -1919574.616 6  24160509.164
 -16026718.30348 -12437720.69945  21834087.7344                   21834085.6524
 11  8  9  3 17  0.0000000  0  8G25G12G10G26G05G29G15G02
 -15335823.782 8 -11936952.899 7  21674622.250
 -14704043.802 7 -11439340.889 7  21984172.414
  -2086168.67146  -1579589.93442  24133734.6884                   24133735.5554
  -9196356.61747  -7102735.53144  23191299.6724                   23191301.1954
 -21848478.842 8 -16982400.989 8  20565174.883
 -14132454.902 7 -10999766.832 7  21991521.844
  -2583127.873 6  -1995132.100 6  24142056.883
 -15984025.35948 -12404453.47345  21842212.0784                   21842209.9224
 11  8  9  3 17 30.0000000  0  8G25G12G10G26G05G29G15G02
 -15314571.545 8 -11920392.720 7  21678665.891
 -14626962.022 8 -11379277.188 7  21998841.063
  -1978434.67546  -1495641.34343  24154235.6094                   24154236.0474
  -9289157.85747  -7175048.12644  23173640.4304                   23173641.1054
 -21808538.864 8 -16951278.926 8  20572775.328
 -14209285.146 8 -11059634.543 7  21976901.609
  -2680148.030 6  -2070732.144 6  24123595.477
 -15941237.44847 -12371112.24845  21850353.8834                   21850352.1644
 11  8  9  3 18  0.0000000  0  8G25G12G10G26G05G29G15G02
 -15292773.141 8 -11903406.966 7  21682813.938
 -14549550.830 8 -11318956.782 7  22013571.781
  -1870612.91146  -1411624.40242  24174753.1484                   24174754.1024
  -9381787.36047  -7247226.88344  23156013.7584                   23156014.3244
 -21768135.751 8 -16919795.985 8  20580463.906
 -14285956.634 8 -11119378.525 7  21962311.352
  -2777220.255 6  -2146372.728 6  24105123.047
 -15898354.98148 -12337697.34245  21858513.9534                   21858512.2074
 11  8  9  3 18 30.0000000  0  8G25G12G10G26G05G29G15G02
 -15270428.479 8 -11885995.541 7  21687066.023
 -14471811.548 8 -11258380.732 7  22028365.250
  -1762704.56846  -1327539.90842  24195287.5314                   24195288.1914
  -9474240.04747  -7319267.85744  23138420.1334                   23138420.9414
 -21727269.764 8 -16887952.352 8  20588240.211
 -14362465.937 8 -11178996.140 7  21947752.461
  -2874339.876 6  -2222050.235 6  24086640.336
 -15855375.99048 -12304207.20245  21866692.6254                   21866690.8674
 11  8  9  3 19  0.0000000  0  8G25G12G10G26G05G29G15G02
 -15247540.223 8 -11868160.544 7  21691421.508
 -14393748.345 8 -11197552.274 7  22043220.352
  -1654713.35646  -1243390.94243  24215838.1884                   24215838.2704
  -9566513.43647  -7391169.12844  23120861.7194                   23120862.2584
 -21685944.108 8 -16855750.550 8  20596104.305
 -14438812.108 8 -11238486.640 7  21933224.125
  -2971505.814 6  -2297763.826 6  24068150.992
 -15812301.69747 -12270642.80745  21874889.4694                   21874887.8554
 11  8  9  3 19 30.0000000  0  8G25G12G10G26G05G29G15G02
 -15224109.515 8 -11849902.862 7  21695880.648
 -14315364.280 8 -11136473.787 7  22058136.563
  -1546641.03146  -1159178.72143  24236403.9774                   24236404.1024
  -9658603.69347  -7462927.72044  23103336.9924                   23103337.1724
 -21644160.759 8 -16823192.092 8  20604055.352
 -14514992.709 8 -11297848.123 7  21918727.281
  -3068714.965 6  -2373511.061 6  24049651.820
 -15769132.27347 -12237004.28745  21883104.3674                   21883102.6024
 11  8  9  3 20  0.0000000  0  8G25G12G10G26G05G29G15G02
 -15200137.819 8 -11831223.611 7  21700442.234
 -14236662.113 8 -11075147.442 7  22073113.031
  -1438490.54546  -1074905.62043  24256983.6254                   24256983.8324
  -9750507.25347  -7534540.79544  23085848.7814                   23085849.2154
 -21601921.872 8 -16790278.671 8  20612093.055
 -14591005.631 8 -11357078.957 7  21904262.258
  -3165964.526 6  -2449289.864 6  24031146.492
 -15725867.46148 -12203291.44345  21891337.7344                   21891335.7544
 11  8  9  3 20 30.0000000  0  8G25G12G10G26G05G29G15G02
 -15175626.655 8 -11812123.998 7  21705106.102
 -14157644.654 8 -11013575.402 7  22088149.297
  -1330264.23746   -990573.42743  24277578.7114                   24277579.0354
  -9842220.41947  -7606005.54344  23068395.1954                   23068397.0124
 -21559229.571 8 -16757011.938 8  20620217.695
 -14666848.706 8 -11416177.399 7  21889829.844
  -3263251.925 6  -2525098.091 6  24012631.930
 -15682507.15047 -12169504.19245  21899589.1484                   21899586.6374
 11  8  9  3 21  0.0000000  0  8G25G12G10G26G05G29G15G02
 -15150576.780 8 -11792604.613 7  21709873.156
 -14078314.172 8 -10951759.444 7  22103245.414
  -1221963.88646   -906183.53243  24298187.2814                   24298188.0944
  -9933738.74847  -7677318.47144  23050981.0084                   23050980.7894
 -21516085.009 8 -16723392.809 8  20628427.336
 -14742519.027 8 -11475141.234 7  21875430.289
  -3360573.486 6  -2600932.914 6  23994113.070
 -15639050.85947 -12135642.13945  21907857.9534                   21907856.4774
 11  8  9  3 21 30.0000000  0  8G25G12G10G26G05G29G15G02
 -15124990.919 8 -11772667.570 7  21714741.633
 -13998674.828 8 -10889702.814 7  22118400.227
  -1113593.13846   -821738.74843  24318809.2734                   24318810.2854
 -10025059.95147  -7748477.76944  23033602.1724                   23033603.1374
 -21472491.713 8 -16689423.990 8  20636723.016
 -14818015.639 8 -11533969.719 7  21861064.203
  -3457927.713 6  -2676793.254 6  23975587.688
 -15595499.64347 -12101706.13445  21916145.7034                   21916143.9384
 11  8  9  3 22  0.0000000  0  9G25G12G10G26G05G29G15G21G02
 -15098869.763 8 -11752313.433 7  21719712.727
 -13918728.668 8 -10827407.114 7  22133613.609
  -1005153.59646   -737240.40343  24339445.3524                   24339445.1454
 -10116179.36747  -7819479.86844  23016262.7034                   23016263.4384
 -21428450.862 8 -16655106.447 8  20645103.555
 -14893335.447 8 -11592660.417 7  21846730.727
  -3555310.872 6  -2752676.124 6  23957055.422
    -40518.576 5                  25174729.727
 -15551852.44347 -12067695.32445  21924452.1884                   21924449.6724
 11  8  9  3 22 30.0000000  0  9G25G12G10G26G05G29G15G21G02
 -15072218.592 8 -11731546.295 7  21724784.047
 -13838482.404 8 -10764877.557 7  22148883.438
   -896651.32646   -652693.22143  24360092.2114                   24360092.5904
 -10207096.85447  -7890324.60944  22998962.0314                   22998962.4224
 -21383968.660 8 -16620444.987 8  20653568.305
 -14968480.410 8 -11651214.897 7  21832430.805
  -3652723.833 7  -2828582.226 6  23938518.555
    -98942.674 5                  25163612.117
 -15508113.18448 -12033612.78845  21932774.9774                   21932772.8444
 11  8  9  3 23  0.0000000  0  9G25G12G10G26G05G29G15G21G02
 -15045033.140 8 -11710362.807 7  21729957.344
 -13757933.696 8 -10702112.337 7  22164211.516
   -788082.75646   -568094.31343  24380752.1884                   24380752.3984
 -10297803.29047  -7961004.89844  22981700.8834                   22981701.9224
 -21339041.068 8 -16585436.472 8  20662117.492
 -15043442.153 7 -11709626.601 7  21818166.727
  -3750158.137 6  -2904504.982 6  23919977.633
   -157352.683 5                  25152497.820
 -15464276.03747 -11999453.94845  21941116.8674                   21941115.2154
 11  8  9  3 23 30.0000000  0  9G25G12G10G26G05G29G15G21G02
 -15017316.694 8 -11688765.591 7  21735231.734
 -13677086.573 8 -10639114.612 7  22179596.094
   -679451.82746   -483446.83543  24401423.4384                   24401423.7114
 -10388296.50047  -8031519.03344  22964480.3674                   22964481.3794
 -21293671.846 8 -16550083.833 8  20670751.359
 -15118220.204 8 -11767895.153 7  21803936.273
  -3847612.505 6  -2980443.346 6  23901432.320
   -215750.779 6                  25141384.914
 -15420342.29747 -11965219.86945  21949477.2814                   21949475.3914
 11  8  9  3 24  0.0000000  0  9G25G12G10G26G05G29G15G21G02
 -14989071.459 8 -11666756.333 7  21740606.273
 -13595944.662 8 -10575887.140 7  22195037.250
   -570761.70746   -398753.24943  24422107.6724                   24422107.1454
 -10478573.34847  -8101864.58644  22947301.7974                   22947302.2584
 -21247863.844 8 -16514389.285 8  20679468.570
 -15192812.924 8 -11826019.298 7  21789741.938
  -3945084.649 6  -3056395.555 6  23882883.297
   -274138.016 5                  25130272.031
 -15376312.43048 -11930910.89045  21957855.8834                   21957853.6914
 11  8  9  3 24 30.0000000  0  9G25G12G10G26G05G29G15G21G02
 -14960298.995 8 -11644336.236 7  21746082.031
 -13514510.886 8 -10512432.278 7  22210533.164
   -462014.98145   -314015.57743  24442800.6804                   24442801.0004
 -10568630.10747  -8172038.65744  22930164.3054                   22930164.6254
 -21201618.927 8 -16478354.281 8  20688268.258
 -15267218.038 8 -11883997.250 7  21775583.070
  -4042571.585 6  -3132359.332 6  23864333.281
   -332515.047 6                  25119165.273
 -15332186.55648 -11896527.08845  21966252.5234                   21966250.6454
 11  8  9  3 25  0.0000000  0  9G25G12G10G26G05G29G15G21G02
 -14931001.750 8 -11621507.211 7  21751656.594
 -13432789.004 8 -10448752.887 7  22226084.383
   -353214.26146   -229235.73742  24463504.7504                   24463504.6884
 -10658463.97747  -8242039.02144  22913068.8754                   22913070.0784
 -21154940.426 8 -16441981.414 8  20697151.047
 -15341434.102 8 -11941827.912 7  21761460.117
  -4140071.224 6  -3208332.957 6  23845779.633
   -390882.780 5                  25108057.547
 -15287965.02447 -11862068.75545  21974667.9224                   21974665.4104
 11  8  9  3 25 30.0000000  0  9G25G12G10G26G05G29G15G21G02
 -14901180.603 8 -11598269.971 7  21757331.578
 -13350781.254 8 -10384850.774 7  22241690.367
   -244361.65046   -144415.53742  24484219.0704                   24484218.5634
 -10748070.30847  -8311862.11944  22896017.7894                   22896018.5664
 -21107829.629 8 -16405271.701 8  20706115.984
 -15415458.060 7 -11999508.861 7  21747373.813
  -4237580.186 6  -3284313.857 6  23827222.836
   -449240.804 5                  25096951.547
 -15243647.34347 -11827535.48045  21983101.0234                   21983098.8594
 11  8  9  3 26  0.0000000  0  9G25G12G10G26G05G29G15G21G02
 -14870836.969 8 -11574625.597 7  21763105.938
 -13268490.482 8 -10320728.095 7  22257349.836
   -135459.11246    -59556.41542  24504942.5554                   24504941.3524
 -10837445.00247  -8381504.66544  22879009.9224                   22879010.6884
 -21060288.456 8 -16368226.628 8  20715162.477
 -15489287.774 7 -12057038.457 7  21733324.156
  -4335095.175 6  -3360299.450 6  23808666.680
   -507590.01946    545659.47643  25085849.0704                   25085847.0904
 -15199232.79747 -11792926.74145  21991553.3914                   21991550.8914
 11  8  9  3 26 30.0000000  0  9G25G12G10G26G05G29G15G21G02
 -14839973.848 8 -11550576.420 7  21768978.867
 -13185920.722 7 -10256388.057 7  22273062.289
    -26509.77746     25339.28042  24525674.1644                   24525674.5904
 -10926585.48347  -8450964.72944  22862047.0004                   22862048.0984
 -21012320.340 8 -16330848.850 7  20724290.828
 -15562921.830 7 -12114415.592 7  21719312.094
  -4432614.456 6  -3436288.406 6  23790109.766
   -565931.50446    500198.72742  25074746.2344                   25074746.9414
 -15154722.58048 -11758243.44545  22000023.3284                   22000021.0704
 11  8  9  3 27  0.0000000  0  9G25G12G10G26G05G29G15G21G02
 -14808592.272 8 -11526123.267 7  21774950.547
 -13103074.285 7 -10191832.389 7  22288827.742
     82484.66046    110269.98742  24546416.0394                   24546415.9494
 -11015488.05347  -8520239.41544  22845129.5704                   22845130.1644
 -20963926.835 8 -16293139.620 8  20733499.555
 -15636357.474 7 -12171638.137 7  21705337.359
  -4530134.538 6  -3512277.962 6  23771551.820
   -624265.55546    454743.65842  25063645.5704                   25063647.2304
 -15110115.95447 -11723485.02945  22008511.3284                   22008509.0474
 11  8  9  3 27 30.0000000  0  9G25G12G10G26G05G29G15G21G02
 -14776694.138 8 -11501267.591 7  21781020.781
 -13019954.272 8 -10127063.572 7  22304644.742
    191521.64746    195233.93842  24567164.7424                   24567165.3874
 -11104148.59547  -8589325.50044  22828257.9304                   22828258.9844
 -20915110.037 8 -16255100.540 7  20742789.047
 -15709592.415 7 -12228704.277 7  21691401.836
  -4627652.566 7  -3588265.974 6  23752995.023
   -682592.71546    409294.07742  25052546.5234                   25052547.9654
 -15065413.02247 -11688651.57345  22017018.2034                   22017015.7234
 11  8  9  3 28  0.0000000  0  9G25G12G10G26G05G29G15G21G02
 -14744282.578 8 -11476011.845 7  21787188.320
 -12936565.082 7 -10062085.003 7  22320513.367
    300597.52146    280228.15942  24587921.3284                   24587922.2934
 -11192564.66647  -8658221.10344  22811433.4844                   22811434.2464
 -20865873.712 8 -16216734.561 8  20752158.445
 -15782625.930 8 -12285613.475 7  21677503.992
  -4725167.048 6  -3664251.220 6  23734438.375
   -740914.81446    363848.41442  25041447.4924                   25041449.5594
 -15020614.84247 -11653743.90445  22025542.5234                   22025541.0984
 11  8  9  3 28 30.0000000  0  8G25G12G26G05G29G15G21G02
 -14711356.881 8 -11450355.463 7  21793453.539
 -12852907.530 7  -9996897.303 7  22336433.039
 -11280730.34147  -8726921.58644  22794655.3524                   22794656.7384
 -20816217.681 8 -16178041.544 8  20761607.641
 -15855453.107 7 -12342361.895 7  21663645.055
  -4822672.312 6  -3740229.254 6  23715883.953
   -799229.63146    318408.39742  25030350.7504                   25030352.1294
 -14975718.94847 -11618760.09045  22034086.0864                   22034084.4104
 11  8  9  3 29  0.0000000  0  8G25G12G26G05G29G15G21G02
 -14677919.039 8 -11424300.016 7  21799816.930
 -12768984.420 7  -9931502.677 7  22352402.703
 -11368642.02247  -8795424.14644  22777926.4924                   22777927.0474
 -20766144.155 8 -16139023.199 8  20771136.445
 -15928071.809 7 -12398947.865 7  21649826.305
  -4920165.917 7  -3816198.223 6  23697330.945
   -857538.04846    272973.37942  25019254.9694                   25019255.9144
 -14930725.13047 -11583699.98945  22042647.8364                   22042646.0594
 11  8  9  3 29 30.0000000  0  8G25G12G26G05G29G15G21G02
 -14643971.966 8 -11397847.758 7  21806277.141
 -12684799.965 7  -9865904.439 7  22368422.313
 -11456297.00947  -8863726.68544  22761246.2344                   22761246.9534
 -20715656.622 8 -16099682.255 7  20780743.195
 -16000481.130 7 -12455370.667 7  21636047.203
  -5017646.023 6  -3892156.684 6  23678781.508
   -915841.52045    227542.21942  25008160.0314                   25008161.1604
 -14885634.35547 -11548564.30545  22051228.2344                   22051226.3834
 11  8  9  3 30  0.0000000  0  8G25G12G26G05G29G15G21G02
 -14609518.017 8 -11371000.543 7  21812833.398
 -12600357.385 7  -9800105.047 7  22384491.297
 -11543691.80647  -8931826.48344  22744615.7034                   22744616.2114
 -20664757.599 8 -16060020.672 8  20790429.461
 -16072679.224 7 -12511628.889 7  21622308.203
  -5115110.111 6  -3968102.635 6  23660234.320
   -974141.14546    182114.04642  24997066.5234                   24997067.1094
 -14840446.97147 -11513353.37245  22059827.4534                   22059825.6764
 11  8  9  3 30 30.0000000  0  8G25G12G26G05G29G15G21G02
 -14574558.198 8 -11343759.126 7  21819485.914
 -12515658.983 7  -9734106.301 7  22400608.734
 -11630822.21947  -8999720.25744  22728035.3134                   22728036.5164
 -20613448.431 8 -16020039.482 7  20800193.461
 -16144662.700 8 -12567719.883 7  21608610.453
  -5212554.188 6  -4044033.004 6  23641690.969
  -1032436.65346    136689.11642  24985972.8834                   24985973.4304
 -14795162.02547 -11478066.40745  22068445.1484                   22068443.6644
 11  8  9  3 31  0.0000000  0  8G25G12G26G05G29G15G21G02
 -14539094.591 8 -11316125.159 7  21826234.484
 -12430708.270 7  -9667910.959 7  22416774.211
 -11717684.67147  -9067405.24644  22711506.1174                   22711506.2704
 -20561731.879 8 -15979740.851 7  20810034.828
 -16216429.392 8 -12623641.956 7  21594953.719
  -5309975.646 7  -4119945.767 6  23623152.641
  -1090728.42146     91267.11242  24974880.5784                   24974880.8674
 -14749779.52747 -11442703.42545  22077081.1024                   22077079.0004
 11  8  9  3 31 30.0000000  0  8G25G12G26G05G29G15G21G02
 -14503129.849 8 -11288100.691 7  21833078.484
 -12345508.511 7  -9601521.541 7  22432986.789
 -11804275.84847  -9134878.83444  22695027.9924                   22695028.8054
 -20509610.692 8 -15939126.940 7  20819953.078
 -16287977.928 8 -12679394.041 7  21581339.109
  -5407372.081 7  -4195839.001 6  23604618.289
  -1149017.68346     45847.02842  24963787.4384                   24963787.8364
 -14704299.83347 -11407264.70045  22085735.4304                   22085733.3984
 11  8  9  3 32  0.0000000  0  8G25G12G26G05G29G15G21G02
 -14466665.335 8 -11259686.793 7  21840017.398
 -12260062.244 7  -9534940.079 7  22449247.453
 -11890591.91647  -9202138.06144  22678602.6644                   22678603.2194
 -20457086.754 8 -15898199.178 7  20829947.852
 -16359305.469 8 -12734973.934 7  21567765.609
  -5504740.175 7  -4271710.122 6  23586090.117
  -1207304.60446       428.79443  24952696.1334                   24952697.2664
 -14658722.18447 -11371749.66745  22094408.8134                   22094406.7504
 11  8  9  3 32 30.0000000  0  8G25G12G26G05G29G15G21G02
 -14429703.697 8 -11230885.516 7  21847050.805
 -12174373.460 7  -9468169.592 7  22465553.117
 -11976629.47447  -9269180.27044  22662230.5784                   22662230.8634
 -20404162.946 8 -15856959.840 7  20840019.039
 -16430410.329 8 -12790380.300 7  21554234.133
  -5602077.418 7  -4347557.276 6  23567567.320
  -1265589.95646    -44988.27543  24941604.5164                   24941606.6414
 -14613047.24747 -11336158.80145  22103099.9924                   22103097.7584
 11  8  9  3 33  0.0000000  0  8G25G12G26G05G29G15G21G02
 -14392246.128 8 -11201697.812 7  21854178.617
 -12088444.175 7  -9401211.742 7  22481905.086
 -12062384.02847  -9336001.96044  22645911.4064                   22645911.7424
 -20350840.614 8 -15815409.981 7  20850166.203
 -16501289.137 8 -12845610.503 7  21540746.727
  -5699380.142 6  -4423377.462 6  23549050.734
  -1323873.89646    -90404.14142  24930513.4844                   24930514.5394
 -14567273.97647 -11300491.32245  22111810.6564                   22111808.4494
 11  8  9  3 33 30.0000000  0  8G25G12G26G05G29G15G21G02
 -14354294.614 8 -11172125.217 7  21861400.844
 -12002277.458 7  -9334068.839 7  22498302.648
 -12147852.26447  -9402600.51944  22629647.5554                   22629647.5744
 -20297122.196 8 -15773551.458 7  20860387.961
 -16571939.734 8 -12900662.893 7  21527302.469
  -5796645.755 7  -4499168.754 6  23530542.477
  -1382156.71446   -135819.21443  24919422.0864                   24919423.5474
 -14521402.08247 -11264746.99845  22120539.9924                   22120537.3364
 11  8  9  3 34  0.0000000  0  8G25G12G26G05G29G15G21G02
 -14315851.658 8 -11142169.674 7  21868716.297
 -11915876.790 7  -9266743.676 7  22514743.773
 -12233030.46047  -9468973.11744  22613438.6254                   22613439.1134
 -20243010.504 8 -15731386.498 7  20870685.211
 -16642360.428 8 -12955536.171 7  21513901.828
  -5893871.180 6  -4574928.727 6  23512041.117
  -1440439.32446   -181234.13943  24908331.8834                   24908333.0824
 -14475431.81047 -11228926.00445  22129287.1094                   22129285.4264
 11  8  9  3 34 30.0000000  0  8G25G12G26G05G29G15G21G02
 -14276919.057 8 -11111832.596 7  21876124.828
 -11829244.616 7  -9199238.094 7  22531229.148
 -12317914.87747  -9535116.77044  22597285.4924                   22597286.3014
 -20188507.499 8 -15688916.601 7  20881056.766
 -16712548.584 8 -13010228.235 7  21500545.289
  -5991053.098 6  -4650654.785 6  23493547.281
  -1498721.78646   -226648.91042  24897240.3984                   24897241.8524
 -14429362.91747 -11193028.18645  22138054.0554                   22138051.8014
 11  8  9  3 35  0.0000000  0  8G25G12G26G05G29G15G21G02
 -14237499.605 8 -11081116.144 7  21883626.250
 -11742385.349 7  -9131555.540 7  22547758.227
 -12402502.36547  -9601029.06944  22581189.0864                   22581189.4144
 -20133616.139 8 -15646144.102 7  20891501.922
 -16782502.733 8 -13064737.948 7  21487233.273
  -6088189.454 6  -4726345.362 6  23475063.094
  -1557005.59846   -272064.68042  24886149.3444                   24886150.5394
 -14383195.87147 -11157053.87845  22146839.7194                   22146837.0664
 11  8  9  3 35 30.0000000  0  8G25G12G26G05G29G15G21G02
 -14197595.000 8 -11050021.648 7  21891219.734
 -11655301.309 7  -9063697.858 7  22564329.664
 -12486789.17047  -9666707.05244  22565150.0084                   22565150.5004
 -20078338.510 8 -15603070.643 8  20902021.289
 -16852219.899 8 -13119062.998 7  21473966.484
  -6185276.828 6  -4801997.759 6  23456587.828
  -1615290.80146   -317481.62243  24875058.7504                   24875058.5554
 -14336929.84947 -11121002.43145  22155643.9694                   22155641.3674
 11  8  9  3 36  0.0000000  0  8G25G12G26G05G29G15G21G02
 -14157207.235 8 -11018550.683 7  21898905.258
 -11567995.620 7  -8995667.459 6  22580943.508
 -12570771.25647  -9732147.60944  22549168.8674                   22549168.8524
 -20022676.915 8 -15559697.958 7  20912613.414
 -16921697.901 8 -13173201.697 7  21460745.563
  -6282312.220 7  -4877609.666 6  23438122.813
  -1673577.60146   -362899.74943  24863966.7424                   24863967.5474
 -14290564.72148 -11084873.75945  22164466.4614                   22164464.1024
 11  8  9  3 36 30.0000000  0  8G25G12G26G05G29G15G21G02
 -14116338.544 8 -10986704.965 7  21906682.141
 -11480471.192 7  -8927466.633 7  22597598.727
 -12654445.17347  -9797348.00845  22533246.2504                   22533246.2974
 -19966633.760 8 -15516027.952 7  20923277.984
 -16990934.487 8 -13227152.278 7  21447570.063
  -6379292.662 7  -4953178.766 6  23419667.758
  -1731866.72646   -408319.76443  24852874.7424                   24852874.3524
 -14244100.19947 -11048667.63545  22173308.3284                   22173305.8444
 11  8  9  3 37  0.0000000  0  8G25G12G26G05G29G15G21G02
 -14074990.436 8 -10954485.671 7  21914550.625
 -11392730.402 7  -8859097.209 7  22614294.898
 -12737806.52847  -9862304.88745  22517382.6884                   22517383.3014
 -19910210.776 8 -15472061.993 7  20934014.641
 -17059926.479 8 -13280912.257 7  21434441.594
  -6476214.739 7  -5028702.373 6  23401223.898
  -1790158.08646   -453741.50043  24841782.6484                   24841782.9104
 -14197535.65948 -11012383.59345  22182169.9304                   22182166.7034
 11  8  9  3 37 30.0000000  0  8G25G12G26G05G29G15G21G02
 -14033165.378 8 -10921894.728 7  21922510.063
 -11304776.815 7  -8790561.966 7  22631032.227
 -12820851.86447  -9927015.50044  22501580.1334                   22501579.9264
 -19853410.355 8 -15427801.910 7  20944823.586
 -17128671.791 8 -13334480.011 7  21421359.313
  -6573075.223 7  -5104177.979 6  23382792.555
  -1848452.36446   -499165.53543  24830689.0234                   24830689.2854
 -14150871.04848 -10976021.54745  22191049.1954                   22191047.1214
 11  8  9  3 38  0.0000000  0  8G25G12G26G05G29G15G21G02
 -13990866.271 8 -10888934.399 7  21930558.594
 -11216614.282 7  -8721863.892 7  22647809.164
 -12903578.05547  -9991477.42145  22485837.3674                   22485837.8754
 -19796235.681 8 -15383250.209 7  20955703.594
 -17197169.100 8 -13387854.519 7  21408324.602
  -6669872.030 7  -5179603.969 6  23364371.672
  -1906750.58746   -544592.65942  24819595.3594                   24819595.5744
 -14104106.90747 -10939581.98645  22199948.5784                   22199946.4804
 11  8  9  3 38 30.0000000  0  8G25G12G26G05G29G15G21G02
 -13948094.956 8 -10855606.106 7  21938697.961
 -11128245.297 7  -8653004.971 7  22664625.438
 -12985981.47047 -10055687.83545  22470156.1804                   22470157.5704
 -19738688.973 8 -15338408.615 7  20966654.273
 -17265415.519 8 -13441033.532 7  21395337.781
  -6766601.671 7  -5254977.638 6  23345964.602
  -1965053.15246   -590023.14643  24808499.3914                   24808500.8134
 -14057242.44948 -10903064.22345  22208866.9694                   22208864.5634
 11  8  9  3 39  0.0000000  0  8G25G12G26G05G29G15G21G02
 -13904853.566 8 -10821911.526 7  21946927.055
 -11039672.730 7  -8583987.396 7  22681479.148
 -13068058.07747 -10119643.61444  22454537.9534                   22454537.9804
 -19680772.255 8 -15293278.705 7  20977675.695
 -17333408.744 8 -13494015.257 7  21382399.211
  -6863261.150 7  -5330296.662 6  23327571.117
  -2023360.27946   -635457.23443  24797405.0474                   24797404.8364
 -14010277.49547 -10866468.15045  22217803.3674                   22217801.3484
 11  8  9  3 39 30.0000000  0  8G25G12G26G05G29G15G21G02
 -13861144.252 8 -10787852.339 7  21955244.555
 -10950899.706 7  -8514813.639 7  22698372.430
 -13149804.02747 -10183341.70045  22438981.4844                   22438982.5204
 -19622488.074 8 -15247862.467 7  20988767.133
 -17401146.110 8 -13546797.618 7  21369509.273
  -6959847.433 7  -5405558.575 6  23309191.719
  -2081672.48646   -680895.19343  24786308.3444                   24786309.0744
 -13963211.74047 -10829793.55145  22226760.2194                   22226758.4264
 11  8  9  3 40  0.0000000  0  8G25G12G26G05G29G15G21G02
 -13816969.248 7 -10753430.272 7  21963650.180
 -10861928.983 7  -8445485.829 7  22715303.438
 -13231215.99647 -10246779.56344  22423489.6564                   22423490.7504
 -19563838.569 8 -15202161.557 7  20999927.523
 -17468625.460 8 -13599378.916 7  21356668.500
  -7056357.574 7  -5480761.222 6  23290826.156
  -2139990.14546   -726337.46343  24775210.4144                   24775211.4534
 -13916044.77447 -10793040.06345  22235735.7894                   22235733.2774
 11  8  9  3 40 30.0000000  0  8G25G12G26G05G29G15G21G02
 -13772331.312 8 -10718647.459 7  21972144.891
 -10772764.629 7  -8376007.125 6  22732270.844
 -13312290.60847 -10309954.56545  22408061.8594                   22408062.1294
 -19504826.794 8 -15156178.364 7  21011157.352
 -17535845.030 8 -13651757.765 7  21343876.906
  -7152788.684 7  -5555902.249 6  23272475.633
  -2198314.33046   -771784.80343  24764111.6174                   24764112.9494
 -13868777.05948 -10756208.07245  22244730.3444                   22244728.5474
 11  8  9  3 41  0.0000000  0  8G25G12G26G05G29G15G21G02
 -13727231.785 8 -10683504.988 7  21980726.984
 -10683408.672 7  -8306379.130 6  22749274.523
 -13393023.14747 -10372862.99744  22392698.9694                   22392699.0594
 -19445454.099 8 -15109913.913 7  21022455.602
 -17602801.297 8 -13703931.455 7  21331135.789
  -7249136.927 7  -5630978.729 6  23254140.961
  -2256644.50246   -817236.82843  24753012.8134                   24753012.2304
 -13821407.43847 -10719296.67645  22253744.3364                   22253742.5984
 11  8  9  3 41 30.0000000  0  8G25G12G26G05G29G15G21G02
 -13681674.336 8 -10648005.703 7  21989396.500
 -10593865.441 7  -8236605.218 7  22766314.094
 -13473411.39247 -10435503.16045  22377401.6174                   22377402.7934
 -19385724.258 8 -15063371.180 7  21033821.258
 -17669493.483 8 -13755899.392 7  21318444.367
  -7345400.656 7  -5705989.343 6  23235823.063
  -2314981.85846   -862694.39143  24741909.0634                   24741910.8444
 -13773936.71948 -10682306.51645  22262777.6024                   22262775.9494
 11  8  9  3 42  0.0000000  0  8G25G12G26G05G29G15G21G02
 -13635660.676 8 -10612150.891 7  21998152.586
 -10504137.037 7  -8166686.984 6  22783389.141
 -13553451.20147 -10497871.81245  22362170.9064                   22362171.5744
 -19325638.997 8 -15016551.496 7  21045255.180
 -17735918.664 8 -13807659.260 7  21305804.125
  -7441576.049 7  -5780931.139 6  23217521.008
  -2373326.65346   -908157.83243  24730807.4844                   24730808.1484
 -13726363.99448 -10645236.88445  22271830.1414                   22271828.9694
 11  8  9  3 42 30.0000000  0  8G25G12G26G05G29G15G21G02
 -13589193.707 8 -10575942.877 7  22006994.570
 -10414227.408 7  -8096627.546 6  22800498.500
 -13633139.31947 -10559966.43145  22347005.9694                   22347006.3244
 -19265201.095 8 -14969457.028 7  21056756.164
 -17802074.923 8 -13859209.572 7  21293214.953
  -7537660.754 7  -5855802.281 6  23199236.180
  -2431680.43946   -953628.24543  24719703.8284                   24719703.5824
 -13678689.64447 -10608088.04845  22280902.3364                   22280901.1054
 11  8  9  3 43  0.0000000  0  8G25G12G26G05G29G15G21G02
 -13542274.988 8 -10539382.862 7  22015923.242
 -10324138.789 7  -8026428.644 6  22817641.695
 -13712471.34947 -10621783.56345  22331909.9304                   22331910.5554
 -19204412.425 8 -14922089.229 7  21068323.852
 -17867958.992 8 -13910547.805 7  21280677.664
  -7633650.748 7  -5930599.607 6  23180970.547
  -2490042.38346   -999104.98443  24708597.8834                   24708597.0944
 -13630912.76547 -10570859.30945  22289994.1644                   22289992.3054
 11  8  9  3 43 30.0000000  0  8G25G12G26G05G29G15G21G02
 -13494907.439 8 -10502473.081 7  22024937.086
 -10233874.880 7  -7956093.133 7  22834818.344
 -13791444.24547 -10683320.85645  22316882.0394                   22316882.6954
 -19143275.889 8 -14874450.372 7  21079958.031
 -17933569.055 8 -13961672.499 7  21268193.008
  -7729543.462 7  -6005321.122 6  23162722.469
  -2548413.57146  -1044588.99143  24697490.0394                   24697489.3554
 -13583033.54048 -10533550.82145  22299105.2584                   22299103.4344
 11  8  9  3 44  0.0000000  0  8G25G12G26G05G29G15G21G02
 -13447093.053 8 -10465215.132 7  22034035.094
 -10143438.070 7  -7885622.915 7  22852027.727
 -13870054.05447 -10744575.21345  22301922.7034                   22301922.7774
 -19081793.390 8 -14826541.927 7  21091657.516
 -17998902.536 8 -14012581.671 7  21255760.203
  -7825335.563 7  -6079964.230 6  23144493.641
  -2606793.80146  -1090079.98443  24686379.7344                   24686379.7504
 -13535051.14647 -10496161.92445  22308236.8834                   22308234.2774
 11  8  9  3 44 30.0000000  0  8G25G12G26G05G29G15G21G02
 -13398833.450 8 -10427610.271 7  22043219.328
 -10052830.785 7  -7815019.874 7  22869269.875
 -13948296.40447 -10805543.23845  22287033.3984                   22287034.2504
 -19019966.720 8 -14778365.309 7  21103423.133
 -18063956.077 8 -14063272.716 7  21243380.688
  -7921023.027 7  -6154525.830 6  23126285.273
  -2665183.18446  -1135578.12443  24675268.7034                   24675268.3444
 -13486964.75548 -10458691.99745  22317386.7424                   22317384.6604
 11  8  9  3 45  0.0000000  0  8G25G12G26G05G29G15G21G02
 -13350132.498 8 -10389661.471 7  22052486.906
  -9962057.365 7  -7744287.371 7  22886543.984
 -14026168.92947 -10866223.10345  22272214.8204                   22272215.0084
 -18957799.545 8 -14729923.358 7  21115252.719
 -18128728.732 8 -14113744.890 7  21231055.172
  -8016604.406 7  -6229004.730 6  23108096.766
  -2723583.41146  -1181084.70943  24664155.1884                   24664155.4844
 -13438775.36247 -10421141.82245  22326557.2194                   22326554.3984
 11  8  9  3 45 30.0000000  0  8G25G12G26G05G29G15G21G02
 -13300992.468 8 -10351370.543 7  22061837.852
  -9871121.126 7  -7673428.000 6  22903847.742
 -14103667.92447 -10926611.91845  22257467.3284                   22257467.9534
 -18895294.258 8 -14681217.934 7  21127147.375
 -18193218.408 8 -14163996.562 7  21218782.922
  -8112076.379 7  -6303398.389 6  23089928.953
  -2781994.59946  -1226599.83143  24653040.6414                   24653039.7114
 -13390482.47647 -10383510.99245  22335747.2034                   22335744.4454
 11  8  9  3 46  0.0000000  0  8G25G12G26G05G29G15G21G02
 -13251415.595 8 -10312739.239 7  22071271.742
  -9780024.511 7  -7602443.630 7  22921183.414
 -14180789.78547 -10986706.84645  22242791.6884                   22242792.1334
 -18832452.968 8 -14632250.688 7  21139105.289
 -18257422.096 8 -14214025.376 7  21206565.000
  -8207435.505 7  -6377704.135 6  23071781.938
  -2840416.95146  -1272123.68243  24641922.6024                   24641921.9804
 -13342085.85247 -10345799.32845  22344956.5554                   22344954.2274
 11  8  9  3 46 30.0000000  0  8G25G12G26G05G29G15G21G02
 -13201404.364 8 -10273769.468 7  22080788.805
  -9688770.637 7  -7531336.752 7  22938548.102
 -14257530.49847 -11046504.76345  22228187.9694                   22228188.6804
 -18769277.982 8 -14583023.434 7  21151127.273
 -18321337.707 8 -14263829.724 7  21194402.281
  -8302678.819 7  -6451919.612 6  23053658.453
  -2898850.85146  -1317656.50743  24630803.0704                   24630803.0904
 -13293584.84847 -10308006.33945  22354186.2114                   22354183.8914
 11  8  9  3 47  0.0000000  0  8G25G12G26G05G29G15G21G02
 -13150960.995 8 -10234462.960 7  22090387.453
  -9597362.513 7  -7460109.680 7  22955943.133
 -14333886.55347 -11106002.96945  22213658.2194                   22213658.7934
 -18705771.701 8 -14533538.007 7  21163212.188
 -18384962.219 8 -14313407.230 7  21182295.422
  -8397802.987 7  -6526042.268 6  23035556.883
  -2957296.56846  -1363198.51343  24619681.7974                   24619681.3594
 -13244978.99547 -10270131.65245  22363434.9064                   22363432.7074
 11  8  9  3 47 30.0000000  0  8G25G12G26G05G29G15G21G02
 -13100088.497 8 -10194822.072 7  22100068.344
  -9505803.653 7  -7388765.146 7  22973365.617
 -14409854.73947 -11165198.94245  22199202.4924                   22199202.9454
 -18641937.080 8 -14483796.733 7  21175359.617
 -18448294.383 8 -14362756.940 7  21170243.422
  -8492805.323 7  -6600070.000 6  23017477.766
  -3015755.46546  -1408750.83043  24608556.9064                   24608557.5084
 -13196268.57747 -10232175.49145  22372704.0704                   22372702.3404
 11  8  9  3 48  0.0000000  0  8G25G12G26G05G29G15G21G02
 -13048788.588 8 -10154848.139 7  22109830.555
  -9414096.133 7  -7317304.774 7  22990817.313
 -14485430.71747 -11224089.28745  22184820.4694                   22184820.8164
 -18577775.710 8 -14433800.866 7  21187568.797
 -18511330.883 8 -14411876.270 7  21158248.156
  -8587681.991 7  -6673999.825 6  22999423.438
  -3074226.98046  -1454312.97043  24597430.3524                   24597430.4184
 -13147452.32947 -10194136.85945  22381993.7424                   22381991.6024
 11  8  9  3 48 30.0000000  0  8G25G12G26G05G29G15G21G02
 -12997065.012 7 -10114544.073 7  22119672.953
  -9322244.576 7  -7245732.142 7  23008296.320
 -14560612.33647 -11282672.33945  22170513.4924                   22170514.6174
 -18513291.099 8 -14383553.118 7  21199839.688
 -18574070.455 8 -14460764.230 7  21146309.422
  -8682431.180 7  -6747830.317 6  22981393.500
  -3132712.53346  -1499886.05243  24586300.6564                   24586301.0044
 -13098531.10247 -10156016.42645  22391303.2504                   22391301.2274
 11  8  9  3 49  0.0000000  0  8G25G12G26G05G29G15G21G02
 -12944919.843 8 -10073911.489 7  22129596.164
  -9230251.205 7  -7174049.023 6  23025801.656
 -14635395.26947 -11340944.73245  22156282.9454                   22156283.1884
 -18448485.243 8 -14333055.036 7  21212172.102
 -18636510.179 8 -14509418.545 7  21134427.344
  -8777048.998 7  -6821558.478 6  22963388.102
  -3191212.01846  -1545470.03543  24575168.6724                   24575168.1564
 -13049504.37447 -10117813.77245  22400633.1254                   22400630.7114
 11  8  9  3 49 30.0000000  0  9G25G12G18G26G05G29G15G21G02
 -12892355.668 8 -10032952.434 7  22139598.617
  -9138119.054 7  -7102257.769 6  23043333.813
   -276166.148 5                  24678799.727
 -14709776.16547 -11398903.85045  22142128.7814                   22142129.1724
 -18383360.335 8 -14282308.353 7  21224564.875
 -18698647.863 8 -14557837.491 7  21122602.938
  -8871532.751 7  -6895182.157 6  22945408.359
  -3249725.88546  -1591065.17643  24564034.7814                   24564034.2544
 -13000371.87947 -10079528.69945  22409982.6174                   22409979.9144
 11  8  9  3 50  0.0000000  0  9G25G12G18G26G05G29G15G21G02
 -12839374.453 8  -9991668.375 7  22149680.656
  -9045850.915 7  -7030360.541 6  23060892.188
                                  24661719.844
 -14783750.81247 -11456546.40445  22128051.7504                   22128052.8874
 -18317918.470 8 -14231314.690 7  21237018.164
 -18760480.563 8 -14606018.808 7  21110836.555
  -8965878.640 7  -6968698.424 6  22927455.203
  -3308254.07546  -1636671.53643  24552896.5004                   24552896.6374
 -12951132.71048 -10041160.52445  22419352.5084                   22419350.0044
 11  8  9  3 50 30.0000000  0  9G25G12G18G26G05G29G15G21G02
 -12785980.973 8  -9950063.095 7  22159841.141
  -8953451.904 7  -6958361.334 6  23078474.461
                                  24644673.914
 -14857317.90947 -11513871.38245  22114052.5864                   22114052.6454
 -18252164.390 8 -14180077.746 7  21249530.914
 -18822008.055 8 -14653962.304 7  21099128.305
  -9060085.675 7  -7042106.488 7  22909527.320
  -3366799.50146  -1682291.28343  24541755.7664                   24541755.4694
 -12901788.54547 -10002710.53145  22428742.5944                   22428739.8444
 11  8  9  3 51  0.0000000  0  9G25G12G18G26G05G29G15G21G02
 -12732174.518 8  -9908135.997 7  22170080.477
  -8860921.388 7  -6886259.690 6  23096082.797
   -544934.158 5                  24627655.992
 -14930470.58247 -11570873.45645  22100131.9454                   22100132.3674
 -18186097.037 8 -14128596.681 7  21262103.016
 -18883224.352 8 -14701663.286 7  21087479.586
  -9154147.220 7  -7115401.183 6  22891628.859
  -3425358.63647  -1727921.70843  24530612.6024                   24530612.1914
 -12852335.77647  -9964175.91745  22438152.6804                   22438150.8524
 11  8  9  3 51 30.0000000  0  9G25G12G18G26G05G29G15G21G02
 -12677958.657 8  -9865889.889 7  22180397.000
  -8768263.643 7  -6814058.879 6  23113715.070
   -634197.527 6                  24610668.539
 -15003206.34947 -11627550.66345  22086290.7664                   22086291.0784
 -18119719.923 8 -14076874.260 7  21274734.305
 -18944128.401 8 -14749120.970 7  21075889.664
  -9248061.475 7  -7188581.119 6  22873757.945
  -3483933.08046  -1773564.06443  24519465.6094                   24519465.0044
 -12802774.81847  -9925556.99945  22447583.6334                   22447581.9454
 11  8  9  3 52  0.0000000  0  9G25G12G18G26G05G29G15G21G02
 -12623336.775 8  -9823327.412 7  22190791.594
  -8675482.541 7  -6741761.950 6  23131371.297
   -723296.19846    181180.19142  24593713.7274                   24593713.1524
 -15075522.49147 -11683900.86845  22072529.2194                   22072530.2704
 -18053036.318 8 -14024913.008 7  21287423.539
 -19004718.583 8 -14796334.085 7  21064359.133
  -9341825.701 7  -7261644.133 6  22855915.203
  -3542523.89246  -1819219.14343  24508315.8984                   24508315.1334
 -12753106.42847  -9886854.35345  22457035.6254                   22457033.5474
 11  8  9  3 52 30.0000000  0  9G25G12G18G26G05G29G15G21G02
 -12568311.274 8  -9780450.402 7  22201262.297
  -8582580.890 7  -6669371.082 6  23149049.539
   -812229.06646    111882.01142  24576789.7194                   24576790.6914
 -15147415.30747 -11739921.24045  22058848.7974                   22058848.9924
 -17986048.281 8 -13972714.528 7  21300170.945
 -19064992.253 8 -14843300.561 7  21052889.711
  -9435436.744 7  -7334587.770 7  22838101.422
  -3601131.57946  -1864887.41443  24497162.9064                   24497162.7424
 -12703329.96647  -9848067.51845  22466507.8984                   22466505.4774
 11  8  9  3 53  0.0000000  0  9G25G12G18G26G05G29G15G21G02
 -12512884.752 8  -9737260.913 7  22211809.453
  -8489561.566 7  -6596888.484 6  23166750.172
   -900994.42146     42714.34842  24559897.8204                   24559899.7814
 -15218881.28147 -11795608.97945  22045249.1094                   22045249.9844
 -17918758.242 8 -13920280.728 7  21312975.898
 -19124946.836 8 -14890018.392 7  21041480.641
  -9528891.481 7  -7407409.628 7  22820317.273
  -3659756.15546  -1910568.81643  24486007.0004                   24486006.6024
 -12653445.09847  -9809196.19645  22476000.5784                   22475998.8444
 11  8  9  3 53 30.0000000  0  9G25G12G18G26G05G29G15G21G02
 -12457059.793 8  -9693760.984 7  22222433.125
  -8396427.700 6  -6524316.702 6  23184472.992
   -989591.23846    -26321.99942  24543038.5864                   24543040.3524
 -15289916.63348 -11850961.18245  22031731.5944                   22031731.9384
 -17851168.501 8 -13867613.399 7  21325837.531
 -19184580.119 8 -14936485.883 7  21030133.172
  -9622186.527 7  -7480107.036 7  22802563.719
  -3718398.16946  -1956263.80643  24474847.2974                   24474847.0124
 -12603451.19447  -9770239.92045  22485513.9694                   22485511.7544
 11  8  9  3 54  0.0000000  0  9G25G12G18G26G05G29G15G21G02
 -12400840.048 8  -9649953.384 7  22233131.672
  -8303183.139 7  -6451658.631 6  23202216.406
  -1078019.18646    -95226.82142  24526210.9454                   24526212.6724
 -15360519.12947 -11905976.09945  22018296.2114                   22018296.4654
 -17783282.154 8 -13814714.937 7  21338756.219
 -19243890.888 8 -14982702.053 7  21018845.953
  -9715319.839 7  -7552678.400 7  22784841.359
  -3777058.64346  -2001973.25043  24463684.3204                   24463683.6954
 -12553348.97447  -9731199.24045  22495047.6564                   22495045.6054
 11  8  9  3 54 30.0000000  0  9G25G12G18G26G05G29G15G21G02
 -12344227.227 7  -9605839.511 7  22243904.586
  -8209830.099 7  -6378916.019 6  23219981.641
  -1166275.93646   -163998.23342  24509415.8754                   24509417.9184
 -15430684.40347 -11960650.29845  22004944.3834                   22004944.9534
 -17715100.982 8 -13761586.748 7  21351730.328
 -19302875.712 8 -15028664.238 7  21007621.680
  -9808287.337 7  -7625120.562 7  22767150.211
  -3835737.26146  -2047696.79943  24452518.6254                   24452518.4344
 -12503136.85447  -9692072.92245  22504602.7194                   22504600.7774
 11  8  9  3 55  0.0000000  0  9G25G12G18G26G05G29G15G21G02
 -12287224.506 8  -9561421.827 7  22254751.516
  -8116372.032 7  -6306091.594 6  23237765.711
  -1254360.73046   -232635.57442  24492654.1484                   24492656.0634
 -15500409.22247 -12014981.30545  21991676.2114                   21991676.5664
 -17646627.948 8 -13708231.142 7  21364760.203
 -19361532.695 8 -15074370.970 7  20996459.797
  -9901086.037 7  -7697431.187 6  22749490.609
  -3894434.97246  -2093435.26043  24441349.0164                   24441348.7854
 -12452815.42847  -9652861.43945  22514179.4454                   22514176.8554
 11  8  9  3 55 30.0000000  0  9G25G12G18G26G05G29G15G21G02
 -12229835.049 8  -9516702.778 7  22265672.367
  -8022811.926 7  -6233187.669 6  23255570.844
  -1342272.78646   -301138.36642  24475925.0944                   24475927.2034
 -15569690.88147 -12068967.00945  21978492.0084                   21978492.1604
 -17577865.675 8 -13654650.143 7  21377845.461
 -19419859.540 8 -15119820.441 7  20985360.328
  -9993713.727 7  -7769608.567 7  22731864.469
  -3953152.18746  -2139188.87443  24430175.4534                   24430175.4654
 -12402384.51147  -9613564.63645  22523775.4534                   22523773.4344
 11  8  9  3 56  0.0000000  0  9G25G12G18G26G05G29G15G21G02
 -12172061.288 7  -9471684.266 7  22276666.195
  -7929153.085 7  -6160206.760 6  23273392.727
  -1430010.73246   -369505.50442  24459230.7034                   24459230.5944
 -15638525.28447 -12122604.16245  21965393.6024                   21965393.8754
 -17508816.483 8 -13600845.572 7  21390985.094
 -19477853.952 8 -15165010.883 7  20974324.578
 -10086166.712 7  -7841649.818 6  22714271.211
  -4011889.31345  -2184958.00143  24418998.3914                   24418998.5984
 -12351843.38447  -9574181.94445  22533393.6884                   22533391.2034
 11  8  9  3 56 30.0000000  0  9G25G12G18G26G05G29G15G21G02
 -12113905.178 7  -9426367.844 7  22287733.313
  -7835397.566 7  -6087150.527 6  23291233.914
  -1517572.58846   -437735.39742  24442566.2504                   24442568.1054
 -15706908.63747 -12175889.87345  21952380.0784                   21952381.0784
 -17439482.196 8 -13546818.850 7  21404178.813
 -19535513.022 8 -15209940.027 7  20963352.531
 -10178441.198 7  -7913551.951 6  22696711.742
  -4070645.76146  -2230742.26343  24407818.3754                   24407817.2624
 -12301191.12747  -9534712.66645  22543032.3054                   22543030.2384
 11  8  9  3 57  0.0000000  0  9G25G12G18G26G05G29G15G21G02
 -12055370.559 7  -9380756.457 7  22298871.664
  -7741549.289 7  -6014022.039 6  23309092.969
  -1604957.84446   -505827.69842  24425937.4144                   24425940.0124
 -15774838.46447 -12228822.17945  21939453.7114                   21939454.4494
 -17369866.068 8 -13492572.508 7  21417426.555
 -19592835.329 8 -15254606.740 7  20952443.977
 -10270534.925 7  -7985313.263 7  22679187.383
  -4129423.09146  -2276542.72043  24396632.2894                   24396632.7624
 -12250428.37447  -9495157.28845  22552691.7734                   22552689.9264
 11  8  9  3 57 30.0000000  0  9G25G12G18G26G05G29G15G21G02
 -11996459.548 8  -9334851.769 7  22310082.352
  -7647611.135 7  -5940823.502 6  23326968.820
  -1692164.93546   -573781.30442  24409342.8054                   24409343.3754
 -15842310.90447 -12281398.07645  21926613.8284                   21926614.5164
 -17299969.908 8 -13438107.967 7  21430727.008
 -19649817.644 8 -15299008.532 7  20941600.891
 -10362444.290 7  -8056930.885 6  22661697.336
  -4188220.79946  -2322359.08343  24385444.1254                   24385443.7704
 -12199554.11547  -9455515.01545  22562373.3364                   22562371.0904
 11  8  9  3 58  0.0000000  0  9G25G12G18G26G05G29G15G21G02
 -11937174.570 7  -9288655.716 7  22321364.289
  -7553585.346 7  -5867556.693 6  23344861.133
  -1779192.56846   -641594.90042  24392781.2894                   24392783.7194
 -15909322.20347 -12333614.63845  21913862.4304                   21913863.0824
 -17229795.856 8 -13383426.881 7  21444080.633
 -19706457.592 8 -15343143.539 7  20930822.563
 -10454165.692 7  -8128402.064 6  22644243.547
  -4247039.07446  -2368191.45143  24374250.6954                   24374251.2194
 -12148567.49147  -9415785.19844  22572075.4694                   22572073.1994
 11  8  9  3 58 30.0000000  0  9G25G12G18G26G05G29G15G21G02
 -11877519.062 8  -9242170.907 7  22332716.055
  -7459475.567 7  -5794224.428 6  23362769.828
  -1866039.86846   -709267.99642  24376255.0164                   24376256.4924
 -15975869.52447 -12385469.67145  21901198.8984                   21901198.8954
 -17159347.052 8 -13328531.710 7  21457486.688
 -19762753.351 8 -15387010.347 7  20920109.813
 -10545696.739 7  -8199724.920 6  22626825.922
  -4305878.83446  -2414040.55043  24363054.3204                   24363053.4494
 -12097469.08747  -9375968.27845  22581798.9224                   22581797.0664
 11  8  9  3 59  0.0000000  0  9G25G12G18G26G05G29G15G21G02
 -11817495.598 8  -9195399.397 7  22344138.234
  -7365284.650 7  -5720828.916 6  23380694.141
  -1952705.43146   -776799.55243  24359762.9614                   24359764.1684
 -16041949.28347 -12436960.37945  21888624.0234                   21888624.2274
 -17088625.421 8 -13273423.933 7  21470944.781
 -19818702.360 8 -15430606.955 7  20909463.188
 -10637033.962 7  -8270896.725 7  22609445.367
  -4364740.43446  -2459906.67843  24351853.2664                   24351852.8914
 -12046258.13547  -9336063.65745  22591544.3364                   22591542.2114
 11  8  9  3 59 30.0000000  0  9G25G12G18G26G05G29G15G21G02
 -11757107.362 7  -9148343.636 7  22355629.266
  -7271015.894 7  -5647372.788 6  23398632.063
  -2039188.60446   -844188.96243  24343306.2344                   24343306.8594
 -16107558.80547 -12488084.64745  21876139.4144                   21876139.5744
 -17017633.841 8 -13218105.812 7  21484454.141
 -19874303.017 8 -15473932.126 7  20898882.641
 -10728174.624 7  -8341915.370 6  22592100.914
  -4423624.23846  -2505790.12643  24340647.2504                   24340647.1564
 -11994934.68447  -9296071.37745  22601310.7274                   22601308.3794
 11  8  9  4  0  0.0000000  0  9G25G12G18G26G05G29G15G21G02
 -11696356.291 7  -9101005.159 7  22367190.008
  -7176671.303 7  -5573857.546 6  23416585.805
  -2125487.29046   -911434.58443  24326884.0864                   24326884.3594
 -16172693.67347 -12538839.07345  21863744.2894                   21863744.5824
 -16946374.189 8 -13162578.807 7  21498013.766
 -19929551.648 8 -15516982.996 7  20888369.445
 -10819114.965 7  -8412777.947 7  22574795.477
  -4482529.75146  -2551690.45643  24329438.3204                   24329437.3634
 -11943497.39947  -9255990.37845  22611099.1174                   22611096.3874
 11  8  9  4  0 30.0000000  0  9G25G12G18G26G05G29G15G21G02
 -11635247.232 7  -9053387.734 7  22378818.734
  -7082256.272 7  -5500287.451 6  23434552.016
  -2211602.25446   -978537.10543  24310496.4534                   24310497.5234
 -16237352.62447 -12589222.64345  21851440.3674                   21851440.1804
 -16874850.686 8 -13106846.213 7  21511624.688
 -19984448.166 8 -15559759.484 7  20877922.742
 -10909853.590 7  -8483483.307 7  22557528.852
  -4541459.33446  -2597609.53043  24318224.3284                   24318223.7894
 -11891947.88647  -9215821.94945  22620908.7734                   22620905.9344
 11  8  9  4  1  0.0000000  0  9G25G12G18G26G05G29G15G21G02
 -11573780.652 7  -9005491.686 7  22390515.680
  -6987771.485 7  -5426662.960 6  23452531.891
  -2297530.30246  -1045493.96243  24294145.1644                   24294145.7734
 -16301530.35347 -12639231.22945  21839227.7344                   21839227.7344
 -16803063.404 8 -13050908.060 7  21525285.563
 -20038988.186 8 -15602258.187 7  20867544.094
 -11000385.228 7  -8554027.373 7  22540300.578
  -4600411.27146  -2643545.99843  24307005.2424                   24307005.5084
 -11840283.61747  -9175564.07844  22630740.1724                   22630737.4304
 11  8  9  4  1 30.0000000  0  9G25G12G18G26G05G29G15G21G02
 -11511960.508 7  -8957320.139 7  22402279.313
  -6893220.754 7  -5352987.111 6  23470524.430
  -2383271.39446  -1112305.10343  24277828.6484                   24277829.7344
 -16365224.34547 -12688862.87545  21827107.1174                   21827107.4734
 -16731015.458 8 -12994766.790 7  21538995.859
 -20093170.131 8 -15644477.860 7  20857233.867
 -11090707.604 7  -8624408.403 7  22523112.969
  -4659386.77146  -2689500.86543  24295782.6334                   24295782.8204
 -11788504.96747  -9135217.08445  22640593.0004                   22640590.8134
 11  8  9  4  2  0.0000000  0  9G25G12G18G26G05G29G15G21G02
 -11449789.470 7  -8908875.199 7  22414110.211
  -6798606.979 7  -5279262.114 6  23488529.359
  -2468823.93946  -1178969.34343  24261549.4304                   24261549.1214
 -16428431.36347 -12738115.08045  21815079.5474                   21815079.4964
 -16658709.976 8 -12938424.847 7  21552754.781
 -20146991.447 8 -15686416.542 7  20846992.039
 -11180817.382 7  -8694623.776 7  22505966.063
  -4718385.97346  -2735474.20643  24284555.7974                   24284555.1174
 -11736611.74747  -9094780.79345  22650468.2664                   22650465.5474
 11  8  9  4  2 30.0000000  0  9G25G12G18G26G05G29G15G21G02
 -11387270.364 8  -8860159.027 7  22426007.469
  -6703932.892 7  -5205490.127 6  23506545.375
  -2554186.98246  -1245485.92443  24245304.7734                   24245304.7704
 -16491148.01647 -12786985.17245  21803144.7114                   21803144.8444
 -16586148.371 8 -12881883.332 7  21566562.844
 -20200449.863 8 -15728072.436 7  20836818.898
 -11270711.449 7  -8764671.046 7  22488859.344
  -4777409.24946  -2781466.30143  24273324.2664                   24273323.5554
 -11684603.58647  -9054254.95345  22660365.0704                   22660362.7304
 11  8  9  4  3  0.0000000  0  9G25G12G18G26G05G29G15G21G02
 -11324406.035 7  -8811173.841 7  22437970.102
  -6609201.636 7  -5131673.615 6  23524572.133
  -2639359.70846  -1311854.22943  24229097.0084                   24229097.3244
 -16553371.31647 -12835470.82645  21791304.1024                   21791304.0554
 -16513333.812 8 -12825144.718 7  21580418.750
 -20253543.359 8 -15769443.977 7  20826715.414
 -11360387.042 7  -8834548.079 7  22471794.445
  -4836456.86146  -2827477.35843  24262087.7194                   24262086.8524
 -11632479.85847  -9013639.06045  22670284.1804                   22670281.4384
 11  8  9  4  3 30.0000000  0  9G25G12G18G26G05G29G15G21G02
 -11261200.381 7  -8761922.701 7  22449998.398
  -6514416.982 7  -5057815.470 6  23542608.844
  -2724341.31946  -1378073.58143  24212924.4614                   24212926.5124
 -16615098.69047 -12883570.07245  21779556.8914                   21779557.5824
 -16440269.576 8 -12768211.545 7  21594322.703
 -20306270.659 8 -15810530.167 7  20816681.906
 -11449841.488 7  -8904252.800 7  22454771.945
  -4895529.71746  -2873508.13243  24250846.3204                   24250845.6054
 -11580240.90347  -8972933.38045  22680224.3834                   22680221.8244
 11  8  9  4  4  0.0000000  0  9G25G12G18G26G05G29G15G21G02
 -11197654.994 7  -8712406.823 7  22462089.992
  -6419580.714 7  -4983917.103 6  23560655.625
  -2809129.72546  -1444142.38943  24196790.4224                   24196791.4884
 -16676325.90347 -12931279.54745  21767906.3754                   21767906.6684
 -16366955.995 8 -12711084.053 7  21608273.820
 -20358627.941 8 -15851328.039 8  20806718.727
 -11539070.722 7  -8973782.041 7  22437792.359
  -4954627.28546  -2919558.10343  24239599.6644                   24239599.2384
 -11527885.30347  -8932136.79045  22690187.6954                   22690185.2814
 11  8  9  4  4 30.0000000  0  9G25G12G18G26G05G29G15G21G02
 -11133773.474 7  -8662629.032 7  22474245.969
  -6324696.463 7  -4909981.354 6  23578711.070
  -2893724.35346  -1510060.24243  24180692.7734                   24180693.5434
 -16737050.39647 -12978597.31645  21756351.0234                   21756350.8164
 -16293396.463 8 -12653764.941 7  21622272.086
 -20410613.627 8 -15891836.353 7  20796826.750
 -11628071.895 7  -9043133.564 7  22420855.609
  -5013750.29047  -2965627.92343  24228350.0164                   24228349.1254
 -11475413.46147  -8891249.63745  22700172.6174                   22700169.9964
 11  8  9  4  5  0.0000000  0  9G25G12G18G26G05G29G15G21G02
 -11069558.778 7  -8612591.623 7  22486465.945
  -6229767.393 7  -4836010.695 6  23596775.852
  -2978124.61346  -1575826.61643  24164631.4614                   24164632.5204
 -16797269.09347 -13025520.94845  21744891.3754                   21744891.6764
 -16219594.124 8 -12596256.613 7  21636316.188
 -20462225.771 8 -15932053.595 7  20787004.602
 -11716842.320 7  -9112305.272 7  22403963.523
  -5072899.34346  -3011718.06943  24217094.3834                   24217093.4304
 -11422824.86747  -8850271.50244  22710179.8444                   22710177.1334
 11  8  9  4  5 30.0000000  0  9G25G12G18G26G05G29G15G21G02
 -11005012.843 7  -8562296.082 7  22498748.352
  -6134795.176 7  -4762006.399 6  23614848.992
  -3062328.29046  -1641439.83843  24148608.3134                   24148608.4574
 -16856977.82747 -13072047.22045  21733529.2344                   21733529.1884
 -16145549.875 8 -12538559.793 7  21650406.156
 -20513460.670 8 -15971976.881 7  20777255.070
 -11805377.893 7  -9181293.998 7  22387115.234
  -5132073.61546  -3057827.79743  24205833.0634                   24205833.6954
 -11370118.38547  -8809201.49144  22720209.5554                   22720206.4884
 11  8  9  4  6  0.0000000  0  9G25G12G18G26G05G29G15G21G02
 -10940139.593 8  -8511745.503 7  22511093.773
  -6039784.053 7  -4687971.837 6  23632927.648
  -3146335.28146  -1706899.78443  24132622.0314                   24132622.5434
 -16916174.74347 -13118174.67345  21722264.6954                   21722264.4574
 -16071266.923 8 -12480676.966 7  21664541.938
 -20564317.407 8 -16011605.494 7  20767577.289
 -11893676.075 7  -9250097.730 7  22370312.930
  -5191274.43547  -3103958.23443  24194568.2424                   24194567.0744
 -11317294.50047  -8768040.02944  22730261.2424                   22730259.4964
 11  8  9  4  6 30.0000000  0  9G25G12G18G26G05G29G15G21G02
 -10874941.617 7  -8460941.885 7  22523500.078
  -5944736.425 6  -4613908.800 6  23651015.531
  -3230144.38846  -1772205.50343  24116673.9924                   24116673.9804
 -16974856.26747 -13163900.49845  21711097.7974                   21711097.7734
 -15996747.619 8 -12422609.979 7  21678722.227
 -20614793.174 8 -16050937.255 7  20757972.094
 -11981733.880 7  -9318714.141 7  22353555.789
  -5250501.73947  -3150109.29443  24183297.7424                   24183296.8094
 -11264352.61947  -8726786.59944  22740335.8204                   22740333.7114
 11  8  9  4  7  0.0000000  0  9G25G12G18G26G05G29G15G21G02
 -10809421.494 7  -8409887.264 7  22535968.250
  -5849654.792 6  -4539819.260 6  23669108.516
  -3313754.02646  -1837355.81743  24100763.5944                   24100763.9494
 -17033018.76447 -13209221.92345  21700029.8524                   21700030.6604
 -15921994.023 8 -12364360.408 7  21692947.188
 -20664885.552 8 -16089970.274 8  20748439.641
 -12069547.509 7  -9387140.319 7  22336845.398
  -5309755.30047  -3196280.82644  24172021.5704                   24172021.9304
 -11211291.79247  -8685440.49944  22750432.7194                   22750431.1214
 11  8  9  4  7 30.0000000  0  9G25G12G18G26G05G29G15G21G02
 -10743583.161 7  -8358584.685 7  22548497.117
  -5754543.190 6  -4465706.387 6  23687207.672
  -3397164.10646  -1902350.67043  24084891.2894                   24084891.0634
 -17090660.27447 -13254137.35945  21689060.8594                   21689061.1254
 -15847009.142 8 -12305930.639 7  21707216.109
 -20714593.272 8 -16128703.553 8  20738980.695
 -12157115.076 7  -9455374.727 7  22320181.578
  -5369036.42947  -3242473.83944  24160741.3054                   24160740.7464
 -11158112.50447  -8644002.11844  22760552.6484                   22760550.5474
 11  8  9  4  8  0.0000000  0  9G25G12G18G26G05G29G15G21G02
 -10677429.696 7  -8307036.537 7  22561085.844
  -5659404.843 6  -4391572.655 6  23705312.102
  -3480373.56346  -1967189.15943  24069056.7344                   24069056.9614
 -17147778.05447 -13298644.69745  21678191.5234                   21678191.8984
 -15771795.705 8 -12247322.761 7  21721529.039
 -20763914.246 8 -16167135.463 8  20729595.258
 -12244433.545 7  -9523415.056 7  22303565.828
  -5428345.40446  -3288688.53944  24149453.9304                   24149454.5204
 -11104814.49747  -8602471.19945  22770695.1564                   22770693.2664
 11  8  9  4  8 30.0000000  0  9G25G12G18G26G05G29G15G21G02
 -10610963.278 8  -8255244.533 7  22573733.586
  -5564241.491 6  -4317419.431 6  23723421.094
  -3563380.93546  -2031870.16143  24053260.2664                   24053261.0744
 -17204367.93047 -13342740.68945  21667422.5634                   21667422.8244
 -15696355.453 8 -12188538.157 7  21735884.664
 -20812845.115 8 -16205263.411 8  20720283.961
 -12331498.817 7  -9591258.084 7  22286997.500
  -5487681.68847  -3334924.54444  24138163.2034                   24138163.0554
 -11051396.78847  -8560847.01444  22780860.5314                   22780857.8134
 11  8  9  4  9  0.0000000  0  9G25G12G18G26G05G29G15G21G02
 -10544187.078 7  -8203211.137 7  22586440.969
  -5469056.357 6  -4243249.237 6  23741534.609
  -3646185.34846  -2096393.00343  24037503.2894                   24037503.7304
 -17260427.51947 -13386423.47045  21656755.1254                   21656755.0164
 -15620690.864 8 -12129578.732 7  21750282.898
 -20861384.347 8 -16243086.178 8  20711046.766
 -12418308.019 7  -9658901.583 7  22270478.195
  -5547045.81546  -3381182.19943  24126866.1954                   24126865.8524
 -10997859.09047  -8519129.33745  22791048.2734                   22791046.0124
 11  8  9  4  9 30.0000000  0  9G25G12G18G26G05G29G15G21G02
 -10477104.422 7  -8150938.956 7  22599206.680
  -5373852.835 7  -4169064.720 6  23759651.008
  -3728785.91946  -2160757.02743  24021785.3444                   24021785.8634
 -17315953.94547 -13429690.79245  21646188.5004                   21646189.0594
 -15544804.396 8 -12070446.417 7  21764724.383
 -20909530.101 8 -16280602.340 8  20701885.141
 -12504858.502 7  -9726343.464 7  22254009.023
  -5606438.14547  -3427461.86543  24115564.9534                   24115563.7934
 -10944201.36547  -8477318.12644  22801259.0784                   22801256.3164
 11  8  9  4 10  0.0000000  0  9G25G12G18G26G05G29G15G21G02
 -10409717.776 7  -8098429.897 7  22612029.734
  -5278633.590 7  -4094867.968 6  23777771.031
  -3811181.08546  -2224960.98943  24006105.3834                   24006106.2584
 -17370943.77348 -13472539.98645  21635724.5004                   21635724.2894
 -15468698.034 8 -12011142.753 7  21779206.477
 -20957279.294 8 -16317809.498 7  20692799.195
 -12591146.502 7  -9793580.826 7  22237588.461
  -5665858.73347  -3473763.53843  24104257.6564                   24104256.5824
 -10890422.65547  -8435412.63745  22811492.9844                   22811490.2774
 11  8  9  4 10 30.0000000  0  9G25G12G18G26G05G29G15G21G02
 -10342030.345 7  -8045686.466 7  22624909.719
  -5183401.276 7  -4020661.002 6  23795893.242
  -3893370.58446  -2289004.66043  23990464.9304                   23990465.5864
 -17425394.19747 -13514968.87545  21625363.1884                   21625363.4184
 -15392374.201 8 -11951669.652 7  21793730.469
 -21004630.024 8 -16354706.163 7  20683788.359
 -12677169.546 7  -9860611.743 7  22221218.914
  -5725308.16246  -3520087.70343  24092944.1804                   24092943.2974
 -10836522.81247  -8393412.76745  22821748.9694                   22821747.1374
 11  8  9  4 11  0.0000000  0  9G25G12G18G26G05G29G15G21G02
 -10274045.000 7  -7992710.874 7  22637846.984
  -5088158.469 6  -3946445.872 6  23814017.133
  -3975353.36046  -2352887.29943  23974865.8914                   23974864.8554
 -17479302.10148 -13556975.03045  21615105.0784                   21615105.0164
 -15315835.276 8 -11892028.925 7  21808295.500
 -21051580.125 8 -16391290.643 8  20674853.883
 -12762923.836 7  -9927433.220 7  22204900.422
  -5784786.09147  -3566434.04643  24081625.9774                   24081624.9964
 -10782501.26947  -8351318.05545  22832029.0394                   22832026.8244
 11  8  9  4 11 30.0000000  0  9G25G12G18G26G05G29G15G21G02
 -10205764.807 7  -7939505.542 7  22650840.148
  -4992908.451 7  -3872225.142 6  23832142.625
  -4057128.21346  -2416607.90343  23959303.3364                   23959304.0634
 -17532664.79248 -13598556.31745  21604949.9384                   21604950.3204
 -15239083.672 8 -11832222.488 7  21822900.727
 -21098127.252 8 -16427561.117 7  20665996.531
 -12848406.495 7  -9994043.058 7  22188633.836
  -5844293.20947  -3612803.14743  24070302.6094                   24070300.3054
 -10728357.66547  -8309128.24445  22842332.4224                   22842329.8404
 11  8  9  4 12  0.0000000  0  9G25G12G18G26G05G29G15G21G02
 -10137193.080 7  -7886073.075 7  22663889.664
  -4897654.378 6  -3798001.247 6  23850269.375
  -4138694.23446  -2480165.79143  23943781.9224                   23943781.9064
 -17585479.53647 -13639710.64345  21594899.8674                   21594899.9184
 -15162122.081 8 -11772252.405 7  21837546.078
 -21144269.759 8 -16463516.302 8  20657215.516
 -12933614.937 7 -10060439.210 7  22172419.336
  -5903829.83747  -3659195.26543  24058972.8674                   24058971.3754
 -10674091.95347  -8266843.28144  22852659.1414                   22852656.6484
 11  8  9  4 12 30.0000000  0  9G25G12G18G26G05G29G15G21G02
 -10068332.029 7  -7832415.142 7  22676993.273
  -4802398.278 6  -3723775.735 6  23868395.313
  -4220049.81647  -2543559.67743  23928300.5784                   23928300.5864
 -17637742.83247 -13680435.28245  21584954.8594                   21584954.9304
 -15084952.082 8 -11712119.937 7  21852231.078
 -21190004.385 8 -16499153.662 7  20648512.828
 -13018545.031 7 -10126618.459 7  22156257.203
  -5963395.64747  -3705610.08743  24047637.4304                   24047636.2504
 -10619702.96547  -8224462.26545  22863008.6254                   22863006.8484
 11  8  9  4 13  0.0000000  0  9G25G12G18G26G05G29G15G21G02
  -9999185.552 7  -7778534.789 7  22690150.961
  -4707143.868 6  -3649551.604 6  23886522.195
  -4301194.88547  -2606789.54543  23912859.0004                   23912859.1844
 -17689452.73748 -13720728.68445  21575114.3524                   21575114.5664
 -15007576.631 7 -11651827.372 7  21866955.414
 -21235330.188 8 -16534472.466 8  20639887.578
 -13103194.813 8 -10192579.287 7  22140149.172
  -6022991.40147  -3752048.23743  24036296.5474                   24036295.4024
 -10565191.00847  -8181985.43344  22873382.2274                   22873380.0984
 11  8  9  4 13 30.0000000  0  9G25G12G18G26G05G29G15G21G02
  -9929756.548 8  -7724434.295 7  22703363.344
  -4611893.903 7  -3575330.890 6  23904647.844
  -4382128.84047  -2669854.93443  23897458.1254                   23897458.1414
 -17740606.25048 -13760588.54745  21565380.1484                   21565380.0204
 -14929997.814 8 -11591376.361 7  21881717.734
 -21280244.730 8 -16569470.795 8  20631340.406
 -13187560.998 7 -10258319.147 7  22124094.617
  -6082616.93647  -3798509.61543  24024949.4924                   24024948.5274
 -10510555.64647  -8139412.42744  22883778.7194                   22883776.6134
 11  8  9  4 14  0.0000000  0  9G25G12G18G26G05G29G15G21G02
  -9860047.315 7  -7670115.446 7  22716628.586
  -4516650.522 6  -3501115.333 6  23922771.594
  -4462849.93047  -2732754.44343  23882097.3984                   23882097.6644
 -17791199.73347 -13800012.01345  21555752.5784                   21555752.7274
 -14852217.471 7 -11530768.312 7  21896518.719
 -21324744.691 8 -16604146.080 8  20622872.398
 -13271639.909 7 -10323835.157 7  22108095.016
  -6142272.11447  -3844994.09744  24013597.9844                   24013597.0744
 -10455795.74347  -8096742.37444  22894198.6724                   22894196.7384
 11  8  9  4 14 30.0000000  0  9G25G12G18G26G05G29G15G21G02
  -9790061.640 7  -7615581.191 7  22729946.211
  -4421417.047 6  -3426907.498 6  23940893.305
  -4543357.65347  -2795487.69343  23866776.9064                   23866777.1844
 -17841231.15847 -13838997.52445  21546231.8204                   21546231.5984
 -14774238.878 7 -11470005.795 7  21911357.422
 -21368829.477 8 -16638497.850 8  20614483.359
 -13355429.032 7 -10389125.347 7  22092150.094
  -6201957.90847  -3891502.40344  24002240.0164                   24002239.6484
 -10400911.62447  -8053975.54344  22904643.3834                   22904641.2624
 11  8  9  4 15  0.0000000  0  9G25G12G18G26G05G29G15G21G02
  -9719802.659 7  -7560833.955 7  22743316.344
  -4326196.875 6  -3352710.014 6  23959013.938
  -4623651.14447  -2858053.96943  23851497.7114                   23851497.6334
 -17890698.01948 -13877543.11345  21536818.1644                   21536818.7424
 -14696064.164 8 -11409090.446 7  21926234.016
 -21412496.629 8 -16672524.190 8  20606173.828
 -13438925.334 7 -10454187.366 7  22076261.445
  -6261674.41347  -3938034.70344  23990876.9224                   23990875.9304
 -10345902.96447  -8011111.63944  22915110.5234                   22915109.4694
 11  8  9  4 15 30.0000000  0  9G25G12G18G26G05G29G15G21G02
  -9649273.347 7  -7505876.071 7  22756737.617
  -4230992.422 7  -3278524.766 6  23977130.563
  -4703729.80647  -2920452.90743  23836259.3444                   23836258.7194
 -17939597.49348 -13915646.56645  21527513.0084                   21527513.6134
 -14617695.388 8 -11348023.864 7  21941146.891
 -21455744.387 8 -16706223.740 8  20597943.969
 -13522125.868 7 -10519018.901 7  22060428.516
  -6321421.72946  -3984591.01543  23979506.8444                   23979506.0784
 -10290769.26047  -7968150.32744  22925602.4144                   22925600.9574
 11  8  9  4 16  0.0000000  0  9G25G12G18G26G05G29G15G21G02
  -9578477.055 7  -7450710.180 7  22770209.203
  -4135807.040 7  -3204354.372 6  23995244.492
  -4783592.89247  -2982683.86043  23821061.7974                   23821062.0474
 -17987927.10248 -13953305.99345  21518316.7894                   21518316.6214
 -14539135.409 8 -11286808.284 7  21956096.523
 -21498570.499 8 -16739594.722 8  20589794.430
 -13605027.744 7 -10583617.722 7  22044653.109
  -6381200.35747  -4031171.70344  23968131.7034                   23968131.0204
 -10235510.34147  -7925091.45944  22936118.2584                   22936116.2974
 11  8  9  4 16 30.0000000  0  9G25G12G18G26G05G29G15G21G02
  -9507415.995 7  -7395337.929 7  22783732.258
  -4040642.838 6  -3130200.515 6  24013352.750
  -4863238.66246  -3044745.44443  23805905.3754                   23805905.8134
 -18035683.21247 -13990518.52245  21509228.5554                   21509229.0704
 -14460385.560 8 -11225444.772 7  21971081.992
 -21540972.109 8 -16772634.930 8  20581725.703
 -13687626.926 7 -10647980.679 7  22028934.742
  -6441009.77647  -4077776.43343  23956749.9774                   23956749.4804
 -10180125.31647  -7881934.29244  22946657.4614                   22946655.7344
 11  8  9  4 17  0.0000000  0  9G25G12G18G26G05G29G15G21G02
  -9436093.293 7  -7339761.813 7  22797304.500
  -3945502.126 6  -3056064.959 6  24031458.242
  -4942666.46446  -3106637.22643  23790790.8594                   23790791.0704
 -18082863.40548 -14027282.29245  21500250.9224                   21500251.0554
 -14381448.433 8 -11163935.333 7  21986103.344
 -21582947.357 8 -16805342.909 8  20573738.086
 -13769920.856 8 -10712105.792 7  22013274.875
  -6500849.99847  -4124405.12544  23945362.9924                   23945361.8404
 -10124613.63747  -7838678.45444  22957221.4304                   22957218.8204
 11  8  9  4 17 30.0000000  0  9G25G12G18G26G05G29G15G21G02
  -9364512.648 7  -7283984.720 7  22810926.141
  -3850388.497 6  -2981950.471 6  24049557.336
  -5021875.83646  -3168358.78943  23775717.3834                   23775717.8674
 -18129465.29148 -14063595.42745  21491382.1564                   21491382.6844
 -14302326.483 7 -11102281.885 7  22001159.961
 -21624494.634 8 -16837717.408 8  20565831.969
 -13851906.795 7 -10775990.917 7  21997673.023
  -6560721.88947  -4171058.50043  23933969.2424                   23933968.4024
 -10068975.34247  -7795323.94344  22967808.4304                   22967806.6174
 11  8  9  4 18  0.0000000  0  9G25G12G18G26G05G29G15G21G02
  -9292677.232 7  -7228009.107 7  22824595.828
  -3755305.156 7  -2907859.604 6  24067651.383
  -5100866.15347  -3229909.60943  23760686.2974                   23760686.3134
 -18175486.79848 -14099456.33645  21482625.1094                   21482625.0554
 -14223022.330 8 -11040486.468 7  22016250.852
 -21665611.962 8 -16869756.884 8  20558007.914
 -13933582.066 8 -10839633.964 7  21982131.078
  -6620625.66547  -4217736.71743  23922570.6254                   23922569.1454
 -10013210.06547  -7751870.50344  22978420.5164                   22978418.5824
 11  8  9  4 18 30.0000000  0  9G25G12G18G26G05G29G15G21G02
  -9220589.598 7  -7171836.929 7  22838312.898
  -3660254.387 7  -2833794.098 6  24085739.000
  -5179636.24546  -3291288.85843  23745696.4384                   23745697.0634
 -18220924.45348 -14134862.28345  21473978.5234                   21473978.8094
 -14143537.618 8 -10978550.341 7  22031376.477
 -21706296.817 8 -16901459.352 8  20550265.789
 -14014942.995 7 -10903032.069 7  21966648.602
  -6680560.73847  -4264439.30843  23911164.7344                   23911163.4654
  -9957317.25247  -7708317.67144  22989057.0704                   22989054.5514
 11  8  9  4 19  0.0000000  0  9G25G12G18G26G05G29G15G21G02
  -9148252.834 7  -7115470.659 7  22852078.477
  -3565238.782 7  -2759756.029 6  24103820.109
  -5258185.09947  -3352495.67243  23730749.6254                   23730749.2464
 -18265775.98448 -14169811.51245  21465443.0164                   21465443.3554
 -14063874.659 8 -10916475.292 7  22046535.859
 -21746547.100 8 -16932823.208 8  20542606.102
 -14095986.442 8 -10966182.773 7  21951226.461
  -6740527.57647  -4311166.67143  23899753.0784                   23899751.8914
  -9901296.39247  -7664665.05844  22999717.4064                   22999714.9614
